<?xml version='1.0' encoding='UTF-8'?><gpx version="1.1" creator="JPX - https://github.com/jenetics/jpx" xmlns="http://www.topografix.com/GPX/1/1"><trk><trkseg><trkpt lat="40.84317159254985" lon="14.50478685649696"><ele>96.0</ele><time>2026-04-19T06:35:12.002Z</time></trkpt><trkpt lat="40.84319054507802" lon="14.504634959067698"><ele>96.0</ele><time>2026-04-19T06:39:22Z</time></trkpt><trkpt lat="40.843189402871424" lon="14.504541973003251"><ele>96.0</ele><time>2026-04-19T06:39:23Z</time></trkpt><trkpt lat="40.84318129679834" lon="14.504444775563286"><ele>96.0</ele><time>2026-04-19T06:39:24Z</time></trkpt><trkpt lat="40.84317175050283" lon="14.50431951231571"><ele>96.0</ele><time>2026-04-19T06:39:26Z</time></trkpt><trkpt lat="40.8432292229692" lon="14.504247651122888"><ele>96.0</ele><time>2026-04-19T06:39:29Z</time></trkpt><trkpt lat="40.843312607556335" lon="14.504188299504762"><ele>96.19999999999999</ele><time>2026-04-19T06:43:49.999Z</time></trkpt><trkpt lat="40.84330034666997" lon="14.504090078108364"><ele>96.39999999999999</ele><time>2026-04-19T06:43:51.999Z</time></trkpt><trkpt lat="40.84336735058202" lon="14.504036899072789"><ele>96.6</ele><time>2026-04-19T06:43:56.999Z</time></trkpt><trkpt lat="40.84345808168371" lon="14.504048702442587"><ele>96.8</ele><time>2026-04-19T06:43:57.999Z</time></trkpt><trkpt lat="40.843560904622535" lon="14.504037631036356"><ele>97.0</ele><time>2026-04-19T06:43:58.999Z</time></trkpt><trkpt lat="40.843686940014805" lon="14.504014617806474"><ele>97.5</ele><time>2026-04-19T06:43:59.999Z</time></trkpt><trkpt lat="40.843831391642965" lon="14.504018186126956"><ele>98.0</ele><time>2026-04-19T06:44:00.999Z</time></trkpt><trkpt lat="40.84396923224907" lon="14.504020436821165"><ele>98.5</ele><time>2026-04-19T06:44:01.999Z</time></trkpt><trkpt lat="40.84413329460991" lon="14.50403770025806"><ele>99.0</ele><time>2026-04-19T06:44:02.999Z</time></trkpt><trkpt lat="40.84427962429482" lon="14.504042311737695"><ele>99.0</ele><time>2026-04-19T06:44:03.999Z</time></trkpt><trkpt lat="40.84440591198719" lon="14.504028409874316"><ele>99.0</ele><time>2026-04-19T06:44:04.999Z</time></trkpt><trkpt lat="40.844525001967284" lon="14.504050634722223"><ele>99.0</ele><time>2026-04-19T06:44:05.999Z</time></trkpt><trkpt lat="40.8446751927868" lon="14.504058036576431"><ele>99.0</ele><time>2026-04-19T06:44:06.999Z</time></trkpt><trkpt lat="40.84482742131512" lon="14.504065685417201"><ele>99.0</ele><time>2026-04-19T06:44:07.999Z</time></trkpt><trkpt lat="40.844930501396746" lon="14.504071703916122"><ele>99.0</ele><time>2026-04-19T06:44:08.999Z</time></trkpt><trkpt lat="40.84503098513037" lon="14.504076779388765"><ele>99.0</ele><time>2026-04-19T06:44:09.999Z</time></trkpt><trkpt lat="40.84510510558593" lon="14.504080640163311"><ele>99.0</ele><time>2026-04-19T06:44:10.999Z</time></trkpt><trkpt lat="40.84519885025156" lon="14.504084432404927"><ele>99.0</ele><time>2026-04-19T06:44:12.999Z</time></trkpt><trkpt lat="40.845206073946486" lon="14.504258690676831"><ele>99.0</ele><time>2026-04-19T06:44:14.999Z</time></trkpt><trkpt lat="40.84520284733656" lon="14.504439538048803"><ele>99.0</ele><time>2026-04-19T06:44:15.999Z</time></trkpt><trkpt lat="40.845187835108895" lon="14.504677074697984"><ele>99.0</ele><time>2026-04-19T06:44:16.999Z</time></trkpt><trkpt lat="40.84516565589081" lon="14.504932890656512"><ele>98.33333333333334</ele><time>2026-04-19T06:44:17.999Z</time></trkpt><trkpt lat="40.84516029289115" lon="14.505207509125347"><ele>97.66666666666667</ele><time>2026-04-19T06:44:18.999Z</time></trkpt><trkpt lat="40.845135695267516" lon="14.505461473726818"><ele>97.0</ele><time>2026-04-19T06:44:19.999Z</time></trkpt><trkpt lat="40.845112286739536" lon="14.505672845991448"><ele>96.25</ele><time>2026-04-19T06:44:20.999Z</time></trkpt><trkpt lat="40.84511307994121" lon="14.50586050877537"><ele>95.5</ele><time>2026-04-19T06:44:21.999Z</time></trkpt><trkpt lat="40.845106358350186" lon="14.506017142257521"><ele>94.75</ele><time>2026-04-19T06:44:22.999Z</time></trkpt><trkpt lat="40.845089036855754" lon="14.506172793719946"><ele>94.0</ele><time>2026-04-19T06:44:23.999Z</time></trkpt><trkpt lat="40.84507092536509" lon="14.506323923521789"><ele>93.75</ele><time>2026-04-19T06:44:24.999Z</time></trkpt><trkpt lat="40.84504418905138" lon="14.506463549788043"><ele>93.5</ele><time>2026-04-19T06:44:25.999Z</time></trkpt><trkpt lat="40.84500476978475" lon="14.506612241872661"><ele>93.25</ele><time>2026-04-19T06:44:26.999Z</time></trkpt><trkpt lat="40.84495481251996" lon="14.506750102021872"><ele>93.0</ele><time>2026-04-19T06:44:27.999Z</time></trkpt><trkpt lat="40.84489632841883" lon="14.506868153132537"><ele>93.0</ele><time>2026-04-19T06:44:28.999Z</time></trkpt><trkpt lat="40.84483841707458" lon="14.507021139023092"><ele>93.0</ele><time>2026-04-19T06:44:29.999Z</time></trkpt><trkpt lat="40.8447731460037" lon="14.50718068599609"><ele>93.0</ele><time>2026-04-19T06:44:30.999Z</time></trkpt><trkpt lat="40.84471609380468" lon="14.50731511389937"><ele>93.0</ele><time>2026-04-19T06:44:31.999Z</time></trkpt><trkpt lat="40.84464189798799" lon="14.507421235792368"><ele>92.66666666666667</ele><time>2026-04-19T06:44:32.998Z</time></trkpt><trkpt lat="40.84458375915387" lon="14.50753956868207"><ele>92.33333333333333</ele><time>2026-04-19T06:44:33.998Z</time></trkpt><trkpt lat="40.844542574588324" lon="14.507648743249225"><ele>92.0</ele><time>2026-04-19T06:44:34.998Z</time></trkpt><trkpt lat="40.8445166226458" lon="14.507747833745682"><ele>91.66666666666666</ele><time>2026-04-19T06:44:35.998Z</time></trkpt><trkpt lat="40.84450387741673" lon="14.507835317225025"><ele>91.33333333333333</ele><time>2026-04-19T06:44:36.998Z</time></trkpt><trkpt lat="40.84448237022509" lon="14.507955015160912"><ele>91.0</ele><time>2026-04-19T06:44:38.998Z</time></trkpt><trkpt lat="40.84442081029874" lon="14.50804310864785"><ele>91.0</ele><time>2026-04-19T06:44:43.998Z</time></trkpt><trkpt lat="40.844349685440235" lon="14.508001690107818"><ele>91.0</ele><time>2026-04-19T06:44:44.998Z</time></trkpt><trkpt lat="40.84425697152824" lon="14.507979170439738"><ele>91.0</ele><time>2026-04-19T06:44:45.998Z</time></trkpt><trkpt lat="40.84415695076267" lon="14.507939182727688"><ele>91.0</ele><time>2026-04-19T06:44:46.998Z</time></trkpt><trkpt lat="40.84401890751238" lon="14.507887962530047"><ele>91.0</ele><time>2026-04-19T06:44:47.998Z</time></trkpt><trkpt lat="40.84385791910844" lon="14.50780750011335"><ele>91.33333333333333</ele><time>2026-04-19T06:44:48.998Z</time></trkpt><trkpt lat="40.843711134310205" lon="14.507749925330543"><ele>91.66666666666667</ele><time>2026-04-19T06:44:49.998Z</time></trkpt><trkpt lat="40.84352862507892" lon="14.507679932839121"><ele>92.0</ele><time>2026-04-19T06:44:50.998Z</time></trkpt><trkpt lat="40.84338547576151" lon="14.507635100277648"><ele>92.0</ele><time>2026-04-19T06:44:51.998Z</time></trkpt><trkpt lat="40.84327351954669" lon="14.50761243589106"><ele>92.0</ele><time>2026-04-19T06:44:52.998Z</time></trkpt><trkpt lat="40.84318816948666" lon="14.507583332211373"><ele>92.0</ele><time>2026-04-19T06:44:53.998Z</time></trkpt><trkpt lat="40.843123588923895" lon="14.507548297418607"><ele>92.0</ele><time>2026-04-19T06:44:54.998Z</time></trkpt><trkpt lat="40.84304729330681" lon="14.50755365471183"><ele>92.0</ele><time>2026-04-19T06:44:56.998Z</time></trkpt><trkpt lat="40.8430322696926" lon="14.507714861899926"><ele>92.0</ele><time>2026-04-19T06:44:58.998Z</time></trkpt><trkpt lat="40.84304004140855" lon="14.507838644601367"><ele>92.0</ele><time>2026-04-19T06:44:59.998Z</time></trkpt><trkpt lat="40.84302804414889" lon="14.508003668809241"><ele>92.0</ele><time>2026-04-19T06:45:00.998Z</time></trkpt><trkpt lat="40.84300880838057" lon="14.508135690743638"><ele>92.0</ele><time>2026-04-19T06:45:01.998Z</time></trkpt><trkpt lat="40.84304669423573" lon="14.508257629721244"><ele>92.0</ele><time>2026-04-19T06:45:03.998Z</time></trkpt><trkpt lat="40.84288854109686" lon="14.508269386456659"><ele>91.5</ele><time>2026-04-19T06:45:06.998Z</time></trkpt><trkpt lat="40.84277304178011" lon="14.508284297861506"><ele>91.0</ele><time>2026-04-19T06:45:07.998Z</time></trkpt><trkpt lat="40.84261024183943" lon="14.508285318859917"><ele>90.5</ele><time>2026-04-19T06:45:08.998Z</time></trkpt><trkpt lat="40.84245789460802" lon="14.508281390915183"><ele>90.0</ele><time>2026-04-19T06:45:09.998Z</time></trkpt><trkpt lat="40.84230668129248" lon="14.50828991287862"><ele>90.25</ele><time>2026-04-19T06:45:10.998Z</time></trkpt><trkpt lat="40.842125844733786" lon="14.50830962757695"><ele>90.5</ele><time>2026-04-19T06:45:11.998Z</time></trkpt><trkpt lat="40.84198473797528" lon="14.50831486534505"><ele>90.75</ele><time>2026-04-19T06:45:12.998Z</time></trkpt><trkpt lat="40.84187391291127" lon="14.508309982867502"><ele>91.0</ele><time>2026-04-19T06:45:13.998Z</time></trkpt><trkpt lat="40.841775121652" lon="14.508303629733486"><ele>91.0</ele><time>2026-04-19T06:45:14.998Z</time></trkpt><trkpt lat="40.841637434277125" lon="14.508274842710582"><ele>91.0</ele><time>2026-04-19T06:45:15.998Z</time></trkpt><trkpt lat="40.84146381884528" lon="14.508255303886422"><ele>91.0</ele><time>2026-04-19T06:45:16.998Z</time></trkpt><trkpt lat="40.84133624446905" lon="14.508264288699394"><ele>91.0</ele><time>2026-04-19T06:45:18Z</time></trkpt><trkpt lat="40.841220080856864" lon="14.508231889481744"><ele>91.0</ele><time>2026-04-19T06:45:19Z</time></trkpt><trkpt lat="40.841123926076946" lon="14.50822256803329"><ele>91.0</ele><time>2026-04-19T06:45:20Z</time></trkpt><trkpt lat="40.841001492988326" lon="14.508208519822517"><ele>91.0</ele><time>2026-04-19T06:45:21Z</time></trkpt><trkpt lat="40.84091460157173" lon="14.508221588483684"><ele>91.0</ele><time>2026-04-19T06:45:22Z</time></trkpt><trkpt lat="40.84080678632958" lon="14.50820715886377"><ele>91.0</ele><time>2026-04-19T06:45:24Z</time></trkpt><trkpt lat="40.84074361803948" lon="14.508228134081252"><ele>91.0</ele><time>2026-04-19T06:45:26Z</time></trkpt><trkpt lat="40.8407170545985" lon="14.508388390588346"><ele>91.0</ele><time>2026-04-19T06:45:28Z</time></trkpt><trkpt lat="40.84073576729243" lon="14.508500564560537"><ele>91.0</ele><time>2026-04-19T06:45:29Z</time></trkpt><trkpt lat="40.840740633944584" lon="14.508631723923132"><ele>91.0</ele><time>2026-04-19T06:45:30Z</time></trkpt><trkpt lat="40.84073665408873" lon="14.508822851506558"><ele>91.0</ele><time>2026-04-19T06:45:31Z</time></trkpt><trkpt lat="40.84074246039018" lon="14.509021546687517"><ele>91.0</ele><time>2026-04-19T06:45:32Z</time></trkpt><trkpt lat="40.84072894750011" lon="14.509232623349167"><ele>91.0</ele><time>2026-04-19T06:45:33Z</time></trkpt><trkpt lat="40.840736053143466" lon="14.509428959954395"><ele>90.5</ele><time>2026-04-19T06:45:34Z</time></trkpt><trkpt lat="40.84074346133004" lon="14.5095959682834"><ele>90.0</ele><time>2026-04-19T06:45:35Z</time></trkpt><trkpt lat="40.84075406130061" lon="14.50975615280064"><ele>89.5</ele><time>2026-04-19T06:45:36Z</time></trkpt><trkpt lat="40.840774753036165" lon="14.509952316777913"><ele>89.0</ele><time>2026-04-19T06:45:37Z</time></trkpt><trkpt lat="40.840813088509684" lon="14.510153662456219"><ele>89.0</ele><time>2026-04-19T06:45:38Z</time></trkpt><trkpt lat="40.84085565239228" lon="14.510341663856948"><ele>89.0</ele><time>2026-04-19T06:45:39Z</time></trkpt><trkpt lat="40.84089275229427" lon="14.51052487274767"><ele>89.0</ele><time>2026-04-19T06:45:40Z</time></trkpt><trkpt lat="40.84092514223154" lon="14.510715894109936"><ele>89.0</ele><time>2026-04-19T06:45:41Z</time></trkpt><trkpt lat="40.84095813519367" lon="14.510892470051141"><ele>87.75</ele><time>2026-04-19T06:45:41.999Z</time></trkpt><trkpt lat="40.84099668254204" lon="14.511074245877477"><ele>86.5</ele><time>2026-04-19T06:45:42.999Z</time></trkpt><trkpt lat="40.84106313723303" lon="14.511236591691821"><ele>85.25</ele><time>2026-04-19T06:45:43.999Z</time></trkpt><trkpt lat="40.84110800269872" lon="14.511432251279622"><ele>84.0</ele><time>2026-04-19T06:45:44.999Z</time></trkpt><trkpt lat="40.84114008310485" lon="14.511631090981655"><ele>83.66666666666667</ele><time>2026-04-19T06:45:45.999Z</time></trkpt><trkpt lat="40.84118492049484" lon="14.511834339949056"><ele>83.33333333333334</ele><time>2026-04-19T06:45:46.999Z</time></trkpt><trkpt lat="40.841243691871206" lon="14.512042978001157"><ele>83.0</ele><time>2026-04-19T06:45:47.999Z</time></trkpt><trkpt lat="40.8412716599762" lon="14.512225025191329"><ele>83.0</ele><time>2026-04-19T06:45:48.999Z</time></trkpt><trkpt lat="40.841327877081056" lon="14.51238147078894"><ele>83.0</ele><time>2026-04-19T06:45:49.999Z</time></trkpt><trkpt lat="40.84137356973711" lon="14.512536021970245"><ele>83.0</ele><time>2026-04-19T06:45:50.999Z</time></trkpt><trkpt lat="40.841406752037365" lon="14.512669563212267"><ele>83.0</ele><time>2026-04-19T06:45:51.999Z</time></trkpt><trkpt lat="40.841441287811705" lon="14.512788067267692"><ele>83.0</ele><time>2026-04-19T06:45:52.999Z</time></trkpt><trkpt lat="40.84146567191922" lon="14.512886991280997"><ele>83.0</ele><time>2026-04-19T06:45:53.999Z</time></trkpt><trkpt lat="40.84151008507013" lon="14.513024189581111"><ele>83.0</ele><time>2026-04-19T06:45:55.999Z</time></trkpt><trkpt lat="40.84158456410412" lon="14.513072770819583"><ele>83.0</ele><time>2026-04-19T06:45:56.999Z</time></trkpt><trkpt lat="40.84170191371318" lon="14.513114520996849"><ele>83.0</ele><time>2026-04-19T06:45:57.999Z</time></trkpt><trkpt lat="40.841781923650956" lon="14.51317125779336"><ele>82.60000000000001</ele><time>2026-04-19T06:45:58.999Z</time></trkpt><trkpt lat="40.84184017920435" lon="14.513204878466325"><ele>82.2</ele><time>2026-04-19T06:45:59.999Z</time></trkpt><trkpt lat="40.84191298186207" lon="14.513252802503331"><ele>81.8</ele><time>2026-04-19T06:46:01.999Z</time></trkpt><trkpt lat="40.84190012848297" lon="14.513453771678657"><ele>81.4</ele><time>2026-04-19T06:46:04.999Z</time></trkpt><trkpt lat="40.841845528274895" lon="14.513561494021346"><ele>81.0</ele><time>2026-04-19T06:46:05.999Z</time></trkpt><trkpt lat="40.84178817097562" lon="14.513687891510411"><ele>80.33333333333333</ele><time>2026-04-19T06:46:06.999Z</time></trkpt><trkpt lat="40.841704158817436" lon="14.513876115077583"><ele>79.66666666666666</ele><time>2026-04-19T06:46:07.999Z</time></trkpt><trkpt lat="40.84161121225799" lon="14.514077501484108"><ele>79.0</ele><time>2026-04-19T06:46:08.999Z</time></trkpt><trkpt lat="40.84149301393923" lon="14.514264098859675"><ele>79.0</ele><time>2026-04-19T06:46:09.999Z</time></trkpt><trkpt lat="40.84140127069371" lon="14.514437089466783"><ele>79.0</ele><time>2026-04-19T06:46:10.999Z</time></trkpt><trkpt lat="40.8413110805328" lon="14.514598423177047"><ele>79.0</ele><time>2026-04-19T06:46:11.999Z</time></trkpt><trkpt lat="40.84122282716932" lon="14.514743241718456"><ele>78.75</ele><time>2026-04-19T06:46:12.999Z</time></trkpt><trkpt lat="40.84114104108179" lon="14.51487163915009"><ele>78.5</ele><time>2026-04-19T06:46:13.999Z</time></trkpt><trkpt lat="40.84106605464884" lon="14.515003448457424"><ele>78.25</ele><time>2026-04-19T06:46:14.999Z</time></trkpt><trkpt lat="40.840974690876436" lon="14.515140238556217"><ele>78.0</ele><time>2026-04-19T06:46:15.999Z</time></trkpt><trkpt lat="40.84089423009516" lon="14.51526625336695"><ele>78.0</ele><time>2026-04-19T06:46:16.999Z</time></trkpt><trkpt lat="40.84081827425435" lon="14.515391950131718"><ele>78.0</ele><time>2026-04-19T06:46:17.999Z</time></trkpt><trkpt lat="40.84073019134496" lon="14.515526617226962"><ele>78.0</ele><time>2026-04-19T06:46:18.999Z</time></trkpt><trkpt lat="40.84064418943889" lon="14.515682091850183"><ele>78.0</ele><time>2026-04-19T06:46:19.999Z</time></trkpt><trkpt lat="40.840555439013634" lon="14.51584444660472"><ele>77.0</ele><time>2026-04-19T06:46:20.999Z</time></trkpt><trkpt lat="40.84046335991252" lon="14.516017234844545"><ele>76.0</ele><time>2026-04-19T06:46:21.999Z</time></trkpt><trkpt lat="40.84036884314324" lon="14.516195715257414"><ele>75.0</ele><time>2026-04-19T06:46:22.999Z</time></trkpt><trkpt lat="40.84027999391887" lon="14.516394530440884"><ele>74.66666666666667</ele><time>2026-04-19T06:46:23.999Z</time></trkpt><trkpt lat="40.84020328366237" lon="14.51661132030238"><ele>74.33333333333334</ele><time>2026-04-19T06:46:24.999Z</time></trkpt><trkpt lat="40.84012729154275" lon="14.51684261452857"><ele>74.0</ele><time>2026-04-19T06:46:25.999Z</time></trkpt><trkpt lat="40.840055155112665" lon="14.517042446323542"><ele>73.75</ele><time>2026-04-19T06:46:26.999Z</time></trkpt><trkpt lat="40.83998402724334" lon="14.517220269486875"><ele>73.5</ele><time>2026-04-19T06:46:27.999Z</time></trkpt><trkpt lat="40.83992899044188" lon="14.517393268562689"><ele>73.25</ele><time>2026-04-19T06:46:28.999Z</time></trkpt><trkpt lat="40.839871812257414" lon="14.517563959546257"><ele>73.0</ele><time>2026-04-19T06:46:29.999Z</time></trkpt><trkpt lat="40.83980718210608" lon="14.517741061776654"><ele>73.0</ele><time>2026-04-19T06:46:30.999Z</time></trkpt><trkpt lat="40.83974479502862" lon="14.517932729296541"><ele>73.0</ele><time>2026-04-19T06:46:31.999Z</time></trkpt><trkpt lat="40.83968174522243" lon="14.518133783777357"><ele>73.0</ele><time>2026-04-19T06:46:32.999Z</time></trkpt><trkpt lat="40.839630309147395" lon="14.518350536847487"><ele>73.0</ele><time>2026-04-19T06:46:33.999Z</time></trkpt><trkpt lat="40.83959668705173" lon="14.518574141030255"><ele>73.0</ele><time>2026-04-19T06:46:34.999Z</time></trkpt><trkpt lat="40.83957196924789" lon="14.518768413596158"><ele>73.0</ele><time>2026-04-19T06:46:35.999Z</time></trkpt><trkpt lat="40.83953179893708" lon="14.518954957013008"><ele>72.25</ele><time>2026-04-19T06:46:36.999Z</time></trkpt><trkpt lat="40.839505786165944" lon="14.519152786609581"><ele>71.5</ele><time>2026-04-19T06:46:37.999Z</time></trkpt><trkpt lat="40.83948053140418" lon="14.519341206917908"><ele>70.75</ele><time>2026-04-19T06:46:38.999Z</time></trkpt><trkpt lat="40.83945727345072" lon="14.519508223758859"><ele>70.0</ele><time>2026-04-19T06:46:39.999Z</time></trkpt><trkpt lat="40.8394460345677" lon="14.519667564415942"><ele>69.8</ele><time>2026-04-19T06:46:40.999Z</time></trkpt><trkpt lat="40.839391515789075" lon="14.519796274189055"><ele>69.6</ele><time>2026-04-19T06:46:41.998Z</time></trkpt><trkpt lat="40.83935721214645" lon="14.51992558445195"><ele>69.4</ele><time>2026-04-19T06:46:42.998Z</time></trkpt><trkpt lat="40.83927613689562" lon="14.520011706259046"><ele>69.2</ele><time>2026-04-19T06:46:43.998Z</time></trkpt><trkpt lat="40.83916232823833" lon="14.520070353345869"><ele>69.0</ele><time>2026-04-19T06:46:44.998Z</time></trkpt><trkpt lat="40.83902686481601" lon="14.520092552597983"><ele>68.33333333333333</ele><time>2026-04-19T06:46:45.998Z</time></trkpt><trkpt lat="40.83887551834014" lon="14.520085914173903"><ele>67.66666666666666</ele><time>2026-04-19T06:46:46.998Z</time></trkpt><trkpt lat="40.83871617321722" lon="14.520069665287723"><ele>67.0</ele><time>2026-04-19T06:46:47.998Z</time></trkpt><trkpt lat="40.83854807286289" lon="14.52005726910327"><ele>66.5</ele><time>2026-04-19T06:46:48.998Z</time></trkpt><trkpt lat="40.83840066002761" lon="14.520066344261185"><ele>66.0</ele><time>2026-04-19T06:46:49.998Z</time></trkpt><trkpt lat="40.83827103428161" lon="14.520076035670508"><ele>65.5</ele><time>2026-04-19T06:46:50.998Z</time></trkpt><trkpt lat="40.838152647873336" lon="14.520115830258263"><ele>65.0</ele><time>2026-04-19T06:46:51.998Z</time></trkpt><trkpt lat="40.83804895175281" lon="14.52020357525575"><ele>65.0</ele><time>2026-04-19T06:46:52.998Z</time></trkpt><trkpt lat="40.83796084445149" lon="14.52032974194988"><ele>65.0</ele><time>2026-04-19T06:46:53.998Z</time></trkpt><trkpt lat="40.83790805819102" lon="14.520492855880589"><ele>65.0</ele><time>2026-04-19T06:46:54.998Z</time></trkpt><trkpt lat="40.83788258007945" lon="14.52066374580192"><ele>65.0</ele><time>2026-04-19T06:46:55.998Z</time></trkpt><trkpt lat="40.83786767052082" lon="14.520838302607984"><ele>64.75</ele><time>2026-04-19T06:46:56.998Z</time></trkpt><trkpt lat="40.837859644358836" lon="14.521010620863601"><ele>64.5</ele><time>2026-04-19T06:46:57.998Z</time></trkpt><trkpt lat="40.837851109845296" lon="14.521183229845967"><ele>64.25</ele><time>2026-04-19T06:46:58.998Z</time></trkpt><trkpt lat="40.837839000626374" lon="14.521354537108266"><ele>64.0</ele><time>2026-04-19T06:46:59.998Z</time></trkpt><trkpt lat="40.8378311128592" lon="14.521532760822717"><ele>63.75</ele><time>2026-04-19T06:47:00.998Z</time></trkpt><trkpt lat="40.83782142206566" lon="14.521717036402462"><ele>63.5</ele><time>2026-04-19T06:47:01.998Z</time></trkpt><trkpt lat="40.8378150524318" lon="14.52190436317532"><ele>63.25</ele><time>2026-04-19T06:47:02.998Z</time></trkpt><trkpt lat="40.837804538489706" lon="14.522093489026073"><ele>63.0</ele><time>2026-04-19T06:47:03.998Z</time></trkpt><trkpt lat="40.83779465187892" lon="14.522285321254472"><ele>62.5</ele><time>2026-04-19T06:47:04.998Z</time></trkpt><trkpt lat="40.83778502804572" lon="14.522468460128646"><ele>62.0</ele><time>2026-04-19T06:47:05.998Z</time></trkpt><trkpt lat="40.83777185360729" lon="14.52264459701772"><ele>61.5</ele><time>2026-04-19T06:47:06.998Z</time></trkpt><trkpt lat="40.83776260319234" lon="14.52281125469703"><ele>61.0</ele><time>2026-04-19T06:47:07.998Z</time></trkpt><trkpt lat="40.8377526640496" lon="14.52296686327005"><ele>60.5</ele><time>2026-04-19T06:47:08.998Z</time></trkpt><trkpt lat="40.83774280333607" lon="14.523117534848376"><ele>60.0</ele><time>2026-04-19T06:47:09.998Z</time></trkpt><trkpt lat="40.8377313253085" lon="14.523278336416684"><ele>59.5</ele><time>2026-04-19T06:47:10.998Z</time></trkpt><trkpt lat="40.83772217326483" lon="14.523441716049534"><ele>59.0</ele><time>2026-04-19T06:47:11.998Z</time></trkpt><trkpt lat="40.83771452232981" lon="14.52359826540733"><ele>59.0</ele><time>2026-04-19T06:47:12.998Z</time></trkpt><trkpt lat="40.83770234859174" lon="14.523751943926339"><ele>59.0</ele><time>2026-04-19T06:47:13.998Z</time></trkpt><trkpt lat="40.83769430505535" lon="14.523920925607728"><ele>59.0</ele><time>2026-04-19T06:47:14.998Z</time></trkpt><trkpt lat="40.83769155088006" lon="14.524084072521166"><ele>59.0</ele><time>2026-04-19T06:47:15.998Z</time></trkpt><trkpt lat="40.83768606046985" lon="14.5242195404235"><ele>59.0</ele><time>2026-04-19T06:47:16.998Z</time></trkpt><trkpt lat="40.837680448767934" lon="14.524334492867077"><ele>59.0</ele><time>2026-04-19T06:47:17.998Z</time></trkpt><trkpt lat="40.83767640507697" lon="14.524451249751788"><ele>59.0</ele><time>2026-04-19T06:47:18.998Z</time></trkpt><trkpt lat="40.83767065985206" lon="14.524610942142493"><ele>59.0</ele><time>2026-04-19T06:47:19.998Z</time></trkpt><trkpt lat="40.83766043154878" lon="14.524840618374801"><ele>59.0</ele><time>2026-04-19T06:47:20.998Z</time></trkpt><trkpt lat="40.83764333782658" lon="14.525076694761294"><ele>59.0</ele><time>2026-04-19T06:47:21.998Z</time></trkpt><trkpt lat="40.83762895536415" lon="14.525319728329299"><ele>59.0</ele><time>2026-04-19T06:47:22.998Z</time></trkpt><trkpt lat="40.83761344513622" lon="14.52559165989304"><ele>58.333333333333336</ele><time>2026-04-19T06:47:24Z</time></trkpt><trkpt lat="40.837598356324854" lon="14.525877828994712"><ele>57.66666666666667</ele><time>2026-04-19T06:47:25Z</time></trkpt><trkpt lat="40.83758503101873" lon="14.526148915516133"><ele>57.0</ele><time>2026-04-19T06:47:26Z</time></trkpt><trkpt lat="40.83757463984618" lon="14.526389985463396"><ele>56.33333333333333</ele><time>2026-04-19T06:47:27Z</time></trkpt><trkpt lat="40.83756474837711" lon="14.526612466645426"><ele>55.666666666666664</ele><time>2026-04-19T06:47:28Z</time></trkpt><trkpt lat="40.83754598633025" lon="14.526840551367462"><ele>55.0</ele><time>2026-04-19T06:47:29Z</time></trkpt><trkpt lat="40.83751848094655" lon="14.527080145374448"><ele>54.666666666666664</ele><time>2026-04-19T06:47:30Z</time></trkpt><trkpt lat="40.837476308637854" lon="14.527317807208355"><ele>54.33333333333333</ele><time>2026-04-19T06:47:31Z</time></trkpt><trkpt lat="40.83741079241023" lon="14.527533839584857"><ele>54.0</ele><time>2026-04-19T06:47:32Z</time></trkpt><trkpt lat="40.837386552532635" lon="14.527757174842252"><ele>54.33333333333333</ele><time>2026-04-19T06:47:33Z</time></trkpt><trkpt lat="40.83734391393835" lon="14.527980166872645"><ele>54.666666666666664</ele><time>2026-04-19T06:47:34Z</time></trkpt><trkpt lat="40.83730373567572" lon="14.528216843059061"><ele>55.0</ele><time>2026-04-19T06:47:35Z</time></trkpt><trkpt lat="40.83724830307184" lon="14.528444015126817"><ele>55.0</ele><time>2026-04-19T06:47:36Z</time></trkpt><trkpt lat="40.83721063603516" lon="14.52864950351419"><ele>55.0</ele><time>2026-04-19T06:47:37Z</time></trkpt><trkpt lat="40.837187205570274" lon="14.528859753668755"><ele>55.0</ele><time>2026-04-19T06:47:38Z</time></trkpt><trkpt lat="40.837151380653516" lon="14.529048330143365"><ele>54.5</ele><time>2026-04-19T06:47:39Z</time></trkpt><trkpt lat="40.83710237506633" lon="14.52922715908686"><ele>54.0</ele><time>2026-04-19T06:47:40Z</time></trkpt><trkpt lat="40.83706850327369" lon="14.529400685389389"><ele>53.5</ele><time>2026-04-19T06:47:41Z</time></trkpt><trkpt lat="40.8370378249941" lon="14.529556776831305"><ele>53.0</ele><time>2026-04-19T06:47:42Z</time></trkpt><trkpt lat="40.83702369359127" lon="14.529707856747006"><ele>52.8</ele><time>2026-04-19T06:47:43Z</time></trkpt><trkpt lat="40.83697993289497" lon="14.529834355421634"><ele>52.599999999999994</ele><time>2026-04-19T06:47:44Z</time></trkpt><trkpt lat="40.83695324558749" lon="14.529963111702143"><ele>52.400000000000006</ele><time>2026-04-19T06:47:45Z</time></trkpt><trkpt lat="40.836940571978054" lon="14.530104220663013"><ele>52.2</ele><time>2026-04-19T06:47:46Z</time></trkpt><trkpt lat="40.83688458321847" lon="14.530231501556976"><ele>52.0</ele><time>2026-04-19T06:47:47Z</time></trkpt><trkpt lat="40.83679665130122" lon="14.530341889523786"><ele>51.0</ele><time>2026-04-19T06:47:48Z</time></trkpt><trkpt lat="40.836674418779374" lon="14.530440795539219"><ele>50.0</ele><time>2026-04-19T06:47:49Z</time></trkpt><trkpt lat="40.83653770069425" lon="14.530511418501906"><ele>49.0</ele><time>2026-04-19T06:47:49.999Z</time></trkpt><trkpt lat="40.83637634722715" lon="14.530532999210436"><ele>49.0</ele><time>2026-04-19T06:47:50.999Z</time></trkpt><trkpt lat="40.836201483017504" lon="14.530577223613578"><ele>49.0</ele><time>2026-04-19T06:47:51.999Z</time></trkpt><trkpt lat="40.836003777544846" lon="14.530628764373496"><ele>49.0</ele><time>2026-04-19T06:47:52.999Z</time></trkpt><trkpt lat="40.835784018706974" lon="14.530684241407148"><ele>48.666666666666664</ele><time>2026-04-19T06:47:53.999Z</time></trkpt><trkpt lat="40.83556028896153" lon="14.53074072089619"><ele>48.33333333333333</ele><time>2026-04-19T06:47:54.999Z</time></trkpt><trkpt lat="40.83535834005547" lon="14.530795432938952"><ele>48.0</ele><time>2026-04-19T06:47:55.999Z</time></trkpt><trkpt lat="40.83518006834408" lon="14.530848054115573"><ele>48.33333333333333</ele><time>2026-04-19T06:47:56.999Z</time></trkpt><trkpt lat="40.83501010571488" lon="14.530894834443588"><ele>48.666666666666664</ele><time>2026-04-19T06:47:57.999Z</time></trkpt><trkpt lat="40.83484925330356" lon="14.530936330309135"><ele>49.0</ele><time>2026-04-19T06:47:58.999Z</time></trkpt><trkpt lat="40.83469486706672" lon="14.53097440426222"><ele>49.0</ele><time>2026-04-19T06:47:59.999Z</time></trkpt><trkpt lat="40.834539474000984" lon="14.531011568481539"><ele>49.0</ele><time>2026-04-19T06:48:00.999Z</time></trkpt><trkpt lat="40.834387514606625" lon="14.53105200155787"><ele>49.0</ele><time>2026-04-19T06:48:01.999Z</time></trkpt><trkpt lat="40.834253356385915" lon="14.531088383671856"><ele>48.6</ele><time>2026-04-19T06:48:02.999Z</time></trkpt><trkpt lat="40.834125350547325" lon="14.531117450359684"><ele>48.2</ele><time>2026-04-19T06:48:03.999Z</time></trkpt><trkpt lat="40.83400597198984" lon="14.5311485345524"><ele>47.800000000000004</ele><time>2026-04-19T06:48:04.999Z</time></trkpt><trkpt lat="40.83389814433236" lon="14.531180017523408"><ele>47.400000000000006</ele><time>2026-04-19T06:48:05.999Z</time></trkpt><trkpt lat="40.83381872542889" lon="14.531215330926017"><ele>47.0</ele><time>2026-04-19T06:48:06.999Z</time></trkpt><trkpt lat="40.83373195888111" lon="14.531270111486608"><ele>46.666666666666664</ele><time>2026-04-19T06:48:07.999Z</time></trkpt><trkpt lat="40.83368475063135" lon="14.531333786294791"><ele>46.33333333333333</ele><time>2026-04-19T06:48:08.999Z</time></trkpt><trkpt lat="40.83365241256304" lon="14.531476650288235"><ele>46.0</ele><time>2026-04-19T06:48:10.999Z</time></trkpt><trkpt lat="40.83365351375162" lon="14.531612279538967"><ele>45.666666666666664</ele><time>2026-04-19T06:48:12.999Z</time></trkpt><trkpt lat="40.83362895607621" lon="14.531698990882125"><ele>45.333333333333336</ele><time>2026-04-19T06:48:16.999Z</time></trkpt><trkpt lat="40.833631193317" lon="14.531782434339828"><ele>45.0</ele><time>2026-04-19T06:48:59.998Z</time></trkpt><trkpt lat="40.83358038784284" lon="14.531724693178653"><ele>45.0</ele><time>2026-04-19T06:49:38Z</time></trkpt><trkpt lat="40.83362145250704" lon="14.531804086792514"><ele>45.0</ele><time>2026-04-19T06:54:05Z</time></trkpt><trkpt lat="40.833659199957474" lon="14.531890862553041"><ele>45.0</ele><time>2026-04-19T06:55:55Z</time></trkpt><trkpt lat="40.833719250251704" lon="14.531862348063024"><ele>45.0</ele><time>2026-04-19T06:55:57Z</time></trkpt><trkpt lat="40.8337280754803" lon="14.531766607876138"><ele>45.0</ele><time>2026-04-19T06:55:58Z</time></trkpt><trkpt lat="40.83371264937877" lon="14.531634447329864"><ele>45.0</ele><time>2026-04-19T06:55:59Z</time></trkpt><trkpt lat="40.83370657816618" lon="14.531509179570037"><ele>45.0</ele><time>2026-04-19T06:56:00Z</time></trkpt><trkpt lat="40.83371615302885" lon="14.531423209607865"><ele>45.0</ele><time>2026-04-19T06:56:01Z</time></trkpt><trkpt lat="40.833740254018" lon="14.531311863028725"><ele>45.0</ele><time>2026-04-19T06:56:03Z</time></trkpt><trkpt lat="40.83381992739975" lon="14.531218902474588"><ele>45.0</ele><time>2026-04-19T06:56:05Z</time></trkpt><trkpt lat="40.833913116833024" lon="14.531193913742282"><ele>45.0</ele><time>2026-04-19T06:56:06Z</time></trkpt><trkpt lat="40.83404202246905" lon="14.531168479593408"><ele>45.666666666666664</ele><time>2026-04-19T06:56:07Z</time></trkpt><trkpt lat="40.83421567424375" lon="14.53111680013424"><ele>46.33333333333333</ele><time>2026-04-19T06:56:08Z</time></trkpt><trkpt lat="40.83437232603397" lon="14.531075287948275"><ele>47.0</ele><time>2026-04-19T06:56:09Z</time></trkpt><trkpt lat="40.83453506743209" lon="14.531030402527929"><ele>47.5</ele><time>2026-04-19T06:56:10Z</time></trkpt><trkpt lat="40.83468234577139" lon="14.530992882638131"><ele>48.0</ele><time>2026-04-19T06:56:11Z</time></trkpt><trkpt lat="40.83480415034484" lon="14.530961408260833"><ele>48.5</ele><time>2026-04-19T06:56:12Z</time></trkpt><trkpt lat="40.83491352780246" lon="14.530933916048664"><ele>49.0</ele><time>2026-04-19T06:56:13Z</time></trkpt><trkpt lat="40.83501013763295" lon="14.530908625119437"><ele>49.0</ele><time>2026-04-19T06:56:14Z</time></trkpt><trkpt lat="40.83509045507855" lon="14.530884022093325"><ele>49.0</ele><time>2026-04-19T06:56:15Z</time></trkpt><trkpt lat="40.83520066259912" lon="14.530867103399313"><ele>49.0</ele><time>2026-04-19T06:56:17Z</time></trkpt><trkpt lat="40.83523910602771" lon="14.531080163424457"><ele>49.0</ele><time>2026-04-19T06:56:20Z</time></trkpt><trkpt lat="40.83522533793965" lon="14.531238917660195"><ele>48.25</ele><time>2026-04-19T06:56:21Z</time></trkpt><trkpt lat="40.83521605649708" lon="14.531425643992778"><ele>47.5</ele><time>2026-04-19T06:56:22Z</time></trkpt><trkpt lat="40.83520878789773" lon="14.531619304578824"><ele>46.75</ele><time>2026-04-19T06:56:23Z</time></trkpt><trkpt lat="40.83519862261533" lon="14.531821828023094"><ele>46.0</ele><time>2026-04-19T06:56:24Z</time></trkpt><trkpt lat="40.835187316731016" lon="14.532057052422532"><ele>46.0</ele><time>2026-04-19T06:56:25Z</time></trkpt><trkpt lat="40.835180849868294" lon="14.53225067941089"><ele>46.0</ele><time>2026-04-19T06:56:26Z</time></trkpt><trkpt lat="40.83517640998543" lon="14.532408946143825"><ele>46.0</ele><time>2026-04-19T06:56:27Z</time></trkpt><trkpt lat="40.83517090131917" lon="14.532552774553803"><ele>46.0</ele><time>2026-04-19T06:56:28Z</time></trkpt><trkpt lat="40.83516572183903" lon="14.532678201804837"><ele>46.0</ele><time>2026-04-19T06:56:29Z</time></trkpt><trkpt lat="40.83516119904886" lon="14.532781114868031"><ele>46.0</ele><time>2026-04-19T06:56:30Z</time></trkpt><trkpt lat="40.835159978481514" lon="14.53287839071904"><ele>46.0</ele><time>2026-04-19T06:56:31Z</time></trkpt><trkpt lat="40.835159238016956" lon="14.532966739156745"><ele>46.0</ele><time>2026-04-19T06:56:32Z</time></trkpt><trkpt lat="40.835147323729984" lon="14.533067120577156"><ele>46.0</ele><time>2026-04-19T06:56:34Z</time></trkpt><trkpt lat="40.83526364132209" lon="14.533153878835293"><ele>46.0</ele><time>2026-04-19T06:56:36.999Z</time></trkpt><trkpt lat="40.83534231595531" lon="14.533178299155173"><ele>45.8</ele><time>2026-04-19T06:56:37.999Z</time></trkpt><trkpt lat="40.835428421582066" lon="14.53320079677693"><ele>45.599999999999994</ele><time>2026-04-19T06:56:38.999Z</time></trkpt><trkpt lat="40.83552534366503" lon="14.533218896318319"><ele>45.4</ele><time>2026-04-19T06:56:39.999Z</time></trkpt><trkpt lat="40.8356450126884" lon="14.53327051813004"><ele>45.2</ele><time>2026-04-19T06:56:40.999Z</time></trkpt><trkpt lat="40.835769039695414" lon="14.533283747662805"><ele>45.0</ele><time>2026-04-19T06:56:41.999Z</time></trkpt><trkpt lat="40.83588842487679" lon="14.53332043209628"><ele>44.75</ele><time>2026-04-19T06:56:42.999Z</time></trkpt><trkpt lat="40.83603720168811" lon="14.533363270113908"><ele>44.5</ele><time>2026-04-19T06:56:43.999Z</time></trkpt><trkpt lat="40.83618070404349" lon="14.53339997884459"><ele>44.25</ele><time>2026-04-19T06:56:44.999Z</time></trkpt><trkpt lat="40.83629162946868" lon="14.533455251427633"><ele>44.0</ele><time>2026-04-19T06:56:45.999Z</time></trkpt><trkpt lat="40.8364038781564" lon="14.53348931289409"><ele>44.0</ele><time>2026-04-19T06:56:46.999Z</time></trkpt><trkpt lat="40.83652747228335" lon="14.533526817263699"><ele>44.0</ele><time>2026-04-19T06:56:47.999Z</time></trkpt><trkpt lat="40.836662355422554" lon="14.533547367582077"><ele>44.0</ele><time>2026-04-19T06:56:48.999Z</time></trkpt><trkpt lat="40.83678911394688" lon="14.533618567345822"><ele>44.0</ele><time>2026-04-19T06:56:49.999Z</time></trkpt><trkpt lat="40.83690410641951" lon="14.533661470630705"><ele>44.0</ele><time>2026-04-19T06:56:50.999Z</time></trkpt><trkpt lat="40.83702329356974" lon="14.533690444422948"><ele>44.0</ele><time>2026-04-19T06:56:51.999Z</time></trkpt><trkpt lat="40.83713316112314" lon="14.533725467944064"><ele>44.0</ele><time>2026-04-19T06:56:52.999Z</time></trkpt><trkpt lat="40.837229785986274" lon="14.533723414701575"><ele>44.0</ele><time>2026-04-19T06:56:53.999Z</time></trkpt><trkpt lat="40.83733043197742" lon="14.533732420317778"><ele>44.0</ele><time>2026-04-19T06:56:54.999Z</time></trkpt><trkpt lat="40.83743890055417" lon="14.533753198258722"><ele>44.0</ele><time>2026-04-19T06:56:55.999Z</time></trkpt><trkpt lat="40.83755360617406" lon="14.533784125677302"><ele>44.0</ele><time>2026-04-19T06:56:56.999Z</time></trkpt><trkpt lat="40.83766112927418" lon="14.53379524376983"><ele>44.0</ele><time>2026-04-19T06:56:57.999Z</time></trkpt><trkpt lat="40.83778217488665" lon="14.5338382369499"><ele>44.0</ele><time>2026-04-19T06:56:58.999Z</time></trkpt><trkpt lat="40.837893091211484" lon="14.533870005454698"><ele>44.0</ele><time>2026-04-19T06:56:59.999Z</time></trkpt><trkpt lat="40.8380030674698" lon="14.533882406733397"><ele>44.0</ele><time>2026-04-19T06:57:00.999Z</time></trkpt><trkpt lat="40.83811446489662" lon="14.533919340759459"><ele>44.0</ele><time>2026-04-19T06:57:01.999Z</time></trkpt><trkpt lat="40.838228817587606" lon="14.533970720880577"><ele>44.0</ele><time>2026-04-19T06:57:02.999Z</time></trkpt><trkpt lat="40.83833780471474" lon="14.534005370018699"><ele>44.0</ele><time>2026-04-19T06:57:03.999Z</time></trkpt><trkpt lat="40.83845068644125" lon="14.534041257285349"><ele>44.0</ele><time>2026-04-19T06:57:04.999Z</time></trkpt><trkpt lat="40.8385523175595" lon="14.53407123836734"><ele>44.0</ele><time>2026-04-19T06:57:05.999Z</time></trkpt><trkpt lat="40.838646462374314" lon="14.534096820836531"><ele>44.0</ele><time>2026-04-19T06:57:06.999Z</time></trkpt><trkpt lat="40.838730905222775" lon="14.534119499778877"><ele>44.0</ele><time>2026-04-19T06:57:07.999Z</time></trkpt><trkpt lat="40.838815491725015" lon="14.534142910216488"><ele>44.400000000000006</ele><time>2026-04-19T06:57:08.999Z</time></trkpt><trkpt lat="40.838916714634344" lon="14.534171100966304"><ele>44.8</ele><time>2026-04-19T06:57:09.999Z</time></trkpt><trkpt lat="40.83902311205236" lon="14.534182911505471"><ele>45.2</ele><time>2026-04-19T06:57:10.999Z</time></trkpt><trkpt lat="40.839110275942105" lon="14.5342203802838"><ele>45.599999999999994</ele><time>2026-04-19T06:57:11.999Z</time></trkpt><trkpt lat="40.83919947427826" lon="14.534241910403255"><ele>46.0</ele><time>2026-04-19T06:57:12.999Z</time></trkpt><trkpt lat="40.839305903214644" lon="14.534268338001269"><ele>46.25</ele><time>2026-04-19T06:57:13.999Z</time></trkpt><trkpt lat="40.83941448803263" lon="14.534309510353687"><ele>46.5</ele><time>2026-04-19T06:57:14.999Z</time></trkpt><trkpt lat="40.83952488980533" lon="14.534348114794074"><ele>46.75</ele><time>2026-04-19T06:57:15.999Z</time></trkpt><trkpt lat="40.83963761294126" lon="14.53438706494393"><ele>47.0</ele><time>2026-04-19T06:57:16.999Z</time></trkpt><trkpt lat="40.83975124042717" lon="14.534431307967036"><ele>47.0</ele><time>2026-04-19T06:57:17.999Z</time></trkpt><trkpt lat="40.83989762888291" lon="14.534489597758064"><ele>47.0</ele><time>2026-04-19T06:57:18.999Z</time></trkpt><trkpt lat="40.84005574014993" lon="14.534554222003194"><ele>47.0</ele><time>2026-04-19T06:57:19.999Z</time></trkpt><trkpt lat="40.84021322455559" lon="14.534633651302297"><ele>46.75</ele><time>2026-04-19T06:57:20.999Z</time></trkpt><trkpt lat="40.84033648946036" lon="14.53470988322987"><ele>46.5</ele><time>2026-04-19T06:57:21.999Z</time></trkpt><trkpt lat="40.840453168685315" lon="14.534794357278033"><ele>46.25</ele><time>2026-04-19T06:57:22.999Z</time></trkpt><trkpt lat="40.84058011718673" lon="14.534884670048243"><ele>46.0</ele><time>2026-04-19T06:57:23.999Z</time></trkpt><trkpt lat="40.840709266003024" lon="14.534977182999114"><ele>46.0</ele><time>2026-04-19T06:57:24.999Z</time></trkpt><trkpt lat="40.840841051189926" lon="14.535075494124783"><ele>46.0</ele><time>2026-04-19T06:57:25.999Z</time></trkpt><trkpt lat="40.84098197357436" lon="14.535191709418381"><ele>46.0</ele><time>2026-04-19T06:57:26.999Z</time></trkpt><trkpt lat="40.84114085367861" lon="14.535325452678608"><ele>46.333333333333336</ele><time>2026-04-19T06:57:27.999Z</time></trkpt><trkpt lat="40.8412890763437" lon="14.535445335303768"><ele>46.666666666666664</ele><time>2026-04-19T06:57:28.999Z</time></trkpt><trkpt lat="40.84141022633704" lon="14.535549341658932"><ele>47.0</ele><time>2026-04-19T06:57:29.999Z</time></trkpt><trkpt lat="40.84152663813802" lon="14.535643643787985"><ele>47.0</ele><time>2026-04-19T06:57:30.999Z</time></trkpt><trkpt lat="40.84165558853023" lon="14.535727553551162"><ele>47.0</ele><time>2026-04-19T06:57:31.999Z</time></trkpt><trkpt lat="40.841805857924044" lon="14.535816754130268"><ele>47.0</ele><time>2026-04-19T06:57:32.999Z</time></trkpt><trkpt lat="40.84196198177593" lon="14.535918123572037"><ele>48.0</ele><time>2026-04-19T06:57:33.998Z</time></trkpt><trkpt lat="40.842085459078916" lon="14.536017295128131"><ele>49.0</ele><time>2026-04-19T06:57:34.998Z</time></trkpt><trkpt lat="40.84219597865303" lon="14.536127470839897"><ele>50.0</ele><time>2026-04-19T06:57:35.998Z</time></trkpt><trkpt lat="40.842293648918314" lon="14.536239296389788"><ele>51.0</ele><time>2026-04-19T06:57:36.998Z</time></trkpt><trkpt lat="40.84237604683406" lon="14.536340545803874"><ele>51.0</ele><time>2026-04-19T06:57:37.998Z</time></trkpt><trkpt lat="40.84245530947949" lon="14.536431368944415"><ele>51.0</ele><time>2026-04-19T06:57:38.998Z</time></trkpt><trkpt lat="40.84252749618347" lon="14.536499237215434"><ele>51.0</ele><time>2026-04-19T06:57:39.998Z</time></trkpt><trkpt lat="40.84258776382085" lon="14.536550022640055"><ele>51.0</ele><time>2026-04-19T06:57:40.998Z</time></trkpt><trkpt lat="40.84264169929305" lon="14.536689910584252"><ele>51.0</ele><time>2026-04-19T06:57:42.998Z</time></trkpt><trkpt lat="40.84257687046285" lon="14.536843507004333"><ele>51.0</ele><time>2026-04-19T06:57:43.998Z</time></trkpt><trkpt lat="40.84248207387476" lon="14.536954400760939"><ele>51.0</ele><time>2026-04-19T06:57:44.998Z</time></trkpt><trkpt lat="40.842382047016756" lon="14.53709856512802"><ele>51.0</ele><time>2026-04-19T06:57:45.998Z</time></trkpt><trkpt lat="40.84228419617105" lon="14.537296278747858"><ele>49.0</ele><time>2026-04-19T06:57:46.998Z</time></trkpt><trkpt lat="40.842195160078205" lon="14.537496998679819"><ele>47.0</ele><time>2026-04-19T06:57:47.998Z</time></trkpt><trkpt lat="40.84212088107073" lon="14.537692441868108"><ele>45.0</ele><time>2026-04-19T06:57:48.998Z</time></trkpt><trkpt lat="40.84206646372777" lon="14.537867917409017"><ele>45.2</ele><time>2026-04-19T06:57:49.998Z</time></trkpt><trkpt lat="40.84202271204272" lon="14.538032236239866"><ele>45.4</ele><time>2026-04-19T06:57:50.998Z</time></trkpt><trkpt lat="40.841989121663765" lon="14.53817550938125"><ele>45.599999999999994</ele><time>2026-04-19T06:57:51.998Z</time></trkpt><trkpt lat="40.84196637896311" lon="14.538293676356965"><ele>45.8</ele><time>2026-04-19T06:57:53Z</time></trkpt><trkpt lat="40.841964578579834" lon="14.538392715010445"><ele>46.0</ele><time>2026-04-19T06:57:54Z</time></trkpt><trkpt lat="40.8419913569544" lon="14.538470392033041"><ele>46.0</ele><time>2026-04-19T06:57:55Z</time></trkpt><trkpt lat="40.8420607722766" lon="14.538552293147497"><ele>46.0</ele><time>2026-04-19T06:57:57Z</time></trkpt><trkpt lat="40.842058513036825" lon="14.538731582410067"><ele>46.0</ele><time>2026-04-19T06:57:59Z</time></trkpt><trkpt lat="40.84203090115453" lon="14.538852022005923"><ele>46.0</ele><time>2026-04-19T06:58:00Z</time></trkpt><trkpt lat="40.84200930893272" lon="14.538990599995165"><ele>46.0</ele><time>2026-04-19T06:58:01Z</time></trkpt><trkpt lat="40.84198616742901" lon="14.539161598261085"><ele>45.66666666666667</ele><time>2026-04-19T06:58:02Z</time></trkpt><trkpt lat="40.84195538483134" lon="14.539368721762202"><ele>45.333333333333336</ele><time>2026-04-19T06:58:03Z</time></trkpt><trkpt lat="40.84192225397335" lon="14.539610818704723"><ele>45.0</ele><time>2026-04-19T06:58:04Z</time></trkpt><trkpt lat="40.841885076922544" lon="14.539857902861955"><ele>44.666666666666664</ele><time>2026-04-19T06:58:05Z</time></trkpt><trkpt lat="40.8418452775701" lon="14.540103888001026"><ele>44.33333333333333</ele><time>2026-04-19T06:58:06Z</time></trkpt><trkpt lat="40.841805009534426" lon="14.54036081729085"><ele>44.0</ele><time>2026-04-19T06:58:07Z</time></trkpt><trkpt lat="40.8417571042833" lon="14.54063435969481"><ele>43.0</ele><time>2026-04-19T06:58:08Z</time></trkpt><trkpt lat="40.84170799558115" lon="14.540907002593903"><ele>42.0</ele><time>2026-04-19T06:58:09Z</time></trkpt><trkpt lat="40.84165737235899" lon="14.541176728520327"><ele>41.0</ele><time>2026-04-19T06:58:10Z</time></trkpt><trkpt lat="40.84160298409362" lon="14.5414580627507"><ele>40.666666666666664</ele><time>2026-04-19T06:58:11Z</time></trkpt><trkpt lat="40.841546279851045" lon="14.541721284884563"><ele>40.333333333333336</ele><time>2026-04-19T06:58:12Z</time></trkpt><trkpt lat="40.841488696411844" lon="14.54195733778815"><ele>40.0</ele><time>2026-04-19T06:58:13Z</time></trkpt><trkpt lat="40.841430034087544" lon="14.54218486297591"><ele>39.66666666666667</ele><time>2026-04-19T06:58:14Z</time></trkpt><trkpt lat="40.84137557219665" lon="14.542412916925421"><ele>39.333333333333336</ele><time>2026-04-19T06:58:15Z</time></trkpt><trkpt lat="40.84132768496326" lon="14.542623774083474"><ele>39.0</ele><time>2026-04-19T06:58:16Z</time></trkpt><trkpt lat="40.84128214244526" lon="14.542807859797083"><ele>39.0</ele><time>2026-04-19T06:58:17Z</time></trkpt><trkpt lat="40.841242536470105" lon="14.542967114339067"><ele>39.0</ele><time>2026-04-19T06:58:18Z</time></trkpt><trkpt lat="40.84120974523381" lon="14.543099828607959"><ele>39.0</ele><time>2026-04-19T06:58:19Z</time></trkpt><trkpt lat="40.841182838319384" lon="14.543209766074774"><ele>39.0</ele><time>2026-04-19T06:58:20Z</time></trkpt><trkpt lat="40.841175712526756" lon="14.543298552099554"><ele>39.0</ele><time>2026-04-19T06:58:21Z</time></trkpt><trkpt lat="40.84120386086446" lon="14.543375265984945"><ele>39.0</ele><time>2026-04-19T06:58:22Z</time></trkpt><trkpt lat="40.84126406568678" lon="14.543446800627098"><ele>39.0</ele><time>2026-04-19T06:58:23Z</time></trkpt><trkpt lat="40.841355760720504" lon="14.543512919030873"><ele>39.0</ele><time>2026-04-19T06:58:24Z</time></trkpt><trkpt lat="40.84146381542804" lon="14.543577653908402"><ele>39.0</ele><time>2026-04-19T06:58:25Z</time></trkpt><trkpt lat="40.84158060377486" lon="14.543650594840244"><ele>39.0</ele><time>2026-04-19T06:58:26Z</time></trkpt><trkpt lat="40.84171316574208" lon="14.54374078723441"><ele>40.0</ele><time>2026-04-19T06:58:27Z</time></trkpt><trkpt lat="40.841852649028205" lon="14.543837676379226"><ele>41.0</ele><time>2026-04-19T06:58:28Z</time></trkpt><trkpt lat="40.84200728826474" lon="14.543946096989018"><ele>42.0</ele><time>2026-04-19T06:58:29Z</time></trkpt><trkpt lat="40.842171619100675" lon="14.54405503770512"><ele>42.0</ele><time>2026-04-19T06:58:30Z</time></trkpt><trkpt lat="40.842339064359784" lon="14.544164346139286"><ele>42.0</ele><time>2026-04-19T06:58:31Z</time></trkpt><trkpt lat="40.84248860270545" lon="14.544282248034284"><ele>42.0</ele><time>2026-04-19T06:58:32Z</time></trkpt><trkpt lat="40.842626554878386" lon="14.544428619107238"><ele>41.666666666666664</ele><time>2026-04-19T06:58:33Z</time></trkpt><trkpt lat="40.84276107450515" lon="14.544595225413993"><ele>41.33333333333333</ele><time>2026-04-19T06:58:34Z</time></trkpt><trkpt lat="40.84289451669727" lon="14.544778010344546"><ele>41.0</ele><time>2026-04-19T06:58:35Z</time></trkpt><trkpt lat="40.84303039794931" lon="14.544979428398246"><ele>41.0</ele><time>2026-04-19T06:58:36Z</time></trkpt><trkpt lat="40.84316376271752" lon="14.54517129178556"><ele>41.0</ele><time>2026-04-19T06:58:37Z</time></trkpt><trkpt lat="40.84328149690723" lon="14.54534543230675"><ele>41.0</ele><time>2026-04-19T06:58:38Z</time></trkpt><trkpt lat="40.84338722411184" lon="14.545506817246943"><ele>41.25</ele><time>2026-04-19T06:58:39Z</time></trkpt><trkpt lat="40.84349854315975" lon="14.545651114401126"><ele>41.5</ele><time>2026-04-19T06:58:40Z</time></trkpt><trkpt lat="40.84360206845048" lon="14.545778602793547"><ele>41.75</ele><time>2026-04-19T06:58:41Z</time></trkpt><trkpt lat="40.843693902990935" lon="14.545883185765566"><ele>42.0</ele><time>2026-04-19T06:58:42Z</time></trkpt><trkpt lat="40.84377785326271" lon="14.545960384971275"><ele>42.0</ele><time>2026-04-19T06:58:43Z</time></trkpt><trkpt lat="40.84385570838121" lon="14.546020167487983"><ele>42.0</ele><time>2026-04-19T06:58:43.999Z</time></trkpt><trkpt lat="40.84393672488756" lon="14.546054251732688"><ele>42.0</ele><time>2026-04-19T06:58:44.999Z</time></trkpt><trkpt lat="40.844033639456555" lon="14.5460689039575"><ele>42.0</ele><time>2026-04-19T06:58:45.999Z</time></trkpt><trkpt lat="40.84413810267967" lon="14.546115383797837"><ele>42.0</ele><time>2026-04-19T06:58:46.999Z</time></trkpt><trkpt lat="40.84425444043729" lon="14.546180448771334"><ele>42.0</ele><time>2026-04-19T06:58:47.999Z</time></trkpt><trkpt lat="40.844378741030376" lon="14.546244262655234"><ele>42.0</ele><time>2026-04-19T06:58:48.999Z</time></trkpt><trkpt lat="40.84448126614245" lon="14.546319240079477"><ele>42.0</ele><time>2026-04-19T06:58:49.999Z</time></trkpt><trkpt lat="40.8445989383009" lon="14.546395939244656"><ele>42.0</ele><time>2026-04-19T06:58:50.999Z</time></trkpt><trkpt lat="40.8447111484022" lon="14.546470275749158"><ele>42.0</ele><time>2026-04-19T06:58:51.999Z</time></trkpt><trkpt lat="40.844797649425416" lon="14.546539661773563"><ele>42.0</ele><time>2026-04-19T06:58:52.999Z</time></trkpt><trkpt lat="40.84487315001053" lon="14.54662443640214"><ele>42.0</ele><time>2026-04-19T06:58:53.999Z</time></trkpt><trkpt lat="40.84492694750283" lon="14.546756902183452"><ele>42.0</ele><time>2026-04-19T06:58:54.999Z</time></trkpt><trkpt lat="40.84499086277432" lon="14.546863060124"><ele>42.0</ele><time>2026-04-19T06:58:55.999Z</time></trkpt><trkpt lat="40.845066003464545" lon="14.546976261667222"><ele>41.8</ele><time>2026-04-19T06:58:56.999Z</time></trkpt><trkpt lat="40.84515622555155" lon="14.547058975388586"><ele>41.6</ele><time>2026-04-19T06:58:57.999Z</time></trkpt><trkpt lat="40.845220420359446" lon="14.547115685892651"><ele>41.4</ele><time>2026-04-19T06:58:58.999Z</time></trkpt><trkpt lat="40.84532050070065" lon="14.547138069472771"><ele>41.199999999999996</ele><time>2026-04-19T06:58:59.999Z</time></trkpt><trkpt lat="40.8454269969896" lon="14.547172742267676"><ele>41.0</ele><time>2026-04-19T06:59:00.999Z</time></trkpt><trkpt lat="40.84555107435407" lon="14.547229351571414"><ele>41.0</ele><time>2026-04-19T06:59:01.999Z</time></trkpt><trkpt lat="40.845660591430544" lon="14.547319660951592"><ele>41.0</ele><time>2026-04-19T06:59:02.999Z</time></trkpt><trkpt lat="40.84573802397014" lon="14.547402735234739"><ele>41.0</ele><time>2026-04-19T06:59:03.999Z</time></trkpt><trkpt lat="40.8458525765193" lon="14.547491252931199"><ele>41.0</ele><time>2026-04-19T06:59:04.999Z</time></trkpt><trkpt lat="40.845947621627985" lon="14.547573701061728"><ele>42.0</ele><time>2026-04-19T06:59:05.999Z</time></trkpt><trkpt lat="40.84605311689334" lon="14.547627229533889"><ele>43.0</ele><time>2026-04-19T06:59:06.999Z</time></trkpt><trkpt lat="40.84614736402037" lon="14.547699199147235"><ele>44.0</ele><time>2026-04-19T06:59:07.999Z</time></trkpt><trkpt lat="40.8462501969947" lon="14.547768524342205"><ele>45.0</ele><time>2026-04-19T06:59:08.999Z</time></trkpt><trkpt lat="40.84637524907673" lon="14.54784916708584"><ele>44.5</ele><time>2026-04-19T06:59:09.999Z</time></trkpt><trkpt lat="40.84649190939952" lon="14.547948588297023"><ele>44.0</ele><time>2026-04-19T06:59:10.999Z</time></trkpt><trkpt lat="40.84660934310632" lon="14.547989924879085"><ele>43.5</ele><time>2026-04-19T06:59:11.999Z</time></trkpt><trkpt lat="40.84672071968275" lon="14.54805614303598"><ele>43.0</ele><time>2026-04-19T06:59:12.999Z</time></trkpt><trkpt lat="40.84684727017433" lon="14.548130015268239"><ele>43.0</ele><time>2026-04-19T06:59:13.999Z</time></trkpt><trkpt lat="40.8469746412426" lon="14.548204244823303"><ele>43.0</ele><time>2026-04-19T06:59:14.999Z</time></trkpt><trkpt lat="40.847093494335034" lon="14.548270723289756"><ele>43.0</ele><time>2026-04-19T06:59:15.999Z</time></trkpt><trkpt lat="40.84721103298854" lon="14.548364620937475"><ele>43.0</ele><time>2026-04-19T06:59:16.999Z</time></trkpt><trkpt lat="40.84734084840551" lon="14.548443980586057"><ele>43.0</ele><time>2026-04-19T06:59:17.999Z</time></trkpt><trkpt lat="40.84747229622912" lon="14.548520049995593"><ele>43.0</ele><time>2026-04-19T06:59:18.999Z</time></trkpt><trkpt lat="40.84760320299889" lon="14.54859490001635"><ele>43.0</ele><time>2026-04-19T06:59:19.999Z</time></trkpt><trkpt lat="40.84773327389315" lon="14.548666678433001"><ele>43.0</ele><time>2026-04-19T06:59:20.999Z</time></trkpt><trkpt lat="40.84786428595018" lon="14.54873712014252"><ele>43.25</ele><time>2026-04-19T06:59:21.999Z</time></trkpt><trkpt lat="40.84800144570255" lon="14.548810867280146"><ele>43.5</ele><time>2026-04-19T06:59:22.999Z</time></trkpt><trkpt lat="40.84813769232567" lon="14.548887239571313"><ele>43.75</ele><time>2026-04-19T06:59:23.999Z</time></trkpt><trkpt lat="40.84826628698662" lon="14.548967202478774"><ele>44.0</ele><time>2026-04-19T06:59:24.999Z</time></trkpt><trkpt lat="40.84839513941946" lon="14.549051805781648"><ele>44.25</ele><time>2026-04-19T06:59:25.999Z</time></trkpt><trkpt lat="40.848520284506606" lon="14.549137364756982"><ele>44.5</ele><time>2026-04-19T06:59:26.999Z</time></trkpt><trkpt lat="40.84863737544306" lon="14.549229789405185"><ele>44.75</ele><time>2026-04-19T06:59:27.999Z</time></trkpt><trkpt lat="40.84876665074155" lon="14.549301207241811"><ele>45.0</ele><time>2026-04-19T06:59:28.999Z</time></trkpt><trkpt lat="40.84887907177338" lon="14.549401248151453"><ele>45.0</ele><time>2026-04-19T06:59:29.999Z</time></trkpt><trkpt lat="40.84896410317411" lon="14.549512779169016"><ele>45.0</ele><time>2026-04-19T06:59:30.999Z</time></trkpt><trkpt lat="40.849063372926146" lon="14.549595683502554"><ele>45.0</ele><time>2026-04-19T06:59:31.999Z</time></trkpt><trkpt lat="40.84916921541561" lon="14.549684305697483"><ele>45.0</ele><time>2026-04-19T06:59:32.999Z</time></trkpt><trkpt lat="40.84927884026513" lon="14.549779326696568"><ele>45.6</ele><time>2026-04-19T06:59:33.999Z</time></trkpt><trkpt lat="40.8494126083597" lon="14.549834529154376"><ele>46.2</ele><time>2026-04-19T06:59:34.999Z</time></trkpt><trkpt lat="40.84952568073089" lon="14.54989088376051"><ele>46.8</ele><time>2026-04-19T06:59:35.999Z</time></trkpt><trkpt lat="40.84961162397641" lon="14.549951425805917"><ele>47.4</ele><time>2026-04-19T06:59:36.999Z</time></trkpt><trkpt lat="40.84967141568801" lon="14.550021860495544"><ele>48.0</ele><time>2026-04-19T06:59:37.999Z</time></trkpt><trkpt lat="40.84972277713774" lon="14.55012782715193"><ele>48.0</ele><time>2026-04-19T06:59:38.999Z</time></trkpt><trkpt lat="40.849774190864245" lon="14.550236467838722"><ele>48.0</ele><time>2026-04-19T06:59:39.999Z</time></trkpt><trkpt lat="40.84986360954688" lon="14.550314745673443"><ele>48.0</ele><time>2026-04-19T06:59:40.999Z</time></trkpt><trkpt lat="40.84998436049128" lon="14.550394609670363"><ele>48.0</ele><time>2026-04-19T06:59:41.999Z</time></trkpt><trkpt lat="40.85012657602569" lon="14.550499957633011"><ele>49.66666666666667</ele><time>2026-04-19T06:59:42.999Z</time></trkpt><trkpt lat="40.8502820354899" lon="14.550621574748744"><ele>51.333333333333336</ele><time>2026-04-19T06:59:43.998Z</time></trkpt><trkpt lat="40.850431475155865" lon="14.550765876789663"><ele>53.0</ele><time>2026-04-19T06:59:44.998Z</time></trkpt><trkpt lat="40.850562958419914" lon="14.550870882220279"><ele>53.0</ele><time>2026-04-19T06:59:45.998Z</time></trkpt><trkpt lat="40.85066636947078" lon="14.550986677113986"><ele>53.0</ele><time>2026-04-19T06:59:46.998Z</time></trkpt><trkpt lat="40.850745955164165" lon="14.551125062241294"><ele>53.0</ele><time>2026-04-19T06:59:47.998Z</time></trkpt><trkpt lat="40.850833190599786" lon="14.551256117811803"><ele>53.0</ele><time>2026-04-19T06:59:48.998Z</time></trkpt><trkpt lat="40.85092429518009" lon="14.551364619285446"><ele>53.66666666666667</ele><time>2026-04-19T06:59:49.998Z</time></trkpt><trkpt lat="40.85099446774385" lon="14.55151938494257"><ele>54.33333333333333</ele><time>2026-04-19T06:59:50.998Z</time></trkpt><trkpt lat="40.85108070582469" lon="14.551691386095285"><ele>55.0</ele><time>2026-04-19T06:59:51.998Z</time></trkpt><trkpt lat="40.85117294191541" lon="14.55189108507536"><ele>55.75</ele><time>2026-04-19T06:59:52.998Z</time></trkpt><trkpt lat="40.851247846203385" lon="14.552073807980355"><ele>56.5</ele><time>2026-04-19T06:59:53.998Z</time></trkpt><trkpt lat="40.851305049118025" lon="14.552221786300567"><ele>57.25</ele><time>2026-04-19T06:59:54.998Z</time></trkpt><trkpt lat="40.851348574817294" lon="14.552341510324945"><ele>58.0</ele><time>2026-04-19T06:59:55.998Z</time></trkpt><trkpt lat="40.85139873130257" lon="14.552442771035194"><ele>58.0</ele><time>2026-04-19T06:59:56.998Z</time></trkpt><trkpt lat="40.85144680564924" lon="14.552590571043435"><ele>58.0</ele><time>2026-04-19T06:59:57.998Z</time></trkpt><trkpt lat="40.851509244068254" lon="14.552770411783937"><ele>58.0</ele><time>2026-04-19T06:59:59Z</time></trkpt><trkpt lat="40.85156523847655" lon="14.552937220989373"><ele>58.0</ele><time>2026-04-19T07:00:00Z</time></trkpt><trkpt lat="40.85161320559672" lon="14.55307490000528"><ele>57.99999999999999</ele><time>2026-04-19T07:00:01Z</time></trkpt><trkpt lat="40.85165389969429" lon="14.553190512614506"><ele>58.0</ele><time>2026-04-19T07:00:02Z</time></trkpt><trkpt lat="40.851693113557396" lon="14.553287277806442"><ele>58.0</ele><time>2026-04-19T07:00:03Z</time></trkpt><trkpt lat="40.851718584648516" lon="14.553365222887932"><ele>58.0</ele><time>2026-04-19T07:00:04Z</time></trkpt><trkpt lat="40.85174497444691" lon="14.553455242812518"><ele>57.99999999999999</ele><time>2026-04-19T07:00:07Z</time></trkpt><trkpt lat="40.85177962142204" lon="14.553541546308615"><ele>58.0</ele><time>2026-04-19T07:00:08Z</time></trkpt><trkpt lat="40.85183627877918" lon="14.553652127494626"><ele>58.25</ele><time>2026-04-19T07:00:09Z</time></trkpt><trkpt lat="40.851890087692965" lon="14.553746617383498"><ele>58.5</ele><time>2026-04-19T07:00:10Z</time></trkpt><trkpt lat="40.851964463656614" lon="14.55387890914915"><ele>58.75</ele><time>2026-04-19T07:00:11Z</time></trkpt><trkpt lat="40.85205391792298" lon="14.554044233251986"><ele>59.0</ele><time>2026-04-19T07:00:12Z</time></trkpt><trkpt lat="40.85210350499654" lon="14.55421622637122"><ele>59.0</ele><time>2026-04-19T07:00:13Z</time></trkpt><trkpt lat="40.85212924640811" lon="14.554420845702321"><ele>59.0</ele><time>2026-04-19T07:00:14Z</time></trkpt><trkpt lat="40.85213140359919" lon="14.55464544839424"><ele>59.0</ele><time>2026-04-19T07:00:15Z</time></trkpt><trkpt lat="40.852132879609464" lon="14.554884659340837"><ele>60.66666666666667</ele><time>2026-04-19T07:00:16Z</time></trkpt><trkpt lat="40.85214041686913" lon="14.5551534890898"><ele>62.33333333333333</ele><time>2026-04-19T07:00:17Z</time></trkpt><trkpt lat="40.85214076662379" lon="14.555395215566122"><ele>64.0</ele><time>2026-04-19T07:00:18Z</time></trkpt><trkpt lat="40.85212695637623" lon="14.555638530040998"><ele>65.33333333333333</ele><time>2026-04-19T07:00:19Z</time></trkpt><trkpt lat="40.85212069333114" lon="14.55590849729234"><ele>66.66666666666667</ele><time>2026-04-19T07:00:20Z</time></trkpt><trkpt lat="40.8520978935479" lon="14.556146600018641"><ele>68.0</ele><time>2026-04-19T07:00:21Z</time></trkpt><trkpt lat="40.85206056190169" lon="14.55634347395144"><ele>68.83333333333334</ele><time>2026-04-19T07:00:22Z</time></trkpt><trkpt lat="40.85204410285658" lon="14.556505385372615"><ele>69.66666666666667</ele><time>2026-04-19T07:00:23Z</time></trkpt><trkpt lat="40.85202854391728" lon="14.556632171063017"><ele>70.5</ele><time>2026-04-19T07:00:24Z</time></trkpt><trkpt lat="40.852029045502206" lon="14.556717115550102"><ele>71.33333333333333</ele><time>2026-04-19T07:00:25Z</time></trkpt><trkpt lat="40.85198115981952" lon="14.556777904983672"><ele>72.16666666666666</ele><time>2026-04-19T07:00:26Z</time></trkpt><trkpt lat="40.85189043412547" lon="14.556793819790075"><ele>73.0</ele><time>2026-04-19T07:00:27Z</time></trkpt><trkpt lat="40.85177040059593" lon="14.556834187455456"><ele>73.2</ele><time>2026-04-19T07:00:28Z</time></trkpt><trkpt lat="40.851627077407294" lon="14.556901319311388"><ele>73.4</ele><time>2026-04-19T07:00:29Z</time></trkpt><trkpt lat="40.851512259616065" lon="14.556928862504915"><ele>73.60000000000001</ele><time>2026-04-19T07:00:30Z</time></trkpt><trkpt lat="40.851444906402456" lon="14.556950915691926"><ele>73.8</ele><time>2026-04-19T07:00:31Z</time></trkpt><trkpt lat="40.85136721917217" lon="14.556964314477757"><ele>74.0</ele><time>2026-04-19T07:00:33Z</time></trkpt><trkpt lat="40.85144728462933" lon="14.557224540699522"><ele>75.5</ele><time>2026-04-19T07:00:35Z</time></trkpt><trkpt lat="40.85152869931533" lon="14.557311004378368"><ele>77.0</ele><time>2026-04-19T07:00:36Z</time></trkpt><trkpt lat="40.85162795054879" lon="14.557442455918043"><ele>78.5</ele><time>2026-04-19T07:00:37Z</time></trkpt><trkpt lat="40.85172444946129" lon="14.557593667422056"><ele>80.0</ele><time>2026-04-19T07:00:38Z</time></trkpt><trkpt lat="40.85177515935064" lon="14.5577033562459"><ele>80.0</ele><time>2026-04-19T07:00:39Z</time></trkpt><trkpt lat="40.85180112738442" lon="14.557795390373814"><ele>80.0</ele><time>2026-04-19T07:00:40Z</time></trkpt><trkpt lat="40.85178718839548" lon="14.557882835007602"><ele>80.0</ele><time>2026-04-19T07:00:41Z</time></trkpt><trkpt lat="40.851763159964335" lon="14.55796390024029"><ele>80.0</ele><time>2026-04-19T07:00:42Z</time></trkpt><trkpt lat="40.851741499902325" lon="14.558082982571184"><ele>80.0</ele><time>2026-04-19T07:00:43Z</time></trkpt><trkpt lat="40.851685430365066" lon="14.558242258296497"><ele>80.0</ele><time>2026-04-19T07:00:44Z</time></trkpt><trkpt lat="40.85165422718998" lon="14.558418712681437"><ele>80.8</ele><time>2026-04-19T07:00:45Z</time></trkpt><trkpt lat="40.85162241532941" lon="14.55855646500213"><ele>81.6</ele><time>2026-04-19T07:00:46Z</time></trkpt><trkpt lat="40.85162288395109" lon="14.558690994994539"><ele>82.4</ele><time>2026-04-19T07:00:47Z</time></trkpt><trkpt lat="40.8516384918619" lon="14.558821097575958"><ele>83.2</ele><time>2026-04-19T07:00:48Z</time></trkpt><trkpt lat="40.85167212231362" lon="14.558934682837547"><ele>84.0</ele><time>2026-04-19T07:00:49Z</time></trkpt><trkpt lat="40.85172925855039" lon="14.559107042454526"><ele>87.66666666666667</ele><time>2026-04-19T07:00:50Z</time></trkpt><trkpt lat="40.85181155013576" lon="14.559319198081054"><ele>91.33333333333334</ele><time>2026-04-19T07:00:51Z</time></trkpt><trkpt lat="40.85187107664613" lon="14.559526406406446"><ele>95.0</ele><time>2026-04-19T07:00:51.999Z</time></trkpt><trkpt lat="40.851935267981204" lon="14.559729973726053"><ele>96.66666666666667</ele><time>2026-04-19T07:00:52.999Z</time></trkpt><trkpt lat="40.85202370167779" lon="14.55993658531351"><ele>98.33333333333334</ele><time>2026-04-19T07:00:53.999Z</time></trkpt><trkpt lat="40.852130565638895" lon="14.560144706449206"><ele>100.0</ele><time>2026-04-19T07:00:54.999Z</time></trkpt><trkpt lat="40.85224203386717" lon="14.56035218520473"><ele>101.66666666666667</ele><time>2026-04-19T07:00:55.999Z</time></trkpt><trkpt lat="40.85235575381587" lon="14.560567039846052"><ele>103.33333333333334</ele><time>2026-04-19T07:00:56.999Z</time></trkpt><trkpt lat="40.852463495086106" lon="14.560789062233482"><ele>105.0</ele><time>2026-04-19T07:00:57.999Z</time></trkpt><trkpt lat="40.85255548069973" lon="14.561020984961477"><ele>109.0</ele><time>2026-04-19T07:00:58.999Z</time></trkpt><trkpt lat="40.8526392913577" lon="14.561270732240184"><ele>113.0</ele><time>2026-04-19T07:00:59.999Z</time></trkpt><trkpt lat="40.85271395560817" lon="14.561526647670139"><ele>117.0</ele><time>2026-04-19T07:01:00.999Z</time></trkpt><trkpt lat="40.85276203366585" lon="14.56175021122334"><ele>117.0</ele><time>2026-04-19T07:01:01.999Z</time></trkpt><trkpt lat="40.852795735486886" lon="14.561949074300903"><ele>117.0</ele><time>2026-04-19T07:01:02.999Z</time></trkpt><trkpt lat="40.852825150374294" lon="14.562153418514255"><ele>117.0</ele><time>2026-04-19T07:01:03.999Z</time></trkpt><trkpt lat="40.85284926519319" lon="14.562352930784904"><ele>117.0</ele><time>2026-04-19T07:01:04.999Z</time></trkpt><trkpt lat="40.85287490729837" lon="14.562525070575656"><ele>116.99999999999999</ele><time>2026-04-19T07:01:05.999Z</time></trkpt><trkpt lat="40.85289290836002" lon="14.562669346353825"><ele>116.99999999999999</ele><time>2026-04-19T07:01:06.999Z</time></trkpt><trkpt lat="40.85291283531053" lon="14.562799494216573"><ele>117.0</ele><time>2026-04-19T07:01:07.999Z</time></trkpt><trkpt lat="40.85293010679458" lon="14.562910072861428"><ele>117.0</ele><time>2026-04-19T07:01:08.999Z</time></trkpt><trkpt lat="40.85294179069539" lon="14.562996226002248"><ele>117.0</ele><time>2026-04-19T07:01:09.999Z</time></trkpt><trkpt lat="40.852955588252" lon="14.563077605417147"><ele>116.99999999999999</ele><time>2026-04-19T07:01:11.999Z</time></trkpt><trkpt lat="40.852834811469464" lon="14.563060744962677"><ele>116.99999999999999</ele><time>2026-04-19T07:01:19.999Z</time></trkpt><trkpt lat="40.85281418665827" lon="14.56296751992346"><ele>117.0</ele><time>2026-04-19T07:01:20.999Z</time></trkpt><trkpt lat="40.852770038327606" lon="14.562850839736193"><ele>117.0</ele><time>2026-04-19T07:01:21.999Z</time></trkpt><trkpt lat="40.85271589454057" lon="14.562739479813802"><ele>117.0</ele><time>2026-04-19T07:01:22.999Z</time></trkpt><trkpt lat="40.85265248028334" lon="14.56263634202046"><ele>117.0</ele><time>2026-04-19T07:01:23.999Z</time></trkpt><trkpt lat="40.85257074378438" lon="14.562562754151614"><ele>117.0</ele><time>2026-04-19T07:01:24.999Z</time></trkpt><trkpt lat="40.85246147527601" lon="14.562465746326586"><ele>117.0</ele><time>2026-04-19T07:01:25.999Z</time></trkpt><trkpt lat="40.85236028389661" lon="14.562364908536727"><ele>115.5</ele><time>2026-04-19T07:01:26.999Z</time></trkpt><trkpt lat="40.852242787536746" lon="14.562237968382552"><ele>114.0</ele><time>2026-04-19T07:01:27.999Z</time></trkpt><trkpt lat="40.852115674309054" lon="14.56211516986942"><ele>112.5</ele><time>2026-04-19T07:01:28.999Z</time></trkpt><trkpt lat="40.85199210506694" lon="14.562027723704212"><ele>111.0</ele><time>2026-04-19T07:01:29.999Z</time></trkpt><trkpt lat="40.85187694454467" lon="14.561939547905812"><ele>111.0</ele><time>2026-04-19T07:01:30.999Z</time></trkpt><trkpt lat="40.851793234951714" lon="14.56187729024831"><ele>111.0</ele><time>2026-04-19T07:01:31.999Z</time></trkpt><trkpt lat="40.851719069891395" lon="14.561821914818449"><ele>111.0</ele><time>2026-04-19T07:01:32.999Z</time></trkpt><trkpt lat="40.851647058031666" lon="14.56176717762099"><ele>111.0</ele><time>2026-04-19T07:01:33.999Z</time></trkpt><trkpt lat="40.85158729869288" lon="14.561689142933014"><ele>111.0</ele><time>2026-04-19T07:01:34.999Z</time></trkpt><trkpt lat="40.851562330361155" lon="14.56159847173621"><ele>111.0</ele><time>2026-04-19T07:01:35.999Z</time></trkpt><trkpt lat="40.85155751989816" lon="14.561492143155522"><ele>113.0</ele><time>2026-04-19T07:01:36.999Z</time></trkpt><trkpt lat="40.851540388258954" lon="14.561353944410127"><ele>115.0</ele><time>2026-04-19T07:01:37.999Z</time></trkpt><trkpt lat="40.85149479080421" lon="14.561216791622462"><ele>117.0</ele><time>2026-04-19T07:01:38.999Z</time></trkpt><trkpt lat="40.85141735119132" lon="14.561102019955404"><ele>119.0</ele><time>2026-04-19T07:01:39.999Z</time></trkpt><trkpt lat="40.85131624974031" lon="14.561010449545787"><ele>119.0</ele><time>2026-04-19T07:01:40.999Z</time></trkpt><trkpt lat="40.851189021156216" lon="14.560895889523112"><ele>119.0</ele><time>2026-04-19T07:01:41.999Z</time></trkpt><trkpt lat="40.85106024606192" lon="14.560783392200557"><ele>119.0</ele><time>2026-04-19T07:01:42.999Z</time></trkpt><trkpt lat="40.85097934796386" lon="14.5606931325845"><ele>119.0</ele><time>2026-04-19T07:01:43.999Z</time></trkpt><trkpt lat="40.850908730507015" lon="14.560610877206003"><ele>120.0</ele><time>2026-04-19T07:01:44.999Z</time></trkpt><trkpt lat="40.850797990828184" lon="14.560508283054252"><ele>121.0</ele><time>2026-04-19T07:01:45.999Z</time></trkpt><trkpt lat="40.850691095033675" lon="14.560433312091545"><ele>122.0</ele><time>2026-04-19T07:01:46.999Z</time></trkpt><trkpt lat="40.850599143047084" lon="14.56038222904957"><ele>123.0</ele><time>2026-04-19T07:01:47.999Z</time></trkpt><trkpt lat="40.850512371100436" lon="14.560332302455551"><ele>123.0</ele><time>2026-04-19T07:01:48.999Z</time></trkpt><trkpt lat="40.85043906248936" lon="14.560256778951462"><ele>123.00000000000001</ele><time>2026-04-19T07:01:49.999Z</time></trkpt><trkpt lat="40.85038978185244" lon="14.560190343511167"><ele>123.00000000000001</ele><time>2026-04-19T07:01:50.999Z</time></trkpt><trkpt lat="40.85031719140627" lon="14.56018267661798"><ele>123.0</ele><time>2026-04-19T07:01:53.998Z</time></trkpt><trkpt lat="40.850342907566585" lon="14.560273395180293"><ele>123.0</ele><time>2026-04-19T07:01:55.998Z</time></trkpt><trkpt lat="40.85045627520463" lon="14.560398504108019"><ele>127.4</ele><time>2026-04-19T07:01:57.998Z</time></trkpt><trkpt lat="40.85057267488322" lon="14.560509909387255"><ele>131.8</ele><time>2026-04-19T07:01:58.998Z</time></trkpt><trkpt lat="40.850671776755135" lon="14.560582869070425"><ele>136.2</ele><time>2026-04-19T07:01:59.998Z</time></trkpt><trkpt lat="40.85075228270644" lon="14.560641467651077"><ele>140.6</ele><time>2026-04-19T07:02:00.998Z</time></trkpt><trkpt lat="40.850809700567325" lon="14.560722986825644"><ele>145.0</ele><time>2026-04-19T07:02:01.998Z</time></trkpt><trkpt lat="40.85085579917203" lon="14.560845917631575"><ele>145.0</ele><time>2026-04-19T07:02:02.998Z</time></trkpt><trkpt lat="40.85090703480629" lon="14.560966050974963"><ele>145.0</ele><time>2026-04-19T07:02:04Z</time></trkpt><trkpt lat="40.85098513910898" lon="14.56107239247372"><ele>145.0</ele><time>2026-04-19T07:02:05Z</time></trkpt><trkpt lat="40.85105188955372" lon="14.561170749818835"><ele>145.0</ele><time>2026-04-19T07:02:06Z</time></trkpt><trkpt lat="40.851115175222155" lon="14.561268067834668"><ele>145.0</ele><time>2026-04-19T07:02:07Z</time></trkpt><trkpt lat="40.8511719285447" lon="14.561359834758909"><ele>143.0</ele><time>2026-04-19T07:02:08Z</time></trkpt><trkpt lat="40.851204497894756" lon="14.561444810759333"><ele>141.0</ele><time>2026-04-19T07:02:09Z</time></trkpt><trkpt lat="40.8512365423459" lon="14.561539127847846"><ele>139.0</ele><time>2026-04-19T07:02:10Z</time></trkpt><trkpt lat="40.85124274498998" lon="14.561635928647217"><ele>137.0</ele><time>2026-04-19T07:02:11Z</time></trkpt><trkpt lat="40.85123563170076" lon="14.56175102817068"><ele>135.0</ele><time>2026-04-19T07:02:12Z</time></trkpt><trkpt lat="40.851228125917906" lon="14.561875258223246"><ele>133.0</ele><time>2026-04-19T07:02:13Z</time></trkpt><trkpt lat="40.85124874194595" lon="14.561983389389587"><ele>138.4</ele><time>2026-04-19T07:02:14Z</time></trkpt><trkpt lat="40.85128432092296" lon="14.562097854880063"><ele>143.8</ele><time>2026-04-19T07:02:15Z</time></trkpt><trkpt lat="40.85132942747387" lon="14.562189158286339"><ele>149.2</ele><time>2026-04-19T07:02:16Z</time></trkpt><trkpt lat="40.851381482834974" lon="14.56225808243247"><ele>154.6</ele><time>2026-04-19T07:02:17Z</time></trkpt><trkpt lat="40.85145557589442" lon="14.562305843509426"><ele>160.0</ele><time>2026-04-19T07:02:18Z</time></trkpt><trkpt lat="40.85158837030449" lon="14.562425821218707"><ele>160.0</ele><time>2026-04-19T07:02:20Z</time></trkpt><trkpt lat="40.851675847079065" lon="14.562484246418164"><ele>160.0</ele><time>2026-04-19T07:02:21Z</time></trkpt><trkpt lat="40.851746333903115" lon="14.562546706944374"><ele>160.0</ele><time>2026-04-19T07:02:22Z</time></trkpt><trkpt lat="40.85181302009932" lon="14.5626406706014"><ele>160.0</ele><time>2026-04-19T07:02:24Z</time></trkpt><trkpt lat="40.851772525122556" lon="14.562709282181121"><ele>160.0</ele><time>2026-04-19T07:02:26Z</time></trkpt><trkpt lat="40.85168550020245" lon="14.5626996377821"><ele>160.0</ele><time>2026-04-19T07:02:28Z</time></trkpt><trkpt lat="40.851616957605394" lon="14.562647887990979"><ele>160.0</ele><time>2026-04-19T07:02:29Z</time></trkpt><trkpt lat="40.851544201814214" lon="14.562592918422363"><ele>160.0</ele><time>2026-04-19T07:02:30Z</time></trkpt><trkpt lat="40.85146552904266" lon="14.562545556291017"><ele>160.0</ele><time>2026-04-19T07:02:31Z</time></trkpt><trkpt lat="40.85137096254547" lon="14.562490376666535"><ele>160.0</ele><time>2026-04-19T07:02:32Z</time></trkpt><trkpt lat="40.85127090547652" lon="14.562438031243381"><ele>160.0</ele><time>2026-04-19T07:02:33Z</time></trkpt><trkpt lat="40.85117562422516" lon="14.56237266703519"><ele>160.0</ele><time>2026-04-19T07:02:34Z</time></trkpt><trkpt lat="40.851105587900335" lon="14.562291866744602"><ele>160.0</ele><time>2026-04-19T07:02:35Z</time></trkpt><trkpt lat="40.85104754234828" lon="14.562186700016214"><ele>160.0</ele><time>2026-04-19T07:02:36Z</time></trkpt><trkpt lat="40.85098466415682" lon="14.562071645079767"><ele>160.0</ele><time>2026-04-19T07:02:37Z</time></trkpt><trkpt lat="40.85094773115842" lon="14.56191904021295"><ele>160.0</ele><time>2026-04-19T07:02:38Z</time></trkpt><trkpt lat="40.850878763218844" lon="14.561783124433521"><ele>162.0</ele><time>2026-04-19T07:02:39Z</time></trkpt><trkpt lat="40.85078510751945" lon="14.561674068028557"><ele>164.0</ele><time>2026-04-19T07:02:40Z</time></trkpt><trkpt lat="40.850657369426166" lon="14.56157346598339"><ele>166.0</ele><time>2026-04-19T07:02:41Z</time></trkpt><trkpt lat="40.85051618871295" lon="14.5614669596857"><ele>168.0</ele><time>2026-04-19T07:02:42Z</time></trkpt><trkpt lat="40.85040613215512" lon="14.561381498043264"><ele>168.0</ele><time>2026-04-19T07:02:43Z</time></trkpt><trkpt lat="40.85032338687756" lon="14.561298282660305"><ele>168.0</ele><time>2026-04-19T07:02:44Z</time></trkpt><trkpt lat="40.850249932526715" lon="14.561213755360289"><ele>168.0</ele><time>2026-04-19T07:02:45Z</time></trkpt><trkpt lat="40.8501657767983" lon="14.561111061878307"><ele>168.0</ele><time>2026-04-19T07:02:46Z</time></trkpt><trkpt lat="40.85007876334966" lon="14.561008905412278"><ele>168.0</ele><time>2026-04-19T07:02:47Z</time></trkpt><trkpt lat="40.849995198055595" lon="14.56091827106647"><ele>169.33333333333334</ele><time>2026-04-19T07:02:48Z</time></trkpt><trkpt lat="40.84992502939867" lon="14.560846771001762"><ele>170.66666666666666</ele><time>2026-04-19T07:02:49Z</time></trkpt><trkpt lat="40.849869583159354" lon="14.560789942116639"><ele>172.0</ele><time>2026-04-19T07:02:50Z</time></trkpt><trkpt lat="40.84978687104654" lon="14.560707957721165"><ele>173.33333333333331</ele><time>2026-04-19T07:02:52Z</time></trkpt><trkpt lat="40.84972180607363" lon="14.560732588561256"><ele>174.66666666666666</ele><time>2026-04-19T07:02:54Z</time></trkpt><trkpt lat="40.84975888604178" lon="14.56087015723629"><ele>176.0</ele><time>2026-04-19T07:02:56Z</time></trkpt><trkpt lat="40.84982510725584" lon="14.560955616831672"><ele>176.0</ele><time>2026-04-19T07:02:57Z</time></trkpt><trkpt lat="40.84988475801814" lon="14.561032439550125"><ele>176.0</ele><time>2026-04-19T07:02:58Z</time></trkpt><trkpt lat="40.84994154046997" lon="14.561164770511372"><ele>176.0</ele><time>2026-04-19T07:03:00Z</time></trkpt><trkpt lat="40.8499998663185" lon="14.56131029890065"><ele>176.0</ele><time>2026-04-19T07:03:02Z</time></trkpt><trkpt lat="40.850032983767164" lon="14.561410746627814"><ele>176.0</ele><time>2026-04-19T07:03:02.999Z</time></trkpt><trkpt lat="40.85005998561226" lon="14.561495564196067"><ele>174.66666666666666</ele><time>2026-04-19T07:03:03.999Z</time></trkpt><trkpt lat="40.850093260288645" lon="14.561577967517046"><ele>173.33333333333331</ele><time>2026-04-19T07:03:04.999Z</time></trkpt><trkpt lat="40.85014033957084" lon="14.561661876239492"><ele>172.0</ele><time>2026-04-19T07:03:05.999Z</time></trkpt><trkpt lat="40.85019345160339" lon="14.561734991065842"><ele>170.66666666666666</ele><time>2026-04-19T07:03:06.999Z</time></trkpt><trkpt lat="40.850252138484706" lon="14.561796469484488"><ele>169.33333333333334</ele><time>2026-04-19T07:03:07.999Z</time></trkpt><trkpt lat="40.850326716256625" lon="14.561863910805299"><ele>168.0</ele><time>2026-04-19T07:03:08.999Z</time></trkpt><trkpt lat="40.85040663909919" lon="14.561939358335714"><ele>174.4</ele><time>2026-04-19T07:03:09.999Z</time></trkpt><trkpt lat="40.85048581994852" lon="14.562039648040717"><ele>180.8</ele><time>2026-04-19T07:03:10.999Z</time></trkpt><trkpt lat="40.85056144695115" lon="14.562159491481841"><ele>187.2</ele><time>2026-04-19T07:03:11.999Z</time></trkpt><trkpt lat="40.85060864448111" lon="14.56226760143094"><ele>193.6</ele><time>2026-04-19T07:03:12.999Z</time></trkpt><trkpt lat="40.85063763748608" lon="14.56234417748145"><ele>200.0</ele><time>2026-04-19T07:03:13.999Z</time></trkpt><trkpt lat="40.850664648712616" lon="14.562460832866252"><ele>200.00000000000003</ele><time>2026-04-19T07:03:15.999Z</time></trkpt><trkpt lat="40.850633007253236" lon="14.56253342401011"><ele>200.0</ele><time>2026-04-19T07:03:17.999Z</time></trkpt><trkpt lat="40.850550101305984" lon="14.562504206892271"><ele>200.0</ele><time>2026-04-19T07:03:19.999Z</time></trkpt><trkpt lat="40.85049941129701" lon="14.562435394863082"><ele>200.0</ele><time>2026-04-19T07:03:20.999Z</time></trkpt><trkpt lat="40.85042175467938" lon="14.562377998452465"><ele>200.00000000000003</ele><time>2026-04-19T07:03:21.999Z</time></trkpt><trkpt lat="40.8503203272552" lon="14.562319032216246"><ele>200.0</ele><time>2026-04-19T07:03:22.999Z</time></trkpt><trkpt lat="40.850205574823896" lon="14.562267078496397"><ele>200.5</ele><time>2026-04-19T07:03:23.999Z</time></trkpt><trkpt lat="40.85009136768983" lon="14.56218632725324"><ele>201.0</ele><time>2026-04-19T07:03:24.999Z</time></trkpt><trkpt lat="40.84997865974963" lon="14.5620794200937"><ele>201.5</ele><time>2026-04-19T07:03:25.999Z</time></trkpt><trkpt lat="40.84987411079917" lon="14.56197218580697"><ele>202.0</ele><time>2026-04-19T07:03:26.999Z</time></trkpt><trkpt lat="40.84980318351639" lon="14.56188284966665"><ele>202.0</ele><time>2026-04-19T07:03:27.999Z</time></trkpt><trkpt lat="40.84973878923889" lon="14.561810890061198"><ele>202.0</ele><time>2026-04-19T07:03:28.999Z</time></trkpt><trkpt lat="40.84966270818639" lon="14.561727852561178"><ele>202.0</ele><time>2026-04-19T07:03:29.999Z</time></trkpt><trkpt lat="40.84955438326659" lon="14.56165360866269"><ele>202.0</ele><time>2026-04-19T07:03:31.999Z</time></trkpt><trkpt lat="40.8494681220068" lon="14.561728647923992"><ele>202.0</ele><time>2026-04-19T07:03:33.999Z</time></trkpt><trkpt lat="40.84947436563503" lon="14.561825689633988"><ele>202.0</ele><time>2026-04-19T07:03:34.999Z</time></trkpt><trkpt lat="40.84952504279198" lon="14.561932552166537"><ele>202.0</ele><time>2026-04-19T07:03:35.999Z</time></trkpt><trkpt lat="40.84960454655297" lon="14.562044708793215"><ele>202.0</ele><time>2026-04-19T07:03:36.999Z</time></trkpt><trkpt lat="40.84968672344802" lon="14.562166546963793"><ele>202.0</ele><time>2026-04-19T07:03:37.999Z</time></trkpt><trkpt lat="40.849755154754725" lon="14.562264270087697"><ele>202.0</ele><time>2026-04-19T07:03:38.999Z</time></trkpt><trkpt lat="40.84982243215982" lon="14.562390018499539"><ele>207.6</ele><time>2026-04-19T07:03:39.999Z</time></trkpt><trkpt lat="40.84988299081107" lon="14.562510436651525"><ele>213.2</ele><time>2026-04-19T07:03:40.999Z</time></trkpt><trkpt lat="40.849933150821705" lon="14.562643476719076"><ele>218.8</ele><time>2026-04-19T07:03:41.999Z</time></trkpt><trkpt lat="40.84998160845606" lon="14.562773119120436"><ele>224.4</ele><time>2026-04-19T07:03:42.999Z</time></trkpt><trkpt lat="40.85003311383374" lon="14.562868166356713"><ele>230.0</ele><time>2026-04-19T07:03:43.999Z</time></trkpt><trkpt lat="40.85010621867498" lon="14.562951458931401"><ele>229.75</ele><time>2026-04-19T07:03:44.999Z</time></trkpt><trkpt lat="40.85018282715492" lon="14.563080734443895"><ele>229.5</ele><time>2026-04-19T07:03:45.999Z</time></trkpt><trkpt lat="40.85024887020969" lon="14.563225330160483"><ele>229.25</ele><time>2026-04-19T07:03:46.999Z</time></trkpt><trkpt lat="40.85031883385939" lon="14.563340223513501"><ele>229.0</ele><time>2026-04-19T07:03:47.999Z</time></trkpt><trkpt lat="40.85040077102646" lon="14.5634522504501"><ele>229.0</ele><time>2026-04-19T07:03:48.999Z</time></trkpt><trkpt lat="40.85048906407217" lon="14.56356738414691"><ele>228.99999999999997</ele><time>2026-04-19T07:03:49.999Z</time></trkpt><trkpt lat="40.85056750177824" lon="14.56368458470998"><ele>228.99999999999997</ele><time>2026-04-19T07:03:50.999Z</time></trkpt><trkpt lat="40.850638885884926" lon="14.563776999897312"><ele>229.0</ele><time>2026-04-19T07:03:51.999Z</time></trkpt><trkpt lat="40.850695147764064" lon="14.563849685704028"><ele>229.0</ele><time>2026-04-19T07:03:52.999Z</time></trkpt><trkpt lat="40.8507706940186" lon="14.563915125598792"><ele>226.6</ele><time>2026-04-19T07:03:53.999Z</time></trkpt><trkpt lat="40.85083709517212" lon="14.564004125188527"><ele>224.2</ele><time>2026-04-19T07:03:54.999Z</time></trkpt><trkpt lat="40.85087271307116" lon="14.56412077378607"><ele>221.79999999999998</ele><time>2026-04-19T07:03:55.999Z</time></trkpt><trkpt lat="40.85090865695565" lon="14.56423322687578"><ele>219.39999999999998</ele><time>2026-04-19T07:03:56.999Z</time></trkpt><trkpt lat="40.850947898722325" lon="14.564342276758543"><ele>217.0</ele><time>2026-04-19T07:03:57.999Z</time></trkpt><trkpt lat="40.85099117866238" lon="14.564444942223975"><ele>220.66666666666666</ele><time>2026-04-19T07:03:58.999Z</time></trkpt><trkpt lat="40.851045372829" lon="14.5645639070732"><ele>224.33333333333331</ele><time>2026-04-19T07:03:59.999Z</time></trkpt><trkpt lat="40.85108090604967" lon="14.564659226216275"><ele>228.0</ele><time>2026-04-19T07:04:00.999Z</time></trkpt><trkpt lat="40.85111513373143" lon="14.564732507626978"><ele>231.66666666666669</ele><time>2026-04-19T07:04:01.999Z</time></trkpt><trkpt lat="40.85115380869529" lon="14.564809790409296"><ele>235.33333333333334</ele><time>2026-04-19T07:04:03.998Z</time></trkpt><trkpt lat="40.85109839467902" lon="14.564878831107759"><ele>239.0</ele><time>2026-04-19T07:04:06.998Z</time></trkpt><trkpt lat="40.85100426640919" lon="14.56480492372533"><ele>239.0</ele><time>2026-04-19T07:04:08.998Z</time></trkpt><trkpt lat="40.85096335967323" lon="14.564731806007728"><ele>238.99999999999997</ele><time>2026-04-19T07:04:10Z</time></trkpt><trkpt lat="40.850903192588575" lon="14.56462348499186"><ele>238.99999999999997</ele><time>2026-04-19T07:04:11Z</time></trkpt><trkpt lat="40.850833215822156" lon="14.564532885962167"><ele>239.0</ele><time>2026-04-19T07:04:12Z</time></trkpt><trkpt lat="40.8507362252536" lon="14.564428445171037"><ele>239.0</ele><time>2026-04-19T07:04:13Z</time></trkpt><trkpt lat="40.85063387501259" lon="14.56431731877415"><ele>242.6</ele><time>2026-04-19T07:04:14Z</time></trkpt><trkpt lat="40.850540347894835" lon="14.564232005155919"><ele>246.2</ele><time>2026-04-19T07:04:15Z</time></trkpt><trkpt lat="40.850455469226375" lon="14.56415314791133"><ele>249.79999999999998</ele><time>2026-04-19T07:04:16Z</time></trkpt><trkpt lat="40.850375355705644" lon="14.564088524903775"><ele>253.39999999999998</ele><time>2026-04-19T07:04:17Z</time></trkpt><trkpt lat="40.850311168178855" lon="14.564049609704183"><ele>257.0</ele><time>2026-04-19T07:04:18Z</time></trkpt><trkpt lat="40.85021412064711" lon="14.56398440052895"><ele>263.75</ele><time>2026-04-19T07:04:19Z</time></trkpt><trkpt lat="40.85009368732904" lon="14.563895797206017"><ele>270.5</ele><time>2026-04-19T07:04:20Z</time></trkpt><trkpt lat="40.84997803319268" lon="14.563840780198008"><ele>277.25</ele><time>2026-04-19T07:04:21Z</time></trkpt><trkpt lat="40.849858911048635" lon="14.5637840720597"><ele>284.0</ele><time>2026-04-19T07:04:22Z</time></trkpt><trkpt lat="40.84974679210914" lon="14.563722756588126"><ele>277.25</ele><time>2026-04-19T07:04:23Z</time></trkpt><trkpt lat="40.84964283450517" lon="14.563668514869068"><ele>270.5</ele><time>2026-04-19T07:04:24Z</time></trkpt><trkpt lat="40.84952512512707" lon="14.563635461977649"><ele>263.75</ele><time>2026-04-19T07:04:25Z</time></trkpt><trkpt lat="40.84940607510011" lon="14.563609631172273"><ele>257.0</ele><time>2026-04-19T07:04:26Z</time></trkpt><trkpt lat="40.849297574281906" lon="14.563579863477068"><ele>259.33333333333337</ele><time>2026-04-19T07:04:27Z</time></trkpt><trkpt lat="40.84920395204181" lon="14.563570262575368"><ele>261.6666666666667</ele><time>2026-04-19T07:04:28Z</time></trkpt><trkpt lat="40.849109759826476" lon="14.56355463265883"><ele>264.0</ele><time>2026-04-19T07:04:29Z</time></trkpt><trkpt lat="40.84904073172323" lon="14.563552531853652"><ele>266.3333333333333</ele><time>2026-04-19T07:04:30Z</time></trkpt><trkpt lat="40.84895520049054" lon="14.563588979145258"><ele>268.66666666666663</ele><time>2026-04-19T07:04:32Z</time></trkpt><trkpt lat="40.84894316459832" lon="14.563671219546384"><ele>271.0</ele><time>2026-04-19T07:04:54Z</time></trkpt><trkpt lat="40.8489876165949" lon="14.563772772244517"><ele>273.6</ele><time>2026-04-19T07:04:56Z</time></trkpt><trkpt lat="40.84905402279452" lon="14.563803332910853"><ele>276.20000000000005</ele><time>2026-04-19T07:04:57Z</time></trkpt><trkpt lat="40.849127575060386" lon="14.563835532382832"><ele>278.79999999999995</ele><time>2026-04-19T07:04:58Z</time></trkpt><trkpt lat="40.849230840092716" lon="14.563914078437975"><ele>281.4</ele><time>2026-04-19T07:05:00Z</time></trkpt><trkpt lat="40.84934974052433" lon="14.56401230461319"><ele>284.0</ele><time>2026-04-19T07:05:02Z</time></trkpt><trkpt lat="40.84942682992476" lon="14.564075649210668"><ele>284.0</ele><time>2026-04-19T07:05:03Z</time></trkpt><trkpt lat="40.84950718360317" lon="14.564175873801153"><ele>284.0</ele><time>2026-04-19T07:05:04Z</time></trkpt><trkpt lat="40.8495736661722" lon="14.56426571610124"><ele>284.0</ele><time>2026-04-19T07:05:05Z</time></trkpt><trkpt lat="40.84963711197599" lon="14.564372313775277"><ele>284.0</ele><time>2026-04-19T07:05:06Z</time></trkpt><trkpt lat="40.84971346847781" lon="14.564479771890996"><ele>284.0</ele><time>2026-04-19T07:05:07Z</time></trkpt><trkpt lat="40.84978208364777" lon="14.564578603683122"><ele>289.4</ele><time>2026-04-19T07:05:08Z</time></trkpt><trkpt lat="40.849851791521516" lon="14.564689719594703"><ele>294.79999999999995</ele><time>2026-04-19T07:05:09Z</time></trkpt><trkpt lat="40.84991160886775" lon="14.564795971846403"><ele>300.20000000000005</ele><time>2026-04-19T07:05:10Z</time></trkpt><trkpt lat="40.84996079229823" lon="14.564887840221957"><ele>305.6</ele><time>2026-04-19T07:05:11Z</time></trkpt><trkpt lat="40.850029732666094" lon="14.56500373145198"><ele>311.0</ele><time>2026-04-19T07:05:12Z</time></trkpt><trkpt lat="40.85011016801833" lon="14.565118456249776"><ele>308.0</ele><time>2026-04-19T07:05:13Z</time></trkpt><trkpt lat="40.85017419570791" lon="14.565225870202712"><ele>305.0</ele><time>2026-04-19T07:05:14Z</time></trkpt><trkpt lat="40.850238055724844" lon="14.565353487774761"><ele>302.0</ele><time>2026-04-19T07:05:15Z</time></trkpt><trkpt lat="40.850304014543646" lon="14.565486104896829"><ele>299.0</ele><time>2026-04-19T07:05:15.999Z</time></trkpt><trkpt lat="40.85035407476519" lon="14.565616619560954"><ele>299.0</ele><time>2026-04-19T07:05:16.999Z</time></trkpt><trkpt lat="40.850408564607605" lon="14.565756881764022"><ele>299.0</ele><time>2026-04-19T07:05:17.999Z</time></trkpt><trkpt lat="40.850456949624814" lon="14.565906211802162"><ele>299.0</ele><time>2026-04-19T07:05:18.999Z</time></trkpt><trkpt lat="40.850474942571644" lon="14.566046025529955"><ele>299.0</ele><time>2026-04-19T07:05:19.999Z</time></trkpt><trkpt lat="40.85050316864066" lon="14.566204554772451"><ele>302.75</ele><time>2026-04-19T07:05:20.999Z</time></trkpt><trkpt lat="40.85055593258609" lon="14.566366736090293"><ele>306.5</ele><time>2026-04-19T07:05:21.999Z</time></trkpt><trkpt lat="40.850611798851844" lon="14.566496267057799"><ele>310.25</ele><time>2026-04-19T07:05:22.999Z</time></trkpt><trkpt lat="40.85064679465985" lon="14.566620554265"><ele>314.0</ele><time>2026-04-19T07:05:23.999Z</time></trkpt><trkpt lat="40.85067599478642" lon="14.56676901396719"><ele>314.0</ele><time>2026-04-19T07:05:24.999Z</time></trkpt><trkpt lat="40.850706057781174" lon="14.566932673039119"><ele>314.0</ele><time>2026-04-19T07:05:25.999Z</time></trkpt><trkpt lat="40.85072973018915" lon="14.567089259537513"><ele>314.0</ele><time>2026-04-19T07:05:26.999Z</time></trkpt><trkpt lat="40.85075138740949" lon="14.56722844366941"><ele>314.0</ele><time>2026-04-19T07:05:27.999Z</time></trkpt><trkpt lat="40.85077726541736" lon="14.56735962299421"><ele>317.0</ele><time>2026-04-19T07:05:28.999Z</time></trkpt><trkpt lat="40.85080943463392" lon="14.567453451198375"><ele>320.0</ele><time>2026-04-19T07:05:29.999Z</time></trkpt><trkpt lat="40.8508203813309" lon="14.567564202370736"><ele>323.0</ele><time>2026-04-19T07:05:30.999Z</time></trkpt><trkpt lat="40.85081279510374" lon="14.5676724767997"><ele>326.0</ele><time>2026-04-19T07:05:31.999Z</time></trkpt><trkpt lat="40.850765906232525" lon="14.56781233941887"><ele>329.0</ele><time>2026-04-19T07:05:32.999Z</time></trkpt><trkpt lat="40.850707540740956" lon="14.567937323246433"><ele>330.0</ele><time>2026-04-19T07:05:33.999Z</time></trkpt><trkpt lat="40.850654500105584" lon="14.568060882824273"><ele>331.0</ele><time>2026-04-19T07:05:34.999Z</time></trkpt><trkpt lat="40.850612347525995" lon="14.568207985790345"><ele>332.0</ele><time>2026-04-19T07:05:35.999Z</time></trkpt><trkpt lat="40.85057320001562" lon="14.568394135589706"><ele>333.0</ele><time>2026-04-19T07:05:36.999Z</time></trkpt><trkpt lat="40.850530611422805" lon="14.568582019845588"><ele>334.0</ele><time>2026-04-19T07:05:37.999Z</time></trkpt><trkpt lat="40.850490255435986" lon="14.568734444441628"><ele>335.0</ele><time>2026-04-19T07:05:38.999Z</time></trkpt><trkpt lat="40.850465804709415" lon="14.568871781062548"><ele>336.0</ele><time>2026-04-19T07:05:39.999Z</time></trkpt><trkpt lat="40.85044052395713" lon="14.569019819486448"><ele>337.0</ele><time>2026-04-19T07:05:40.999Z</time></trkpt><trkpt lat="40.850415300627816" lon="14.56916443321298"><ele>337.0</ele><time>2026-04-19T07:05:41.999Z</time></trkpt><trkpt lat="40.85036872591386" lon="14.569309734351945"><ele>337.0</ele><time>2026-04-19T07:05:42.999Z</time></trkpt><trkpt lat="40.850311317637555" lon="14.569455970774209"><ele>337.0</ele><time>2026-04-19T07:05:43.999Z</time></trkpt><trkpt lat="40.85028619085876" lon="14.569570939745708"><ele>337.0</ele><time>2026-04-19T07:05:44.999Z</time></trkpt><trkpt lat="40.85023700498319" lon="14.569674262319014"><ele>337.0</ele><time>2026-04-19T07:05:45.999Z</time></trkpt><trkpt lat="40.850187296883625" lon="14.56979583789018"><ele>337.5</ele><time>2026-04-19T07:05:46.999Z</time></trkpt><trkpt lat="40.850141799241385" lon="14.569910365647699"><ele>338.0</ele><time>2026-04-19T07:05:47.999Z</time></trkpt><trkpt lat="40.850095827116256" lon="14.5699970213491"><ele>338.5</ele><time>2026-04-19T07:05:48.999Z</time></trkpt><trkpt lat="40.85005112879313" lon="14.570092674406183"><ele>339.0</ele><time>2026-04-19T07:05:49.999Z</time></trkpt><trkpt lat="40.85000755718957" lon="14.57018686010993"><ele>339.5</ele><time>2026-04-19T07:05:50.999Z</time></trkpt><trkpt lat="40.849981199168155" lon="14.570312981887216"><ele>340.0</ele><time>2026-04-19T07:05:51.999Z</time></trkpt><trkpt lat="40.849963961142855" lon="14.570453165435971"><ele>345.2</ele><time>2026-04-19T07:05:52.999Z</time></trkpt><trkpt lat="40.84997568630213" lon="14.57056148587995"><ele>350.4</ele><time>2026-04-19T07:05:53.999Z</time></trkpt><trkpt lat="40.84995771119448" lon="14.57066211382678"><ele>355.6</ele><time>2026-04-19T07:05:54.999Z</time></trkpt><trkpt lat="40.849901814151806" lon="14.570790674154646"><ele>360.8</ele><time>2026-04-19T07:05:55.999Z</time></trkpt><trkpt lat="40.849865330860574" lon="14.570906264384824"><ele>366.0</ele><time>2026-04-19T07:05:56.999Z</time></trkpt><trkpt lat="40.8498259082396" lon="14.571016767863684"><ele>366.0</ele><time>2026-04-19T07:05:57.999Z</time></trkpt><trkpt lat="40.849764347601564" lon="14.571126262695879"><ele>366.0</ele><time>2026-04-19T07:05:58.999Z</time></trkpt><trkpt lat="40.84969359375331" lon="14.571242754577362"><ele>366.0</ele><time>2026-04-19T07:05:59.999Z</time></trkpt><trkpt lat="40.84961685625559" lon="14.571338808590761"><ele>366.0</ele><time>2026-04-19T07:06:00.999Z</time></trkpt><trkpt lat="40.849549903189946" lon="14.571494699910794"><ele>367.25</ele><time>2026-04-19T07:06:01.999Z</time></trkpt><trkpt lat="40.84949670171587" lon="14.571641681797859"><ele>368.5</ele><time>2026-04-19T07:06:02.999Z</time></trkpt><trkpt lat="40.849419220122634" lon="14.571787273349644"><ele>369.75</ele><time>2026-04-19T07:06:03.999Z</time></trkpt><trkpt lat="40.84936193771484" lon="14.571895625462233"><ele>371.0</ele><time>2026-04-19T07:06:04.999Z</time></trkpt><trkpt lat="40.849313478183184" lon="14.57200813926863"><ele>373.4</ele><time>2026-04-19T07:06:05.999Z</time></trkpt><trkpt lat="40.84927946932258" lon="14.57217684804094"><ele>375.8</ele><time>2026-04-19T07:06:06.999Z</time></trkpt><trkpt lat="40.84925117964863" lon="14.572323499277408"><ele>378.2</ele><time>2026-04-19T07:06:07.999Z</time></trkpt><trkpt lat="40.8492058513332" lon="14.57247111393744"><ele>380.59999999999997</ele><time>2026-04-19T07:06:08.999Z</time></trkpt><trkpt lat="40.849193999077926" lon="14.572557245863916"><ele>383.0</ele><time>2026-04-19T07:06:09.999Z</time></trkpt><trkpt lat="40.84917852130323" lon="14.572650390155708"><ele>383.0</ele><time>2026-04-19T07:06:10.999Z</time></trkpt><trkpt lat="40.84918012484307" lon="14.572783453726233"><ele>383.0</ele><time>2026-04-19T07:06:11.999Z</time></trkpt><trkpt lat="40.84917815875621" lon="14.572935928182277"><ele>383.0</ele><time>2026-04-19T07:06:12.999Z</time></trkpt><trkpt lat="40.84916464869025" lon="14.57306011787165"><ele>383.0</ele><time>2026-04-19T07:06:13.999Z</time></trkpt><trkpt lat="40.8491411258093" lon="14.573155557420288"><ele>383.0</ele><time>2026-04-19T07:06:14.999Z</time></trkpt><trkpt lat="40.8491312750852" lon="14.573250458433646"><ele>383.25</ele><time>2026-04-19T07:06:16Z</time></trkpt><trkpt lat="40.849140555755305" lon="14.573372135672702"><ele>383.5</ele><time>2026-04-19T07:06:17Z</time></trkpt><trkpt lat="40.84919319024317" lon="14.573525319358717"><ele>383.75</ele><time>2026-04-19T07:06:18Z</time></trkpt><trkpt lat="40.849240525189174" lon="14.573662197973714"><ele>384.0</ele><time>2026-04-19T07:06:19Z</time></trkpt><trkpt lat="40.84929452891639" lon="14.57381740336793"><ele>383.4</ele><time>2026-04-19T07:06:20Z</time></trkpt><trkpt lat="40.84932355662654" lon="14.573975533063209"><ele>382.79999999999995</ele><time>2026-04-19T07:06:21Z</time></trkpt><trkpt lat="40.849339269904874" lon="14.574089286337655"><ele>382.20000000000005</ele><time>2026-04-19T07:06:22Z</time></trkpt><trkpt lat="40.84936946196306" lon="14.574179384638501"><ele>381.6</ele><time>2026-04-19T07:06:24Z</time></trkpt><trkpt lat="40.84940506078577" lon="14.574300692222264"><ele>381.0</ele><time>2026-04-19T07:08:57.999Z</time></trkpt><trkpt lat="40.84950047710647" lon="14.574324559840163"><ele>381.0</ele><time>2026-04-19T07:08:58.999Z</time></trkpt><trkpt lat="40.84961901371474" lon="14.574344311822555"><ele>381.0</ele><time>2026-04-19T07:08:59.999Z</time></trkpt><trkpt lat="40.84977876781655" lon="14.574352184494952"><ele>381.0</ele><time>2026-04-19T07:09:00.999Z</time></trkpt><trkpt lat="40.84992525108662" lon="14.57436548893699"><ele>381.0</ele><time>2026-04-19T07:09:01.999Z</time></trkpt><trkpt lat="40.85005063467335" lon="14.574397530412412"><ele>381.0</ele><time>2026-04-19T07:09:02.999Z</time></trkpt><trkpt lat="40.8501465082984" lon="14.574420899390796"><ele>381.0</ele><time>2026-04-19T07:09:03.999Z</time></trkpt><trkpt lat="40.85023615362764" lon="14.574434901358428"><ele>381.0</ele><time>2026-04-19T07:09:04.999Z</time></trkpt><trkpt lat="40.850325432863436" lon="14.574436464797394"><ele>381.0</ele><time>2026-04-19T07:09:05.999Z</time></trkpt><trkpt lat="40.85041645842832" lon="14.57441664059699"><ele>381.0</ele><time>2026-04-19T07:09:06.999Z</time></trkpt><trkpt lat="40.850504977247134" lon="14.574413085839335"><ele>381.0</ele><time>2026-04-19T07:09:07.999Z</time></trkpt><trkpt lat="40.850582851052614" lon="14.57441778770492"><ele>381.0</ele><time>2026-04-19T07:09:08.999Z</time></trkpt><trkpt lat="40.8506576318973" lon="14.574426950945213"><ele>381.0</ele><time>2026-04-19T07:09:09.999Z</time></trkpt><trkpt lat="40.8507355246564" lon="14.574432987158058"><ele>381.0</ele><time>2026-04-19T07:09:10.999Z</time></trkpt><trkpt lat="40.850808402893996" lon="14.574429230428247"><ele>381.0</ele><time>2026-04-19T07:09:11.999Z</time></trkpt><trkpt lat="40.8508843968003" lon="14.574420880300169"><ele>381.0</ele><time>2026-04-19T07:09:12.999Z</time></trkpt><trkpt lat="40.85096371846045" lon="14.574390551019127"><ele>380.4285714285714</ele><time>2026-04-19T07:09:13.999Z</time></trkpt><trkpt lat="40.85103780236663" lon="14.574350156731965"><ele>379.8571428571429</ele><time>2026-04-19T07:09:14.999Z</time></trkpt><trkpt lat="40.85110506747691" lon="14.574313479171684"><ele>379.2857142857143</ele><time>2026-04-19T07:09:15.999Z</time></trkpt><trkpt lat="40.851175321518625" lon="14.574289892119085"><ele>378.71428571428567</ele><time>2026-04-19T07:09:16.999Z</time></trkpt><trkpt lat="40.851240606944536" lon="14.574276235261333"><ele>378.1428571428571</ele><time>2026-04-19T07:09:17.999Z</time></trkpt><trkpt lat="40.85131663139019" lon="14.574282865561358"><ele>377.57142857142856</ele><time>2026-04-19T07:09:18.999Z</time></trkpt><trkpt lat="40.85139461748465" lon="14.5743003159489"><ele>377.0</ele><time>2026-04-19T07:09:19.999Z</time></trkpt><trkpt lat="40.851468006677" lon="14.574325354809025"><ele>377.0</ele><time>2026-04-19T07:09:20.999Z</time></trkpt><trkpt lat="40.85154337049878" lon="14.574371726374741"><ele>377.0</ele><time>2026-04-19T07:09:21.999Z</time></trkpt><trkpt lat="40.851610309558275" lon="14.574424108265296"><ele>377.0</ele><time>2026-04-19T07:09:22.999Z</time></trkpt><trkpt lat="40.85166562307049" lon="14.574482641135601"><ele>377.0</ele><time>2026-04-19T07:09:23.999Z</time></trkpt><trkpt lat="40.85171311323453" lon="14.574539693974726"><ele>377.0</ele><time>2026-04-19T07:09:24.999Z</time></trkpt><trkpt lat="40.85179845441053" lon="14.574611176428697"><ele>377.0</ele><time>2026-04-19T07:09:26.999Z</time></trkpt><trkpt lat="40.85186786013573" lon="14.574672140439127"><ele>374.6666666666667</ele><time>2026-04-19T07:09:28.999Z</time></trkpt><trkpt lat="40.85193515777511" lon="14.574749753000106"><ele>372.33333333333337</ele><time>2026-04-19T07:09:31.999Z</time></trkpt><trkpt lat="40.8520406487224" lon="14.574844705600258"><ele>370.0</ele><time>2026-04-19T07:09:33.999Z</time></trkpt><trkpt lat="40.85209847502607" lon="14.574891683170307"><ele>367.6666666666667</ele><time>2026-04-19T07:09:34.999Z</time></trkpt><trkpt lat="40.85216403915495" lon="14.574936120007607"><ele>365.3333333333333</ele><time>2026-04-19T07:09:37.999Z</time></trkpt><trkpt lat="40.85222863426557" lon="14.574956603764075"><ele>363.0</ele><time>2026-04-19T07:09:39.998Z</time></trkpt><trkpt lat="40.852301477792416" lon="14.575035140063443"><ele>363.0</ele><time>2026-04-19T07:09:42.998Z</time></trkpt><trkpt lat="40.8523533271565" lon="14.575132483685683"><ele>363.0</ele><time>2026-04-19T07:09:44.998Z</time></trkpt><trkpt lat="40.852392224064175" lon="14.575233304456557"><ele>363.0</ele><time>2026-04-19T07:09:46.998Z</time></trkpt><trkpt lat="40.85244384828989" lon="14.575286765044595"><ele>363.0</ele><time>2026-04-19T07:09:48.998Z</time></trkpt><trkpt lat="40.85248875781423" lon="14.57537861315304"><ele>363.0</ele><time>2026-04-19T07:09:50.998Z</time></trkpt><trkpt lat="40.852516474864466" lon="14.57549515197359"><ele>363.0</ele><time>2026-04-19T07:09:53.998Z</time></trkpt><trkpt lat="40.852516210187126" lon="14.57558452794849"><ele>357.0</ele><time>2026-04-19T07:09:55.998Z</time></trkpt><trkpt lat="40.85265872425607" lon="14.575946000935392"><ele>351.0</ele><time>2026-04-19T07:09:57.998Z</time></trkpt><trkpt lat="40.85269047995991" lon="14.57608178843813"><ele>345.0</ele><time>2026-04-19T07:09:59.998Z</time></trkpt><trkpt lat="40.85272089431039" lon="14.576222968875404"><ele>345.0</ele><time>2026-04-19T07:10:01.998Z</time></trkpt><trkpt lat="40.85274483144546" lon="14.576337722605478"><ele>345.0</ele><time>2026-04-19T07:10:03.998Z</time></trkpt><trkpt lat="40.8527601784089" lon="14.57649861143311"><ele>345.0</ele><time>2026-04-19T07:10:05.998Z</time></trkpt><trkpt lat="40.852753162722124" lon="14.576581916782319"><ele>345.0</ele><time>2026-04-19T07:10:06.998Z</time></trkpt><trkpt lat="40.85275206038558" lon="14.576673037208396"><ele>345.0</ele><time>2026-04-19T07:10:07.998Z</time></trkpt><trkpt lat="40.852750224448286" lon="14.576777929264054"><ele>345.0</ele><time>2026-04-19T07:10:08.998Z</time></trkpt><trkpt lat="40.85274399994081" lon="14.576861939048744"><ele>345.0</ele><time>2026-04-19T07:10:09.998Z</time></trkpt><trkpt lat="40.85275493756336" lon="14.57694471043436"><ele>345.0</ele><time>2026-04-19T07:10:10.998Z</time></trkpt><trkpt lat="40.85278541445216" lon="14.577028397173713"><ele>345.0</ele><time>2026-04-19T07:10:11.998Z</time></trkpt><trkpt lat="40.85287843943153" lon="14.577170695069523"><ele>345.0</ele><time>2026-04-19T07:10:13.998Z</time></trkpt><trkpt lat="40.85293436530124" lon="14.5772428166277"><ele>345.0</ele><time>2026-04-19T07:10:14.998Z</time></trkpt><trkpt lat="40.852980749869246" lon="14.577326772769304"><ele>345.0</ele><time>2026-04-19T07:10:15.998Z</time></trkpt><trkpt lat="40.853011453885856" lon="14.577434542002848"><ele>347.5</ele><time>2026-04-19T07:10:16.998Z</time></trkpt><trkpt lat="40.85305566967232" lon="14.577527048534131"><ele>350.0</ele><time>2026-04-19T07:10:17.998Z</time></trkpt><trkpt lat="40.85308191456432" lon="14.577607168612468"><ele>352.5</ele><time>2026-04-19T07:10:18.998Z</time></trkpt><trkpt lat="40.85304859710143" lon="14.577750079015871"><ele>355.0</ele><time>2026-04-19T07:10:20.998Z</time></trkpt><trkpt lat="40.853062905659826" lon="14.577863834083077"><ele>357.5</ele><time>2026-04-19T07:10:21.998Z</time></trkpt><trkpt lat="40.853066480988964" lon="14.577962625860579"><ele>360.0</ele><time>2026-04-19T07:10:22.998Z</time></trkpt><trkpt lat="40.85306694367713" lon="14.578049779013151"><ele>360.0</ele><time>2026-04-19T07:10:23.998Z</time></trkpt><trkpt lat="40.85312251291531" lon="14.578166723751744"><ele>360.0</ele><time>2026-04-19T07:10:25.998Z</time></trkpt><trkpt lat="40.853212066829855" lon="14.57810508268933"><ele>360.0</ele><time>2026-04-19T07:10:28Z</time></trkpt><trkpt lat="40.85327594068371" lon="14.577913248917412"><ele>360.0</ele><time>2026-04-19T07:10:30Z</time></trkpt><trkpt lat="40.85331311346469" lon="14.577786223393677"><ele>360.0</ele><time>2026-04-19T07:10:31Z</time></trkpt><trkpt lat="40.853371894673906" lon="14.577706665062623"><ele>360.0</ele><time>2026-04-19T07:10:32Z</time></trkpt><trkpt lat="40.85344286049226" lon="14.577670181631841"><ele>360.0</ele><time>2026-04-19T07:10:33Z</time></trkpt><trkpt lat="40.853523920641706" lon="14.577545529988656"><ele>360.0</ele><time>2026-04-19T07:10:35Z</time></trkpt><trkpt lat="40.85351687448788" lon="14.577445436164023"><ele>360.0</ele><time>2026-04-19T07:10:36Z</time></trkpt><trkpt lat="40.8535214993372" lon="14.577352501583224"><ele>360.0</ele><time>2026-04-19T07:10:37Z</time></trkpt><trkpt lat="40.85355089742464" lon="14.577167427857445"><ele>364.5</ele><time>2026-04-19T07:10:39Z</time></trkpt><trkpt lat="40.853570277812445" lon="14.577068157928379"><ele>369.0</ele><time>2026-04-19T07:10:40Z</time></trkpt><trkpt lat="40.8535995985746" lon="14.576961539312958"><ele>373.5</ele><time>2026-04-19T07:10:41Z</time></trkpt><trkpt lat="40.85364180561575" lon="14.576869323601402"><ele>378.0</ele><time>2026-04-19T07:10:42Z</time></trkpt><trkpt lat="40.8536822496544" lon="14.576781678282526"><ele>382.5</ele><time>2026-04-19T07:10:43Z</time></trkpt><trkpt lat="40.85372849850971" lon="14.576691374469206"><ele>387.0</ele><time>2026-04-19T07:10:44Z</time></trkpt><trkpt lat="40.85378136710393" lon="14.57660157835492"><ele>387.0</ele><time>2026-04-19T07:10:44.999Z</time></trkpt><trkpt lat="40.85382655008569" lon="14.576517270654609"><ele>387.0</ele><time>2026-04-19T07:10:45.999Z</time></trkpt><trkpt lat="40.853878464061054" lon="14.576421681550826"><ele>387.0</ele><time>2026-04-19T07:10:46.999Z</time></trkpt><trkpt lat="40.85393160365096" lon="14.576332049099548"><ele>387.0</ele><time>2026-04-19T07:10:47.999Z</time></trkpt><trkpt lat="40.853988527106964" lon="14.57625378784311"><ele>387.0</ele><time>2026-04-19T07:10:48.999Z</time></trkpt><trkpt lat="40.85404104835404" lon="14.576187855979146"><ele>387.0</ele><time>2026-04-19T07:10:49.999Z</time></trkpt><trkpt lat="40.85409793028656" lon="14.576120928191804"><ele>387.1666666666667</ele><time>2026-04-19T07:10:50.999Z</time></trkpt><trkpt lat="40.85415205017806" lon="14.576046812668318"><ele>387.33333333333337</ele><time>2026-04-19T07:10:51.999Z</time></trkpt><trkpt lat="40.854211594056" lon="14.575979819820631"><ele>387.5</ele><time>2026-04-19T07:10:52.999Z</time></trkpt><trkpt lat="40.854275817302316" lon="14.57591977378209"><ele>387.6666666666667</ele><time>2026-04-19T07:10:53.999Z</time></trkpt><trkpt lat="40.854338780908535" lon="14.575864115377735"><ele>387.83333333333337</ele><time>2026-04-19T07:10:54.999Z</time></trkpt><trkpt lat="40.85440259802042" lon="14.575805214934629"><ele>388.0</ele><time>2026-04-19T07:10:55.999Z</time></trkpt><trkpt lat="40.85450417335199" lon="14.575721254495427"><ele>388.0</ele><time>2026-04-19T07:10:57.999Z</time></trkpt><trkpt lat="40.85462688453704" lon="14.575726436933223"><ele>388.0</ele><time>2026-04-19T07:10:59.999Z</time></trkpt><trkpt lat="40.85472944083618" lon="14.575805805443244"><ele>388.0</ele><time>2026-04-19T07:11:01.999Z</time></trkpt><trkpt lat="40.85481730994534" lon="14.575898869230564"><ele>388.0</ele><time>2026-04-19T07:11:03.999Z</time></trkpt><trkpt lat="40.85487909174204" lon="14.575972951247921"><ele>388.0</ele><time>2026-04-19T07:11:04.999Z</time></trkpt><trkpt lat="40.854931780893494" lon="14.576071748874725"><ele>388.0</ele><time>2026-04-19T07:11:05.999Z</time></trkpt><trkpt lat="40.854989237712594" lon="14.576169639063236"><ele>388.0</ele><time>2026-04-19T07:11:06.999Z</time></trkpt><trkpt lat="40.85505516292225" lon="14.576272976023859"><ele>388.0</ele><time>2026-04-19T07:11:07.999Z</time></trkpt><trkpt lat="40.85511481818375" lon="14.5763530044169"><ele>388.0</ele><time>2026-04-19T07:11:08.999Z</time></trkpt><trkpt lat="40.85521208089358" lon="14.57642864431127"><ele>388.0</ele><time>2026-04-19T07:11:10.999Z</time></trkpt><trkpt lat="40.85527471701581" lon="14.576420114965497"><ele>392.59999999999997</ele><time>2026-04-19T07:11:11.999Z</time></trkpt><trkpt lat="40.85534423570298" lon="14.576349147322421"><ele>397.2</ele><time>2026-04-19T07:11:13.999Z</time></trkpt><trkpt lat="40.85531354965099" lon="14.576183092565737"><ele>401.8</ele><time>2026-04-19T07:11:15.999Z</time></trkpt><trkpt lat="40.855287159103625" lon="14.576066918975448"><ele>406.4</ele><time>2026-04-19T07:11:16.999Z</time></trkpt><trkpt lat="40.85526906968191" lon="14.57595434691785"><ele>411.0</ele><time>2026-04-19T07:11:17.999Z</time></trkpt><trkpt lat="40.855244700808186" lon="14.575811728135484"><ele>411.0</ele><time>2026-04-19T07:11:18.999Z</time></trkpt><trkpt lat="40.85523213038789" lon="14.57566546051102"><ele>411.0</ele><time>2026-04-19T07:11:19.999Z</time></trkpt><trkpt lat="40.85522145356535" lon="14.575509585421608"><ele>411.0</ele><time>2026-04-19T07:11:20.999Z</time></trkpt><trkpt lat="40.8552098249898" lon="14.575364617633843"><ele>411.0</ele><time>2026-04-19T07:11:21.999Z</time></trkpt><trkpt lat="40.85519053393013" lon="14.57520298475378"><ele>410.25</ele><time>2026-04-19T07:11:22.999Z</time></trkpt><trkpt lat="40.85515961587037" lon="14.575033122552268"><ele>409.5</ele><time>2026-04-19T07:11:23.999Z</time></trkpt><trkpt lat="40.85513786492817" lon="14.574879379897627"><ele>408.75</ele><time>2026-04-19T07:11:24.999Z</time></trkpt><trkpt lat="40.85512971243759" lon="14.574744736169821"><ele>408.0</ele><time>2026-04-19T07:11:25.999Z</time></trkpt><trkpt lat="40.85511922297026" lon="14.574614065698874"><ele>407.0</ele><time>2026-04-19T07:11:26.999Z</time></trkpt><trkpt lat="40.85509951508907" lon="14.574487107292056"><ele>406.0</ele><time>2026-04-19T07:11:27.999Z</time></trkpt><trkpt lat="40.8551017030553" lon="14.574369279481537"><ele>405.0</ele><time>2026-04-19T07:11:28.999Z</time></trkpt><trkpt lat="40.85519341113624" lon="14.574243832729977"><ele>404.0</ele><time>2026-04-19T07:11:29.999Z</time></trkpt><trkpt lat="40.855198333631286" lon="14.574093630066463"><ele>403.0</ele><time>2026-04-19T07:11:30.999Z</time></trkpt><trkpt lat="40.855235879857624" lon="14.57395650510487"><ele>403.0</ele><time>2026-04-19T07:11:31.999Z</time></trkpt><trkpt lat="40.85528730577994" lon="14.57382835828335"><ele>403.0</ele><time>2026-04-19T07:11:32.999Z</time></trkpt><trkpt lat="40.85535071423074" lon="14.57369514280945"><ele>403.0</ele><time>2026-04-19T07:11:33.999Z</time></trkpt><trkpt lat="40.855429880597356" lon="14.573518226322648"><ele>403.0</ele><time>2026-04-19T07:11:34.999Z</time></trkpt><trkpt lat="40.855518040267064" lon="14.5733483558132"><ele>400.0</ele><time>2026-04-19T07:11:35.999Z</time></trkpt><trkpt lat="40.855606578390685" lon="14.573178899011372"><ele>397.0</ele><time>2026-04-19T07:11:36.999Z</time></trkpt><trkpt lat="40.855698486912935" lon="14.57301839842272"><ele>394.0</ele><time>2026-04-19T07:11:37.999Z</time></trkpt><trkpt lat="40.85579433070138" lon="14.572856387729564"><ele>394.75</ele><time>2026-04-19T07:11:38.999Z</time></trkpt><trkpt lat="40.85587938236999" lon="14.572712619627934"><ele>395.5</ele><time>2026-04-19T07:11:39.999Z</time></trkpt><trkpt lat="40.855960575234064" lon="14.572565546141359"><ele>396.25</ele><time>2026-04-19T07:11:40.999Z</time></trkpt><trkpt lat="40.856049298167676" lon="14.57244515325656"><ele>397.0</ele><time>2026-04-19T07:11:41.999Z</time></trkpt><trkpt lat="40.85615116258113" lon="14.572314409621635"><ele>397.0</ele><time>2026-04-19T07:11:42.999Z</time></trkpt><trkpt lat="40.856240308402896" lon="14.572159227539903"><ele>397.0</ele><time>2026-04-19T07:11:43.999Z</time></trkpt><trkpt lat="40.856315804531164" lon="14.572020270002348"><ele>397.0</ele><time>2026-04-19T07:11:44.999Z</time></trkpt><trkpt lat="40.856385960454084" lon="14.57190048000007"><ele>397.0</ele><time>2026-04-19T07:11:45.999Z</time></trkpt><trkpt lat="40.85645478939549" lon="14.57179371116829"><ele>394.8</ele><time>2026-04-19T07:11:46.999Z</time></trkpt><trkpt lat="40.856524467428024" lon="14.57168762031792"><ele>392.6</ele><time>2026-04-19T07:11:47.999Z</time></trkpt><trkpt lat="40.85659716009833" lon="14.571609419433411"><ele>390.40000000000003</ele><time>2026-04-19T07:11:48.999Z</time></trkpt><trkpt lat="40.8566584391221" lon="14.571558891821779"><ele>388.20000000000005</ele><time>2026-04-19T07:11:49.999Z</time></trkpt><trkpt lat="40.85674001935164" lon="14.571472929081207"><ele>386.0</ele><time>2026-04-19T07:11:51.999Z</time></trkpt><trkpt lat="40.856798780450426" lon="14.571396861341409"><ele>386.0</ele><time>2026-04-19T07:11:53.998Z</time></trkpt><trkpt lat="40.856869623183314" lon="14.57136693763011"><ele>386.0</ele><time>2026-04-19T07:11:55.998Z</time></trkpt><trkpt lat="40.85699970152099" lon="14.57135400919763"><ele>386.0</ele><time>2026-04-19T07:11:57.998Z</time></trkpt><trkpt lat="40.85710186172288" lon="14.571392438432012"><ele>386.0</ele><time>2026-04-19T07:11:58.998Z</time></trkpt><trkpt lat="40.85719142838224" lon="14.571453918889224"><ele>386.0</ele><time>2026-04-19T07:11:59.998Z</time></trkpt><trkpt lat="40.85726781793426" lon="14.571427687058922"><ele>386.0</ele><time>2026-04-19T07:12:00.998Z</time></trkpt><trkpt lat="40.85737770874827" lon="14.571409202377959"><ele>386.0</ele><time>2026-04-19T07:12:02.998Z</time></trkpt><trkpt lat="40.85738357111184" lon="14.571276641756668"><ele>386.0</ele><time>2026-04-19T07:12:04.998Z</time></trkpt><trkpt lat="40.85730396330769" lon="14.571215710448449"><ele>386.0</ele><time>2026-04-19T07:12:05.998Z</time></trkpt><trkpt lat="40.857297445109396" lon="14.571071306869907"><ele>386.0</ele><time>2026-04-19T07:12:06.998Z</time></trkpt><trkpt lat="40.85728996439188" lon="14.570985570074637"><ele>384.0</ele><time>2026-04-19T07:12:07.998Z</time></trkpt><trkpt lat="40.85732991021593" lon="14.570799778180914"><ele>382.0</ele><time>2026-04-19T07:12:09.998Z</time></trkpt><trkpt lat="40.857367062300646" lon="14.570714313697117"><ele>380.0</ele><time>2026-04-19T07:12:10.998Z</time></trkpt><trkpt lat="40.857423553403095" lon="14.570621383309962"><ele>378.0</ele><time>2026-04-19T07:12:12.998Z</time></trkpt><trkpt lat="40.85746129340521" lon="14.570441886568863"><ele>376.3333333333333</ele><time>2026-04-19T07:12:14.998Z</time></trkpt><trkpt lat="40.85749046267099" lon="14.570282480280227"><ele>374.66666666666663</ele><time>2026-04-19T07:12:15.998Z</time></trkpt><trkpt lat="40.85752052345692" lon="14.570062281125784"><ele>373.0</ele><time>2026-04-19T07:12:16.998Z</time></trkpt><trkpt lat="40.85754965608504" lon="14.56985692670243"><ele>373.0</ele><time>2026-04-19T07:12:17.998Z</time></trkpt><trkpt lat="40.857569543071605" lon="14.569708754356116"><ele>373.0</ele><time>2026-04-19T07:12:18.998Z</time></trkpt><trkpt lat="40.85759443017527" lon="14.5695340967156"><ele>373.0</ele><time>2026-04-19T07:12:19.998Z</time></trkpt><trkpt lat="40.85761769250551" lon="14.569357930325506"><ele>373.0</ele><time>2026-04-19T07:12:20.998Z</time></trkpt><trkpt lat="40.85764047962697" lon="14.569203794301728"><ele>373.4</ele><time>2026-04-19T07:12:21.998Z</time></trkpt><trkpt lat="40.857663497342024" lon="14.569054297492574"><ele>373.79999999999995</ele><time>2026-04-19T07:12:22.998Z</time></trkpt><trkpt lat="40.85768171707303" lon="14.568914364327718"><ele>374.2</ele><time>2026-04-19T07:12:23.998Z</time></trkpt><trkpt lat="40.85768852171626" lon="14.56877338480774"><ele>374.6</ele><time>2026-04-19T07:12:24.998Z</time></trkpt><trkpt lat="40.85765430632726" lon="14.56864817479536"><ele>375.0</ele><time>2026-04-19T07:12:25.998Z</time></trkpt><trkpt lat="40.85763813164354" lon="14.568550497105933"><ele>372.5</ele><time>2026-04-19T07:12:26.998Z</time></trkpt><trkpt lat="40.85761984027787" lon="14.568419705806694"><ele>370.0</ele><time>2026-04-19T07:12:28.998Z</time></trkpt><trkpt lat="40.85760981395177" lon="14.568328810865614"><ele>367.5</ele><time>2026-04-19T07:12:30.998Z</time></trkpt><trkpt lat="40.85764792126841" lon="14.568245075971099"><ele>365.0</ele><time>2026-04-19T07:12:33Z</time></trkpt><trkpt lat="40.857709893615215" lon="14.568213284392348"><ele>362.5</ele><time>2026-04-19T07:12:34Z</time></trkpt><trkpt lat="40.8577783756088" lon="14.56820910386188"><ele>360.0</ele><time>2026-04-19T07:12:35Z</time></trkpt><trkpt lat="40.857909513788606" lon="14.568231554934936"><ele>359.4</ele><time>2026-04-19T07:12:37Z</time></trkpt><trkpt lat="40.85797527321108" lon="14.568291983458087"><ele>358.8</ele><time>2026-04-19T07:12:38Z</time></trkpt><trkpt lat="40.85803848736927" lon="14.568397116711946"><ele>358.20000000000005</ele><time>2026-04-19T07:12:39Z</time></trkpt><trkpt lat="40.85812386390924" lon="14.568515715899292"><ele>357.6</ele><time>2026-04-19T07:12:40Z</time></trkpt><trkpt lat="40.85821004194255" lon="14.568603567693637"><ele>357.0</ele><time>2026-04-19T07:12:41Z</time></trkpt><trkpt lat="40.85829466170951" lon="14.568646985167723"><ele>357.0</ele><time>2026-04-19T07:12:42Z</time></trkpt><trkpt lat="40.858387929863866" lon="14.568639338278103"><ele>357.0</ele><time>2026-04-19T07:12:43Z</time></trkpt><trkpt lat="40.85847392652127" lon="14.568598870305522"><ele>357.0</ele><time>2026-04-19T07:12:44Z</time></trkpt><trkpt lat="40.85856490493281" lon="14.568572524617972"><ele>357.0</ele><time>2026-04-19T07:12:45Z</time></trkpt><trkpt lat="40.85865904056424" lon="14.56857998910122"><ele>357.0</ele><time>2026-04-19T07:12:46Z</time></trkpt><trkpt lat="40.858756383023696" lon="14.56860396272664"><ele>357.6</ele><time>2026-04-19T07:12:47Z</time></trkpt><trkpt lat="40.85886278401323" lon="14.568648422635857"><ele>358.20000000000005</ele><time>2026-04-19T07:12:48Z</time></trkpt><trkpt lat="40.85896371703407" lon="14.568697329658141"><ele>358.8</ele><time>2026-04-19T07:12:49Z</time></trkpt><trkpt lat="40.85904449977403" lon="14.568753392641428"><ele>359.4</ele><time>2026-04-19T07:12:50Z</time></trkpt><trkpt lat="40.859112876554974" lon="14.56883498909634"><ele>360.0</ele><time>2026-04-19T07:12:51Z</time></trkpt><trkpt lat="40.85920005164209" lon="14.568953964855664"><ele>361.0</ele><time>2026-04-19T07:12:52Z</time></trkpt><trkpt lat="40.8592968216029" lon="14.569070499999626"><ele>362.0</ele><time>2026-04-19T07:12:53Z</time></trkpt><trkpt lat="40.85936371689379" lon="14.569159601794508"><ele>363.0</ele><time>2026-04-19T07:12:54Z</time></trkpt><trkpt lat="40.85942807510877" lon="14.56924682414319"><ele>364.0</ele><time>2026-04-19T07:12:55Z</time></trkpt><trkpt lat="40.8594899605839" lon="14.56935843335874"><ele>365.0</ele><time>2026-04-19T07:12:56Z</time></trkpt><trkpt lat="40.85953340352903" lon="14.569489121199139"><ele>368.6</ele><time>2026-04-19T07:12:57Z</time></trkpt><trkpt lat="40.85955582477907" lon="14.569640830658006"><ele>372.2</ele><time>2026-04-19T07:12:58Z</time></trkpt><trkpt lat="40.85956757074438" lon="14.569791123204674"><ele>375.79999999999995</ele><time>2026-04-19T07:12:59Z</time></trkpt><trkpt lat="40.85959807242691" lon="14.569918970236351"><ele>379.4</ele><time>2026-04-19T07:12:59.999Z</time></trkpt><trkpt lat="40.85964661849259" lon="14.570021284103147"><ele>383.0</ele><time>2026-04-19T07:13:00.999Z</time></trkpt><trkpt lat="40.85971184619314" lon="14.57011504438331"><ele>383.0</ele><time>2026-04-19T07:13:01.999Z</time></trkpt><trkpt lat="40.8597731816275" lon="14.570203397901844"><ele>383.0</ele><time>2026-04-19T07:13:02.999Z</time></trkpt><trkpt lat="40.85982367085134" lon="14.570294296569879"><ele>383.0</ele><time>2026-04-19T07:13:03.999Z</time></trkpt><trkpt lat="40.85985579806605" lon="14.57042226993678"><ele>383.0</ele><time>2026-04-19T07:13:04.999Z</time></trkpt><trkpt lat="40.85987449882284" lon="14.570566224442969"><ele>383.0</ele><time>2026-04-19T07:13:05.999Z</time></trkpt><trkpt lat="40.85989447398231" lon="14.57071877377446"><ele>387.25</ele><time>2026-04-19T07:13:06.999Z</time></trkpt><trkpt lat="40.85994111346003" lon="14.570879566538691"><ele>391.5</ele><time>2026-04-19T07:13:07.999Z</time></trkpt><trkpt lat="40.85999227138269" lon="14.571038512678967"><ele>395.75</ele><time>2026-04-19T07:13:08.999Z</time></trkpt><trkpt lat="40.86002824370498" lon="14.571163599734028"><ele>400.0</ele><time>2026-04-19T07:13:09.999Z</time></trkpt><trkpt lat="40.86005754899212" lon="14.5712799512941"><ele>398.6</ele><time>2026-04-19T07:13:10.999Z</time></trkpt><trkpt lat="40.86008398368604" lon="14.571403231747903"><ele>397.2</ele><time>2026-04-19T07:13:11.999Z</time></trkpt><trkpt lat="40.86011202637362" lon="14.571533092217908"><ele>395.79999999999995</ele><time>2026-04-19T07:13:12.999Z</time></trkpt><trkpt lat="40.86015389332217" lon="14.571664802340367"><ele>394.4</ele><time>2026-04-19T07:13:13.999Z</time></trkpt><trkpt lat="40.86018114510603" lon="14.571781081366435"><ele>393.0</ele><time>2026-04-19T07:13:14.999Z</time></trkpt><trkpt lat="40.86020542992248" lon="14.571892368371213"><ele>393.0</ele><time>2026-04-19T07:13:15.999Z</time></trkpt><trkpt lat="40.86021504995927" lon="14.572022846250288"><ele>393.0</ele><time>2026-04-19T07:13:16.999Z</time></trkpt><trkpt lat="40.8602357178858" lon="14.572138705073126"><ele>393.0</ele><time>2026-04-19T07:13:17.999Z</time></trkpt><trkpt lat="40.860211794578824" lon="14.572270189541326"><ele>393.0</ele><time>2026-04-19T07:13:18.999Z</time></trkpt><trkpt lat="40.86017657393272" lon="14.572396880554466"><ele>393.0</ele><time>2026-04-19T07:13:19.999Z</time></trkpt><trkpt lat="40.86013631626962" lon="14.572489812483104"><ele>397.79999999999995</ele><time>2026-04-19T07:13:20.999Z</time></trkpt><trkpt lat="40.86010168107734" lon="14.57257597331286"><ele>402.6</ele><time>2026-04-19T07:13:21.999Z</time></trkpt><trkpt lat="40.86003437287171" lon="14.572655398376885"><ele>407.4</ele><time>2026-04-19T07:13:22.999Z</time></trkpt><trkpt lat="40.85999183684048" lon="14.572785267547077"><ele>412.20000000000005</ele><time>2026-04-19T07:13:23.999Z</time></trkpt><trkpt lat="40.85993078151285" lon="14.57289815335032"><ele>417.0</ele><time>2026-04-19T07:13:24.999Z</time></trkpt><trkpt lat="40.85986221115712" lon="14.573012718077601"><ele>417.0</ele><time>2026-04-19T07:13:25.999Z</time></trkpt><trkpt lat="40.859796421303216" lon="14.573108989936639"><ele>417.0</ele><time>2026-04-19T07:13:26.999Z</time></trkpt><trkpt lat="40.8597310792312" lon="14.573210265060654"><ele>417.0</ele><time>2026-04-19T07:13:27.999Z</time></trkpt><trkpt lat="40.85967754453701" lon="14.5733338495971"><ele>417.0</ele><time>2026-04-19T07:13:28.999Z</time></trkpt><trkpt lat="40.85963121798838" lon="14.573460863001964"><ele>417.0</ele><time>2026-04-19T07:13:29.999Z</time></trkpt><trkpt lat="40.85960891746334" lon="14.573604234581438"><ele>416.40000000000003</ele><time>2026-04-19T07:13:30.999Z</time></trkpt><trkpt lat="40.859562470299586" lon="14.573732541415682"><ele>415.8</ele><time>2026-04-19T07:13:31.999Z</time></trkpt><trkpt lat="40.859540150486914" lon="14.573862227748812"><ele>415.2</ele><time>2026-04-19T07:13:32.999Z</time></trkpt><trkpt lat="40.85951340706739" lon="14.573996484444951"><ele>414.6</ele><time>2026-04-19T07:13:33.999Z</time></trkpt><trkpt lat="40.85948874832367" lon="14.57410798469413"><ele>414.0</ele><time>2026-04-19T07:13:34.999Z</time></trkpt><trkpt lat="40.85945873621443" lon="14.574239402025183"><ele>414.0</ele><time>2026-04-19T07:13:35.999Z</time></trkpt><trkpt lat="40.859395553788744" lon="14.574359091399105"><ele>414.0</ele><time>2026-04-19T07:13:36.999Z</time></trkpt><trkpt lat="40.85933259902479" lon="14.574449614237903"><ele>414.0</ele><time>2026-04-19T07:13:37.999Z</time></trkpt><trkpt lat="40.85928042077881" lon="14.574553243470778"><ele>414.0</ele><time>2026-04-19T07:13:38.999Z</time></trkpt><trkpt lat="40.85920060563741" lon="14.57456152355427"><ele>414.0</ele><time>2026-04-19T07:13:39.999Z</time></trkpt><trkpt lat="40.85929683316818" lon="14.574832274443782"><ele>417.0</ele><time>2026-04-19T07:13:40.999Z</time></trkpt><trkpt lat="40.859266654578406" lon="14.574964722749415"><ele>420.0</ele><time>2026-04-19T07:13:41.999Z</time></trkpt><trkpt lat="40.85922011241398" lon="14.575102322228256"><ele>423.0</ele><time>2026-04-19T07:13:42.999Z</time></trkpt><trkpt lat="40.85918434606938" lon="14.575227117185175"><ele>426.0</ele><time>2026-04-19T07:13:43.999Z</time></trkpt><trkpt lat="40.85913819500895" lon="14.57535414590891"><ele>429.0</ele><time>2026-04-19T07:13:44.999Z</time></trkpt><trkpt lat="40.859097872959246" lon="14.57547233177698"><ele>429.0</ele><time>2026-04-19T07:13:45.999Z</time></trkpt><trkpt lat="40.859064171874124" lon="14.575588477132637"><ele>429.0</ele><time>2026-04-19T07:13:46.999Z</time></trkpt><trkpt lat="40.85903309590891" lon="14.575721271462973"><ele>429.0</ele><time>2026-04-19T07:13:47.999Z</time></trkpt><trkpt lat="40.85899321539" lon="14.575855184992584"><ele>429.0</ele><time>2026-04-19T07:13:48.999Z</time></trkpt><trkpt lat="40.85895857407696" lon="14.575965871144804"><ele>429.0</ele><time>2026-04-19T07:13:49.999Z</time></trkpt><trkpt lat="40.85893924015689" lon="14.576046869954865"><ele>429.0</ele><time>2026-04-19T07:13:50.999Z</time></trkpt><trkpt lat="40.858942837724484" lon="14.576154400684432"><ele>429.0</ele><time>2026-04-19T07:13:51.999Z</time></trkpt><trkpt lat="40.85896760500985" lon="14.576271646002137"><ele>429.0</ele><time>2026-04-19T07:13:52.999Z</time></trkpt><trkpt lat="40.85899688713492" lon="14.576402092134307"><ele>429.0</ele><time>2026-04-19T07:13:53.999Z</time></trkpt><trkpt lat="40.85898908754131" lon="14.576550844072473"><ele>429.0</ele><time>2026-04-19T07:13:55.999Z</time></trkpt><trkpt lat="40.85895149209836" lon="14.57662926294364"><ele>430.75</ele><time>2026-04-19T07:13:56.999Z</time></trkpt><trkpt lat="40.858939106691395" lon="14.576796522327745"><ele>432.5</ele><time>2026-04-19T07:13:58.999Z</time></trkpt><trkpt lat="40.85891546708236" lon="14.576964667642248"><ele>434.25</ele><time>2026-04-19T07:14:00.999Z</time></trkpt><trkpt lat="40.858867723747025" lon="14.577128905061864"><ele>436.0</ele><time>2026-04-19T07:14:02.999Z</time></trkpt><trkpt lat="40.85885118977297" lon="14.577214157190589"><ele>439.0</ele><time>2026-04-19T07:14:03.999Z</time></trkpt><trkpt lat="40.8588841795021" lon="14.577287167533683"><ele>442.0</ele><time>2026-04-19T07:14:06.998Z</time></trkpt><trkpt lat="40.858997310341366" lon="14.577300214496837"><ele>445.0</ele><time>2026-04-19T07:14:08.998Z</time></trkpt><trkpt lat="40.859138787445936" lon="14.577480283618296"><ele>448.0</ele><time>2026-04-19T07:14:11.998Z</time></trkpt><trkpt lat="40.85916281890245" lon="14.577647383659595"><ele>448.00000000000006</ele><time>2026-04-19T07:14:13.998Z</time></trkpt><trkpt lat="40.85917131815496" lon="14.57777861179859"><ele>448.0</ele><time>2026-04-19T07:14:14.998Z</time></trkpt><trkpt lat="40.85917189293318" lon="14.577908990581093"><ele>448.0</ele><time>2026-04-19T07:14:15.998Z</time></trkpt><trkpt lat="40.85917250997852" lon="14.578006094866542"><ele>448.0</ele><time>2026-04-19T07:14:16.998Z</time></trkpt><trkpt lat="40.85918701939587" lon="14.578095681716304"><ele>448.00000000000006</ele><time>2026-04-19T07:14:17.998Z</time></trkpt><trkpt lat="40.859274992705934" lon="14.578069197907125"><ele>448.0</ele><time>2026-04-19T07:14:19.998Z</time></trkpt><trkpt lat="40.859406258737714" lon="14.577984587160246"><ele>448.59999999999997</ele><time>2026-04-19T07:14:21.998Z</time></trkpt><trkpt lat="40.85952388592829" lon="14.57799388940151"><ele>449.19999999999993</ele><time>2026-04-19T07:14:23.998Z</time></trkpt><trkpt lat="40.859545435072675" lon="14.578171487472392"><ele>449.8</ele><time>2026-04-19T07:14:25.998Z</time></trkpt><trkpt lat="40.859533330124265" lon="14.578303376441522"><ele>450.4</ele><time>2026-04-19T07:14:26.998Z</time></trkpt><trkpt lat="40.859535208396416" lon="14.578417695254515"><ele>451.0</ele><time>2026-04-19T07:14:27.998Z</time></trkpt><trkpt lat="40.85962983975767" lon="14.578448186040701"><ele>451.0</ele><time>2026-04-19T07:14:29.998Z</time></trkpt><trkpt lat="40.8597001281807" lon="14.57840526181682"><ele>451.0</ele><time>2026-04-19T07:14:30.998Z</time></trkpt><trkpt lat="40.85976511028624" lon="14.578393359668596"><ele>451.0</ele><time>2026-04-19T07:14:31.998Z</time></trkpt><trkpt lat="40.85984694415329" lon="14.578523125203615"><ele>451.0</ele><time>2026-04-19T07:14:33.998Z</time></trkpt><trkpt lat="40.85988677508881" lon="14.578644298731458"><ele>451.0</ele><time>2026-04-19T07:14:34.998Z</time></trkpt><trkpt lat="40.859958168114794" lon="14.578770068473881"><ele>452.8</ele><time>2026-04-19T07:14:36.998Z</time></trkpt><trkpt lat="40.8600324941842" lon="14.57876361513751"><ele>454.6</ele><time>2026-04-19T07:14:37.998Z</time></trkpt><trkpt lat="40.86011771109134" lon="14.578694654629498"><ele>456.4</ele><time>2026-04-19T07:14:39Z</time></trkpt><trkpt lat="40.860232804508556" lon="14.578631972348886"><ele>458.2</ele><time>2026-04-19T07:14:40Z</time></trkpt><trkpt lat="40.86030997361221" lon="14.578592310476962"><ele>460.0</ele><time>2026-04-19T07:14:41Z</time></trkpt><trkpt lat="40.860399223363835" lon="14.578486827744571"><ele>460.0</ele><time>2026-04-19T07:14:43Z</time></trkpt><trkpt lat="40.860401182694886" lon="14.578394832265026"><ele>460.0</ele><time>2026-04-19T07:14:44Z</time></trkpt><trkpt lat="40.86043112113488" lon="14.578292228730097"><ele>460.0</ele><time>2026-04-19T07:14:45Z</time></trkpt><trkpt lat="40.86056947768249" lon="14.578193896497508"><ele>460.0</ele><time>2026-04-19T07:14:47Z</time></trkpt><trkpt lat="40.86066780578656" lon="14.578161016610345"><ele>460.0</ele><time>2026-04-19T07:14:48Z</time></trkpt><trkpt lat="40.86075964640419" lon="14.578103116524368"><ele>460.00000000000006</ele><time>2026-04-19T07:14:49Z</time></trkpt><trkpt lat="40.86085960689383" lon="14.578055480244359"><ele>460.0</ele><time>2026-04-19T07:14:50Z</time></trkpt><trkpt lat="40.86093831753547" lon="14.578022677751807"><ele>460.0</ele><time>2026-04-19T07:14:51Z</time></trkpt><trkpt lat="40.86100652324809" lon="14.578027785281616"><ele>460.0</ele><time>2026-04-19T07:14:52Z</time></trkpt><trkpt lat="40.86107961903783" lon="14.578051830958163"><ele>460.00000000000006</ele><time>2026-04-19T07:14:53Z</time></trkpt><trkpt lat="40.861152954008695" lon="14.578103674746442"><ele>460.0</ele><time>2026-04-19T07:14:54Z</time></trkpt><trkpt lat="40.86122104004355" lon="14.57815623001785"><ele>459.6</ele><time>2026-04-19T07:14:55Z</time></trkpt><trkpt lat="40.861325380566214" lon="14.57807936843186"><ele>459.2</ele><time>2026-04-19T07:14:57Z</time></trkpt><trkpt lat="40.861358263858556" lon="14.57796923872522"><ele>458.79999999999995</ele><time>2026-04-19T07:14:58Z</time></trkpt><trkpt lat="40.861387351480104" lon="14.577854183795067"><ele>458.4</ele><time>2026-04-19T07:14:59Z</time></trkpt><trkpt lat="40.86150120826324" lon="14.577802108377718"><ele>458.0</ele><time>2026-04-19T07:15:01Z</time></trkpt><trkpt lat="40.861581935196504" lon="14.577880625398432"><ele>458.0</ele><time>2026-04-19T07:15:03Z</time></trkpt><trkpt lat="40.86157610540433" lon="14.578030114550637"><ele>457.99999999999994</ele><time>2026-04-19T07:15:05Z</time></trkpt><trkpt lat="40.86153581724292" lon="14.578119575710891"><ele>457.99999999999994</ele><time>2026-04-19T07:15:06Z</time></trkpt><trkpt lat="40.86148085995269" lon="14.57821673915532"><ele>458.0</ele><time>2026-04-19T07:15:07Z</time></trkpt><trkpt lat="40.861455431881055" lon="14.578311839457445"><ele>458.0</ele><time>2026-04-19T07:15:08Z</time></trkpt><trkpt lat="40.86140393602619" lon="14.578469276514646"><ele>458.0</ele><time>2026-04-19T07:15:10Z</time></trkpt><trkpt lat="40.861329344950825" lon="14.578563113347464"><ele>457.99999999999994</ele><time>2026-04-19T07:15:11Z</time></trkpt><trkpt lat="40.861278656777365" lon="14.578653028602654"><ele>457.99999999999994</ele><time>2026-04-19T07:15:12Z</time></trkpt><trkpt lat="40.861233671913084" lon="14.57877335568131"><ele>458.0</ele><time>2026-04-19T07:15:13Z</time></trkpt><trkpt lat="40.86121340656542" lon="14.57890593541766"><ele>458.0</ele><time>2026-04-19T07:15:14Z</time></trkpt><trkpt lat="40.861207856758" lon="14.579034244191973"><ele>458.2</ele><time>2026-04-19T07:15:15Z</time></trkpt><trkpt lat="40.861180768932854" lon="14.579217252740406"><ele>458.4</ele><time>2026-04-19T07:15:16.999Z</time></trkpt><trkpt lat="40.86114486187729" lon="14.57931542494623"><ele>458.59999999999997</ele><time>2026-04-19T07:15:17.999Z</time></trkpt><trkpt lat="40.86110338865139" lon="14.579399719431395"><ele>458.79999999999995</ele><time>2026-04-19T07:15:18.999Z</time></trkpt><trkpt lat="40.86104786618827" lon="14.579492449009464"><ele>459.0</ele><time>2026-04-19T07:15:19.999Z</time></trkpt><trkpt lat="40.86100114510922" lon="14.579599344297437"><ele>459.0</ele><time>2026-04-19T07:15:20.999Z</time></trkpt><trkpt lat="40.86097794351052" lon="14.579698541727646"><ele>459.0</ele><time>2026-04-19T07:15:21.999Z</time></trkpt><trkpt lat="40.860955042123074" lon="14.579809079360155"><ele>459.0</ele><time>2026-04-19T07:15:22.999Z</time></trkpt><trkpt lat="40.86093100686959" lon="14.579917455408163"><ele>459.0</ele><time>2026-04-19T07:15:23.999Z</time></trkpt><trkpt lat="40.86090192361939" lon="14.580002360982226"><ele>459.0</ele><time>2026-04-19T07:15:24.999Z</time></trkpt><trkpt lat="40.86089834817367" lon="14.580149006353484"><ele>459.0</ele><time>2026-04-19T07:15:25.999Z</time></trkpt><trkpt lat="40.86092285845252" lon="14.58028855474984"><ele>462.0</ele><time>2026-04-19T07:15:27.999Z</time></trkpt><trkpt lat="40.860953832897216" lon="14.580417211852524"><ele>465.0</ele><time>2026-04-19T07:15:28.999Z</time></trkpt><trkpt lat="40.860966001551766" lon="14.5805254562465"><ele>468.0</ele><time>2026-04-19T07:15:29.999Z</time></trkpt><trkpt lat="40.86095584887968" lon="14.580634153025677"><ele>471.0</ele><time>2026-04-19T07:15:30.999Z</time></trkpt><trkpt lat="40.86089814499697" lon="14.5806923554415"><ele>474.0</ele><time>2026-04-19T07:15:32.999Z</time></trkpt><trkpt lat="40.86076748902369" lon="14.580668857162115"><ele>478.0</ele><time>2026-04-19T07:15:34.999Z</time></trkpt><trkpt lat="40.86067414363639" lon="14.58064668262172"><ele>482.0</ele><time>2026-04-19T07:15:35.999Z</time></trkpt><trkpt lat="40.86058055492916" lon="14.580618675015613"><ele>486.0</ele><time>2026-04-19T07:15:36.999Z</time></trkpt><trkpt lat="40.860515848243836" lon="14.580721081499373"><ele>490.0</ele><time>2026-04-19T07:15:38.999Z</time></trkpt><trkpt lat="40.86047253313745" lon="14.580804010531317"><ele>494.0</ele><time>2026-04-19T07:15:39.999Z</time></trkpt><trkpt lat="40.86042467510316" lon="14.580898417754577"><ele>493.99999999999994</ele><time>2026-04-19T07:15:40.999Z</time></trkpt><trkpt lat="40.8603945973209" lon="14.58101855368206"><ele>494.0</ele><time>2026-04-19T07:15:42.999Z</time></trkpt><trkpt lat="40.86038029570985" lon="14.581109247605248"><ele>494.0</ele><time>2026-04-19T07:15:43.999Z</time></trkpt><trkpt lat="40.860410536200696" lon="14.58119687928248"><ele>494.0</ele><time>2026-04-19T07:15:44.999Z</time></trkpt><trkpt lat="40.860531371467985" lon="14.581177652282598"><ele>493.99999999999994</ele><time>2026-04-19T07:15:46.999Z</time></trkpt><trkpt lat="40.860609536213175" lon="14.581185105809901"><ele>494.0</ele><time>2026-04-19T07:15:47.999Z</time></trkpt><trkpt lat="40.86066481735552" lon="14.581229222906217"><ele>494.3333333333333</ele><time>2026-04-19T07:15:48.999Z</time></trkpt><trkpt lat="40.86071459197122" lon="14.581322682335825"><ele>494.66666666666663</ele><time>2026-04-19T07:15:50.999Z</time></trkpt><trkpt lat="40.860755330346294" lon="14.58139065045823"><ele>495.0</ele><time>2026-04-19T07:15:51.999Z</time></trkpt><trkpt lat="40.8608070096531" lon="14.581451987303401"><ele>495.33333333333337</ele><time>2026-04-19T07:15:52.999Z</time></trkpt><trkpt lat="40.860874721230154" lon="14.5815540127887"><ele>495.6666666666667</ele><time>2026-04-19T07:15:54.999Z</time></trkpt><trkpt lat="40.860915010962714" lon="14.581637381594325"><ele>496.0</ele><time>2026-04-19T07:15:55.999Z</time></trkpt><trkpt lat="40.8609627393039" lon="14.581747942158874"><ele>496.00000000000006</ele><time>2026-04-19T07:15:56.999Z</time></trkpt><trkpt lat="40.86098174846766" lon="14.581852687804199"><ele>496.0</ele><time>2026-04-19T07:15:57.999Z</time></trkpt><trkpt lat="40.86098417592343" lon="14.581966319265428"><ele>496.0</ele><time>2026-04-19T07:15:58.999Z</time></trkpt><trkpt lat="40.860950088553025" lon="14.582039126942103"><ele>496.0</ele><time>2026-04-19T07:16:00.999Z</time></trkpt><trkpt lat="40.860862888167354" lon="14.582022831225656"><ele>496.00000000000006</ele><time>2026-04-19T07:16:03.999Z</time></trkpt><trkpt lat="40.8607895533033" lon="14.582062240310144"><ele>496.0</ele><time>2026-04-19T07:16:06.999Z</time></trkpt><trkpt lat="40.860723990488" lon="14.582064916636797"><ele>499.50000000000006</ele><time>2026-04-19T07:16:08.999Z</time></trkpt><trkpt lat="40.860598882342465" lon="14.582072818103006"><ele>503.0</ele><time>2026-04-19T07:16:10.999Z</time></trkpt><trkpt lat="40.86053172796952" lon="14.582061587011768"><ele>506.5</ele><time>2026-04-19T07:16:11.999Z</time></trkpt><trkpt lat="40.860471540263156" lon="14.582089121096317"><ele>510.0</ele><time>2026-04-19T07:16:12.999Z</time></trkpt><trkpt lat="40.860390293176096" lon="14.582074667192227"><ele>513.5</ele><time>2026-04-19T07:16:13.999Z</time></trkpt><trkpt lat="40.86032568726172" lon="14.582036135180596"><ele>517.0</ele><time>2026-04-19T07:16:14.999Z</time></trkpt><trkpt lat="40.86024725674673" lon="14.58201136994254"><ele>521.0</ele><time>2026-04-19T07:16:15.999Z</time></trkpt><trkpt lat="40.860025132356036" lon="14.581940175131537"><ele>525.0</ele><time>2026-04-19T07:16:17.999Z</time></trkpt><trkpt lat="40.85996398544079" lon="14.581914631839515"><ele>529.0</ele><time>2026-04-19T07:16:19.999Z</time></trkpt><trkpt lat="40.859934469123225" lon="14.581999967425944"><ele>533.0</ele><time>2026-04-19T07:16:23.998Z</time></trkpt><trkpt lat="40.8599918689749" lon="14.582056650446495"><ele>537.0</ele><time>2026-04-19T07:16:24.998Z</time></trkpt><trkpt lat="40.8600607867356" lon="14.582083608719362"><ele>537.6</ele><time>2026-04-19T07:16:25.998Z</time></trkpt><trkpt lat="40.860133796973315" lon="14.582087318127646"><ele>538.2</ele><time>2026-04-19T07:16:26.998Z</time></trkpt><trkpt lat="40.860227203878985" lon="14.582090553874886"><ele>538.8</ele><time>2026-04-19T07:16:27.998Z</time></trkpt><trkpt lat="40.86031991246561" lon="14.582111474352025"><ele>539.4</ele><time>2026-04-19T07:16:28.998Z</time></trkpt><trkpt lat="40.8604157896179" lon="14.582166431635354"><ele>540.0</ele><time>2026-04-19T07:16:29.998Z</time></trkpt><trkpt lat="40.860516278887346" lon="14.582254714998877"><ele>540.0</ele><time>2026-04-19T07:16:30.998Z</time></trkpt><trkpt lat="40.86059915678875" lon="14.582334142981045"><ele>540.0</ele><time>2026-04-19T07:16:31.998Z</time></trkpt><trkpt lat="40.86063698327619" lon="14.582441030483233"><ele>540.0</ele><time>2026-04-19T07:16:32.998Z</time></trkpt><trkpt lat="40.860698425625486" lon="14.582537751221679"><ele>540.0</ele><time>2026-04-19T07:16:33.998Z</time></trkpt><trkpt lat="40.860760689266165" lon="14.582637830820211"><ele>540.0</ele><time>2026-04-19T07:16:34.998Z</time></trkpt><trkpt lat="40.860808771013446" lon="14.58273474226145"><ele>540.0</ele><time>2026-04-19T07:16:35.998Z</time></trkpt><trkpt lat="40.860866288709616" lon="14.582787497717403"><ele>540.0</ele><time>2026-04-19T07:16:36.998Z</time></trkpt><trkpt lat="40.8609285541364" lon="14.582849415061748"><ele>540.0</ele><time>2026-04-19T07:16:37.998Z</time></trkpt><trkpt lat="40.860970613539116" lon="14.582922816944393"><ele>540.0</ele><time>2026-04-19T07:16:38.998Z</time></trkpt><trkpt lat="40.86098999522143" lon="14.58303894502755"><ele>540.0</ele><time>2026-04-19T07:16:39.998Z</time></trkpt><trkpt lat="40.86103620583468" lon="14.583158176444588"><ele>540.0</ele><time>2026-04-19T07:16:40.998Z</time></trkpt><trkpt lat="40.8610660226277" lon="14.583295268426815"><ele>538.5</ele><time>2026-04-19T07:16:41.998Z</time></trkpt><trkpt lat="40.86109347470451" lon="14.583406863352678"><ele>537.0</ele><time>2026-04-19T07:16:42.998Z</time></trkpt><trkpt lat="40.86109717941679" lon="14.583497081295697"><ele>535.5</ele><time>2026-04-19T07:16:43.998Z</time></trkpt><trkpt lat="40.861077733410696" lon="14.583612997791885"><ele>534.0</ele><time>2026-04-19T07:16:45Z</time></trkpt><trkpt lat="40.86105930394962" lon="14.583722868965326"><ele>532.5</ele><time>2026-04-19T07:16:46Z</time></trkpt><trkpt lat="40.86103260893448" lon="14.583816139387345"><ele>531.0</ele><time>2026-04-19T07:16:47Z</time></trkpt><trkpt lat="40.860984780038336" lon="14.58373834737898"><ele>531.0</ele><time>2026-04-19T07:16:49Z</time></trkpt><trkpt lat="40.86099520469795" lon="14.583607584076454"><ele>531.0</ele><time>2026-04-19T07:16:51Z</time></trkpt><trkpt lat="40.86096437612267" lon="14.583503802851709"><ele>531.0</ele><time>2026-04-19T07:16:52Z</time></trkpt><trkpt lat="40.86092149803799" lon="14.583435222949749"><ele>531.0</ele><time>2026-04-19T07:16:53Z</time></trkpt><trkpt lat="40.86085867331716" lon="14.583360911508516"><ele>531.0</ele><time>2026-04-19T07:16:54Z</time></trkpt><trkpt lat="40.86081263547095" lon="14.583268826257706"><ele>531.0</ele><time>2026-04-19T07:16:55Z</time></trkpt><trkpt lat="40.86075260753645" lon="14.583200792432711"><ele>532.5</ele><time>2026-04-19T07:16:56Z</time></trkpt><trkpt lat="40.860681910042516" lon="14.583154613531478"><ele>534.0</ele><time>2026-04-19T07:16:57Z</time></trkpt><trkpt lat="40.86059570790064" lon="14.583115871139043"><ele>535.5</ele><time>2026-04-19T07:16:58Z</time></trkpt><trkpt lat="40.86052738953147" lon="14.583039595539669"><ele>537.0</ele><time>2026-04-19T07:16:59Z</time></trkpt><trkpt lat="40.860451768473354" lon="14.582963428794013"><ele>538.5</ele><time>2026-04-19T07:17:00Z</time></trkpt><trkpt lat="40.86037535362358" lon="14.582890191638466"><ele>540.0</ele><time>2026-04-19T07:17:01Z</time></trkpt><trkpt lat="40.860288257319525" lon="14.582820873753645"><ele>540.0</ele><time>2026-04-19T07:17:02Z</time></trkpt><trkpt lat="40.860203249459424" lon="14.58276708584658"><ele>540.0</ele><time>2026-04-19T07:17:03Z</time></trkpt><trkpt lat="40.86010706797388" lon="14.582713569303072"><ele>540.0</ele><time>2026-04-19T07:17:04Z</time></trkpt><trkpt lat="40.860011973623536" lon="14.582702295640486"><ele>540.0</ele><time>2026-04-19T07:17:05Z</time></trkpt><trkpt lat="40.859927566523815" lon="14.582728820982695"><ele>540.0</ele><time>2026-04-19T07:17:06Z</time></trkpt><trkpt lat="40.859820177472315" lon="14.582775312804308"><ele>543.0</ele><time>2026-04-19T07:17:07Z</time></trkpt><trkpt lat="40.85974081648503" lon="14.582808007128834"><ele>546.0</ele><time>2026-04-19T07:17:08Z</time></trkpt><trkpt lat="40.85966439985667" lon="14.582844639240296"><ele>549.0</ele><time>2026-04-19T07:17:10Z</time></trkpt><trkpt lat="40.85969892347749" lon="14.582946693358858"><ele>552.0</ele><time>2026-04-19T07:17:12Z</time></trkpt><trkpt lat="40.859760377861875" lon="14.582984133439448"><ele>555.0</ele><time>2026-04-19T07:17:13Z</time></trkpt><trkpt lat="40.859872032431014" lon="14.583050639947807"><ele>558.0</ele><time>2026-04-19T07:17:15Z</time></trkpt><trkpt lat="40.859993871865484" lon="14.583148380523541"><ele>558.1999999999999</ele><time>2026-04-19T07:17:16Z</time></trkpt><trkpt lat="40.860088209553254" lon="14.583233310986621"><ele>558.4</ele><time>2026-04-19T07:17:17Z</time></trkpt><trkpt lat="40.8601403666003" lon="14.583305427043344"><ele>558.5999999999999</ele><time>2026-04-19T07:17:18Z</time></trkpt><trkpt lat="40.860173192560104" lon="14.583396320833316"><ele>558.8</ele><time>2026-04-19T07:17:19Z</time></trkpt><trkpt lat="40.860194538242276" lon="14.583547273469"><ele>559.0</ele><time>2026-04-19T07:17:20Z</time></trkpt><trkpt lat="40.86022854011496" lon="14.583693272117507"><ele>561.0</ele><time>2026-04-19T07:17:21Z</time></trkpt><trkpt lat="40.86029615932526" lon="14.58375208517077"><ele>563.0</ele><time>2026-04-19T07:17:22Z</time></trkpt><trkpt lat="40.86033211491333" lon="14.583841379052677"><ele>565.0</ele><time>2026-04-19T07:17:24Z</time></trkpt><trkpt lat="40.86026423553457" lon="14.58387620396757"><ele>567.0</ele><time>2026-04-19T07:17:26Z</time></trkpt><trkpt lat="40.860147197024475" lon="14.58379818336153"><ele>569.0</ele><time>2026-04-19T07:17:27.999Z</time></trkpt><trkpt lat="40.86007237750715" lon="14.583743878178131"><ele>571.0</ele><time>2026-04-19T07:17:28.999Z</time></trkpt><trkpt lat="40.85998404659825" lon="14.583697245666832"><ele>572.6</ele><time>2026-04-19T07:17:29.999Z</time></trkpt><trkpt lat="40.85987710505217" lon="14.58368288593883"><ele>574.2</ele><time>2026-04-19T07:17:31.999Z</time></trkpt><trkpt lat="40.859794460246924" lon="14.583695508617026"><ele>575.8</ele><time>2026-04-19T07:17:32.999Z</time></trkpt><trkpt lat="40.85969487412012" lon="14.583718636265518"><ele>577.4</ele><time>2026-04-19T07:17:33.999Z</time></trkpt><trkpt lat="40.859590203381046" lon="14.583702551999451"><ele>579.0</ele><time>2026-04-19T07:17:34.999Z</time></trkpt><trkpt lat="40.859500205527944" lon="14.583659450330302"><ele>579.0</ele><time>2026-04-19T07:17:35.999Z</time></trkpt><trkpt lat="40.85940821659294" lon="14.583599186395187"><ele>579.0</ele><time>2026-04-19T07:17:36.999Z</time></trkpt><trkpt lat="40.85928078032042" lon="14.583598589721309"><ele>579.0</ele><time>2026-04-19T07:17:38.999Z</time></trkpt><trkpt lat="40.8592866669545" lon="14.583703798656954"><ele>579.0</ele><time>2026-04-19T07:17:40.999Z</time></trkpt><trkpt lat="40.85940783361307" lon="14.583814142461883"><ele>581.3333333333334</ele><time>2026-04-19T07:17:42.999Z</time></trkpt><trkpt lat="40.8594519715375" lon="14.583919245024347"><ele>583.6666666666666</ele><time>2026-04-19T07:17:43.999Z</time></trkpt><trkpt lat="40.85950375564526" lon="14.58401308898492"><ele>586.0</ele><time>2026-04-19T07:17:44.999Z</time></trkpt><trkpt lat="40.85955546225149" lon="14.584101084394321"><ele>588.3333333333333</ele><time>2026-04-19T07:17:45.999Z</time></trkpt><trkpt lat="40.85960473375048" lon="14.58417144721503"><ele>590.6666666666666</ele><time>2026-04-19T07:17:46.999Z</time></trkpt><trkpt lat="40.85964395040126" lon="14.584258377689318"><ele>593.0</ele><time>2026-04-19T07:17:47.999Z</time></trkpt><trkpt lat="40.8596704864075" lon="14.584438364150436"><ele>594.1999999999999</ele><time>2026-04-19T07:17:49.999Z</time></trkpt><trkpt lat="40.85966715277747" lon="14.584554481292919"><ele>595.4</ele><time>2026-04-19T07:17:50.999Z</time></trkpt><trkpt lat="40.85967142802246" lon="14.584698888953323"><ele>596.5999999999999</ele><time>2026-04-19T07:17:51.999Z</time></trkpt><trkpt lat="40.859682237959994" lon="14.584801285490714"><ele>597.8</ele><time>2026-04-19T07:17:52.999Z</time></trkpt><trkpt lat="40.85967045786468" lon="14.584950615662551"><ele>599.0</ele><time>2026-04-19T07:17:53.999Z</time></trkpt><trkpt lat="40.85963812903003" lon="14.585099675855293"><ele>599.0</ele><time>2026-04-19T07:17:54.999Z</time></trkpt><trkpt lat="40.859615970963695" lon="14.585230935630541"><ele>599.0</ele><time>2026-04-19T07:17:55.999Z</time></trkpt><trkpt lat="40.85960633877153" lon="14.585323645314368"><ele>599.0</ele><time>2026-04-19T07:17:56.999Z</time></trkpt><trkpt lat="40.859569678476625" lon="14.58543558656517"><ele>599.0</ele><time>2026-04-19T07:17:57.999Z</time></trkpt><trkpt lat="40.85952527378968" lon="14.585550390253644"><ele>599.0</ele><time>2026-04-19T07:17:58.999Z</time></trkpt><trkpt lat="40.859473587133834" lon="14.585650352898437"><ele>601.2</ele><time>2026-04-19T07:17:59.999Z</time></trkpt><trkpt lat="40.85941378191567" lon="14.585745690084835"><ele>603.4</ele><time>2026-04-19T07:18:00.999Z</time></trkpt><trkpt lat="40.85934291319423" lon="14.585816080854237"><ele>605.6</ele><time>2026-04-19T07:18:01.999Z</time></trkpt><trkpt lat="40.859262443177364" lon="14.585902809532344"><ele>607.8</ele><time>2026-04-19T07:18:02.999Z</time></trkpt><trkpt lat="40.85918654720018" lon="14.585976299803548"><ele>610.0</ele><time>2026-04-19T07:18:03.999Z</time></trkpt><trkpt lat="40.8591352270854" lon="14.586075081600592"><ele>612.5</ele><time>2026-04-19T07:18:04.999Z</time></trkpt><trkpt lat="40.859084911384805" lon="14.586216608014157"><ele>615.0</ele><time>2026-04-19T07:18:06.999Z</time></trkpt><trkpt lat="40.8590142164657" lon="14.586264049042446"><ele>617.5</ele><time>2026-04-19T07:18:09.999Z</time></trkpt><trkpt lat="40.85896515438802" lon="14.586192629762888"><ele>620.0</ele><time>2026-04-19T07:18:12.999Z</time></trkpt><trkpt lat="40.85899982360192" lon="14.586122045792454"><ele>622.5</ele><time>2026-04-19T07:18:13.999Z</time></trkpt><trkpt lat="40.85905858534127" lon="14.586050831898694"><ele>625.0</ele><time>2026-04-19T07:18:14.999Z</time></trkpt><trkpt lat="40.85911564625844" lon="14.585910258671191"><ele>625.0</ele><time>2026-04-19T07:18:15.999Z</time></trkpt><trkpt lat="40.85912781097315" lon="14.58578039985565"><ele>625.0</ele><time>2026-04-19T07:18:16.999Z</time></trkpt><trkpt lat="40.85904054177458" lon="14.585645128855795"><ele>625.0</ele><time>2026-04-19T07:18:18.999Z</time></trkpt><trkpt lat="40.85899072394415" lon="14.585540002291275"><ele>625.0</ele><time>2026-04-19T07:18:19.999Z</time></trkpt><trkpt lat="40.85895535449412" lon="14.585458943932366"><ele>625.0</ele><time>2026-04-19T07:18:20.999Z</time></trkpt><trkpt lat="40.8588450425779" lon="14.585345533062958"><ele>625.0</ele><time>2026-04-19T07:18:22.999Z</time></trkpt><trkpt lat="40.85876651716172" lon="14.58529142798055"><ele>625.0</ele><time>2026-04-19T07:18:23.999Z</time></trkpt><trkpt lat="40.85871130052683" lon="14.585243609197827"><ele>625.0</ele><time>2026-04-19T07:18:24.999Z</time></trkpt><trkpt lat="40.85867188944543" lon="14.585171909884313"><ele>625.0</ele><time>2026-04-19T07:18:27.999Z</time></trkpt><trkpt lat="40.85876367430539" lon="14.585155400687842"><ele>625.0</ele><time>2026-04-19T07:18:34.998Z</time></trkpt><trkpt lat="40.85886401082643" lon="14.585378457685765"><ele>625.0</ele><time>2026-04-19T07:18:35.998Z</time></trkpt><trkpt lat="40.858896222329946" lon="14.585519581385368"><ele>625.0</ele><time>2026-04-19T07:18:36.998Z</time></trkpt><trkpt lat="40.85892232362225" lon="14.585648473256592"><ele>625.0</ele><time>2026-04-19T07:18:37.998Z</time></trkpt><trkpt lat="40.858919554646725" lon="14.58579893778678"><ele>625.0</ele><time>2026-04-19T07:18:38.998Z</time></trkpt><trkpt lat="40.858865263869795" lon="14.585942319795075"><ele>625.0</ele><time>2026-04-19T07:18:39.998Z</time></trkpt><trkpt lat="40.85880342386933" lon="14.586025804054191"><ele>628.75</ele><time>2026-04-19T07:18:40.998Z</time></trkpt><trkpt lat="40.8588566202105" lon="14.58622379941408"><ele>632.5</ele><time>2026-04-19T07:18:41.998Z</time></trkpt><trkpt lat="40.85879606374231" lon="14.586319370495621"><ele>636.25</ele><time>2026-04-19T07:18:42.998Z</time></trkpt><trkpt lat="40.85870372534191" lon="14.586454761430698"><ele>640.0</ele><time>2026-04-19T07:18:44.998Z</time></trkpt><trkpt lat="40.858674390411984" lon="14.586594423648018"><ele>640.0</ele><time>2026-04-19T07:18:46.998Z</time></trkpt><trkpt lat="40.858772062280515" lon="14.586695067416624"><ele>640.0</ele><time>2026-04-19T07:18:48.998Z</time></trkpt><trkpt lat="40.858846157747166" lon="14.58672362390992"><ele>640.0</ele><time>2026-04-19T07:18:49.998Z</time></trkpt><trkpt lat="40.85892520232046" lon="14.586724084366802"><ele>640.0</ele><time>2026-04-19T07:18:51Z</time></trkpt><trkpt lat="40.859019650294506" lon="14.58670934627436"><ele>640.0</ele><time>2026-04-19T07:18:52Z</time></trkpt><trkpt lat="40.85911404156391" lon="14.586690695361085"><ele>640.0</ele><time>2026-04-19T07:18:53Z</time></trkpt><trkpt lat="40.859208207666335" lon="14.586724191337309"><ele>640.0</ele><time>2026-04-19T07:18:54Z</time></trkpt><trkpt lat="40.85929042282798" lon="14.58675293036402"><ele>640.0</ele><time>2026-04-19T07:18:55Z</time></trkpt><trkpt lat="40.85938131385453" lon="14.586822606565129"><ele>640.0</ele><time>2026-04-19T07:18:56Z</time></trkpt><trkpt lat="40.85947736529607" lon="14.586923294781426"><ele>640.0</ele><time>2026-04-19T07:18:57Z</time></trkpt><trkpt lat="40.859590518677294" lon="14.58702873988139"><ele>641.0</ele><time>2026-04-19T07:18:58Z</time></trkpt><trkpt lat="40.85967611711105" lon="14.587194935356061"><ele>642.0</ele><time>2026-04-19T07:18:59Z</time></trkpt><trkpt lat="40.859766349530744" lon="14.587327945111266"><ele>643.0</ele><time>2026-04-19T07:19:00Z</time></trkpt><trkpt lat="40.85984998500337" lon="14.587453470097445"><ele>644.0</ele><time>2026-04-19T07:19:01Z</time></trkpt><trkpt lat="40.859906869351455" lon="14.587560322723874"><ele>644.0</ele><time>2026-04-19T07:19:02Z</time></trkpt><trkpt lat="40.859956834158716" lon="14.58764649336868"><ele>644.0</ele><time>2026-04-19T07:19:03Z</time></trkpt><trkpt lat="40.86001574250234" lon="14.58771506382589"><ele>644.0</ele><time>2026-04-19T07:19:04Z</time></trkpt><trkpt lat="40.860079866019625" lon="14.587818920014604"><ele>644.0</ele><time>2026-04-19T07:19:05Z</time></trkpt><trkpt lat="40.86013945524123" lon="14.587899669723297"><ele>644.0</ele><time>2026-04-19T07:19:06Z</time></trkpt><trkpt lat="40.86019290978858" lon="14.587983931988267"><ele>644.0</ele><time>2026-04-19T07:19:07Z</time></trkpt><trkpt lat="40.8602457232322" lon="14.588069183986365"><ele>643.3333333333333</ele><time>2026-04-19T07:19:08Z</time></trkpt><trkpt lat="40.8602898213201" lon="14.588152576746117"><ele>642.6666666666666</ele><time>2026-04-19T07:19:09Z</time></trkpt><trkpt lat="40.86036117732045" lon="14.588251645145789"><ele>642.0</ele><time>2026-04-19T07:19:11Z</time></trkpt><trkpt lat="40.860427155496346" lon="14.588295408271689"><ele>641.3333333333334</ele><time>2026-04-19T07:19:17Z</time></trkpt><trkpt lat="40.86047168774485" lon="14.588356357266214"><ele>640.6666666666667</ele><time>2026-04-19T07:20:06.999Z</time></trkpt><trkpt lat="40.86038828291535" lon="14.588366059416783"><ele>640.0</ele><time>2026-04-19T07:37:31.998Z</time></trkpt><trkpt lat="40.86033316764418" lon="14.588406838685486"><ele>640.0</ele><time>2026-04-19T07:37:35.998Z</time></trkpt><trkpt lat="40.86031493620026" lon="14.5885874837315"><ele>640.0</ele><time>2026-04-19T07:37:37.998Z</time></trkpt><trkpt lat="40.86029878226721" lon="14.588703198737072"><ele>640.0</ele><time>2026-04-19T07:37:38.998Z</time></trkpt><trkpt lat="40.8602659316986" lon="14.588838886201431"><ele>640.0</ele><time>2026-04-19T07:37:39.998Z</time></trkpt><trkpt lat="40.860236022065955" lon="14.589025206924543"><ele>640.25</ele><time>2026-04-19T07:37:40.998Z</time></trkpt><trkpt lat="40.86020678009969" lon="14.589218803300227"><ele>640.5</ele><time>2026-04-19T07:37:41.998Z</time></trkpt><trkpt lat="40.86018387799396" lon="14.589379258379632"><ele>640.75</ele><time>2026-04-19T07:37:42.998Z</time></trkpt><trkpt lat="40.86017003542806" lon="14.589514408757717"><ele>641.0</ele><time>2026-04-19T07:37:43.998Z</time></trkpt><trkpt lat="40.860152064132144" lon="14.589637802031582"><ele>641.4</ele><time>2026-04-19T07:37:45Z</time></trkpt><trkpt lat="40.86012999166973" lon="14.589748568601594"><ele>641.8</ele><time>2026-04-19T07:37:46Z</time></trkpt><trkpt lat="40.8600938369846" lon="14.58985274091184"><ele>642.1999999999999</ele><time>2026-04-19T07:37:47Z</time></trkpt><trkpt lat="40.860040625541764" lon="14.58995906507542"><ele>642.5999999999999</ele><time>2026-04-19T07:37:48Z</time></trkpt><trkpt lat="40.85997339093325" lon="14.590050893781175"><ele>643.0</ele><time>2026-04-19T07:37:49Z</time></trkpt><trkpt lat="40.85988897140658" lon="14.590130088938482"><ele>643.0</ele><time>2026-04-19T07:37:50Z</time></trkpt><trkpt lat="40.859817768016" lon="14.590198753246668"><ele>643.0</ele><time>2026-04-19T07:37:51Z</time></trkpt><trkpt lat="40.859779251263575" lon="14.59028125462093"><ele>643.0</ele><time>2026-04-19T07:37:52Z</time></trkpt><trkpt lat="40.859755987040074" lon="14.590395912994081"><ele>643.0</ele><time>2026-04-19T07:37:53Z</time></trkpt><trkpt lat="40.85974369480201" lon="14.590530498515086"><ele>643.0</ele><time>2026-04-19T07:37:54Z</time></trkpt><trkpt lat="40.85975634188445" lon="14.590658770259887"><ele>643.4</ele><time>2026-04-19T07:37:55Z</time></trkpt><trkpt lat="40.85979211870103" lon="14.590786095790438"><ele>643.8</ele><time>2026-04-19T07:37:56Z</time></trkpt><trkpt lat="40.8598288316427" lon="14.590893347677682"><ele>644.2</ele><time>2026-04-19T07:37:57Z</time></trkpt><trkpt lat="40.859851714497545" lon="14.590996485741066"><ele>644.6</ele><time>2026-04-19T07:37:58Z</time></trkpt><trkpt lat="40.85987894915585" lon="14.591129782813404"><ele>645.0</ele><time>2026-04-19T07:37:59Z</time></trkpt><trkpt lat="40.859898990343694" lon="14.59128520800182"><ele>645.6</ele><time>2026-04-19T07:38:00Z</time></trkpt><trkpt lat="40.85989181667453" lon="14.591429671647894"><ele>646.2</ele><time>2026-04-19T07:38:01Z</time></trkpt><trkpt lat="40.85985394071975" lon="14.591562990252722"><ele>646.8</ele><time>2026-04-19T07:38:02Z</time></trkpt><trkpt lat="40.859829585086736" lon="14.591698670892324"><ele>647.4</ele><time>2026-04-19T07:38:03Z</time></trkpt><trkpt lat="40.859801850160686" lon="14.59183883665327"><ele>648.0</ele><time>2026-04-19T07:38:04Z</time></trkpt><trkpt lat="40.85976353789546" lon="14.591991427793706"><ele>647.5999999999999</ele><time>2026-04-19T07:38:05Z</time></trkpt><trkpt lat="40.85971323667182" lon="14.592133233573382"><ele>647.1999999999999</ele><time>2026-04-19T07:38:06Z</time></trkpt><trkpt lat="40.859657077799405" lon="14.592255730290246"><ele>646.8</ele><time>2026-04-19T07:38:07Z</time></trkpt><trkpt lat="40.85961767744973" lon="14.592357943437285"><ele>646.4</ele><time>2026-04-19T07:38:08Z</time></trkpt><trkpt lat="40.8596122309998" lon="14.592474597184701"><ele>646.0</ele><time>2026-04-19T07:38:09Z</time></trkpt><trkpt lat="40.85965087848732" lon="14.592611247084504"><ele>646.0</ele><time>2026-04-19T07:38:10Z</time></trkpt><trkpt lat="40.85970828630926" lon="14.592747995356797"><ele>646.0</ele><time>2026-04-19T07:38:11Z</time></trkpt><trkpt lat="40.859739172996534" lon="14.592888361253536"><ele>646.0</ele><time>2026-04-19T07:38:12Z</time></trkpt><trkpt lat="40.85972308614545" lon="14.593049572471491"><ele>646.0</ele><time>2026-04-19T07:38:13Z</time></trkpt><trkpt lat="40.85968102496922" lon="14.593209153685628"><ele>646.0</ele><time>2026-04-19T07:38:14Z</time></trkpt><trkpt lat="40.859613818681886" lon="14.593372561876278"><ele>646.0</ele><time>2026-04-19T07:38:15Z</time></trkpt><trkpt lat="40.85953416374246" lon="14.593530834408092"><ele>646.0</ele><time>2026-04-19T07:38:16Z</time></trkpt><trkpt lat="40.8594368564109" lon="14.593690307555173"><ele>646.0</ele><time>2026-04-19T07:38:17Z</time></trkpt><trkpt lat="40.85932401600388" lon="14.593854859769163"><ele>654.0</ele><time>2026-04-19T07:38:18Z</time></trkpt><trkpt lat="40.859201964127095" lon="14.594023231929295"><ele>662.0</ele><time>2026-04-19T07:38:18.999Z</time></trkpt><trkpt lat="40.859078149136614" lon="14.5941855273057"><ele>670.0</ele><time>2026-04-19T07:38:19.999Z</time></trkpt><trkpt lat="40.85898109967707" lon="14.594340209358352"><ele>670.0</ele><time>2026-04-19T07:38:20.999Z</time></trkpt><trkpt lat="40.85890059765674" lon="14.594477916961615"><ele>670.0</ele><time>2026-04-19T07:38:21.999Z</time></trkpt><trkpt lat="40.8588083854785" lon="14.59461451076463"><ele>670.0</ele><time>2026-04-19T07:38:22.999Z</time></trkpt><trkpt lat="40.85870342284997" lon="14.59475357552596"><ele>670.0</ele><time>2026-04-19T07:38:23.999Z</time></trkpt><trkpt lat="40.85858170557812" lon="14.594895683408952"><ele>669.0</ele><time>2026-04-19T07:38:24.999Z</time></trkpt><trkpt lat="40.85845677771148" lon="14.595022846180488"><ele>668.0</ele><time>2026-04-19T07:38:25.999Z</time></trkpt><trkpt lat="40.858338932602834" lon="14.595115445652175"><ele>667.0</ele><time>2026-04-19T07:38:26.999Z</time></trkpt><trkpt lat="40.85824007349463" lon="14.595184398750334"><ele>666.0</ele><time>2026-04-19T07:38:27.999Z</time></trkpt><trkpt lat="40.85815517007462" lon="14.595237562381907"><ele>671.0</ele><time>2026-04-19T07:38:28.999Z</time></trkpt><trkpt lat="40.85806698205178" lon="14.59528693561721"><ele>676.0</ele><time>2026-04-19T07:38:29.999Z</time></trkpt><trkpt lat="40.8579695376738" lon="14.595335542974206"><ele>681.0</ele><time>2026-04-19T07:38:30.999Z</time></trkpt><trkpt lat="40.857868587183006" lon="14.595374696257256"><ele>686.0</ele><time>2026-04-19T07:38:31.999Z</time></trkpt><trkpt lat="40.8577767151749" lon="14.595401719713903"><ele>691.0</ele><time>2026-04-19T07:38:32.999Z</time></trkpt><trkpt lat="40.8576990197314" lon="14.595417476179572"><ele>693.5999999999999</ele><time>2026-04-19T07:38:33.999Z</time></trkpt><trkpt lat="40.85760088571481" lon="14.595444473069179"><ele>696.2</ele><time>2026-04-19T07:38:34.999Z</time></trkpt><trkpt lat="40.857489490517814" lon="14.595468669186795"><ele>698.8</ele><time>2026-04-19T07:38:35.999Z</time></trkpt><trkpt lat="40.857372874839854" lon="14.595491340537194"><ele>701.4000000000001</ele><time>2026-04-19T07:38:36.999Z</time></trkpt><trkpt lat="40.857255720889405" lon="14.59550834757863"><ele>704.0</ele><time>2026-04-19T07:38:37.999Z</time></trkpt><trkpt lat="40.85713469051088" lon="14.59552910379159"><ele>704.0</ele><time>2026-04-19T07:38:38.999Z</time></trkpt><trkpt lat="40.857009538725414" lon="14.595564332145624"><ele>704.0</ele><time>2026-04-19T07:38:39.999Z</time></trkpt><trkpt lat="40.85688047960366" lon="14.595621352814462"><ele>704.0</ele><time>2026-04-19T07:38:40.999Z</time></trkpt><trkpt lat="40.856763873434055" lon="14.595687534095203"><ele>704.0</ele><time>2026-04-19T07:38:41.999Z</time></trkpt><trkpt lat="40.85667370684397" lon="14.595751490891857"><ele>705.1666666666666</ele><time>2026-04-19T07:38:42.999Z</time></trkpt><trkpt lat="40.856599152669276" lon="14.595803156971725"><ele>706.3333333333333</ele><time>2026-04-19T07:38:43.999Z</time></trkpt><trkpt lat="40.85652920718455" lon="14.595861548467978"><ele>707.5</ele><time>2026-04-19T07:38:44.999Z</time></trkpt><trkpt lat="40.85645758780777" lon="14.595930947046801"><ele>708.6666666666666</ele><time>2026-04-19T07:38:45.999Z</time></trkpt><trkpt lat="40.85641489701472" lon="14.596028386197721"><ele>709.8333333333334</ele><time>2026-04-19T07:38:46.999Z</time></trkpt><trkpt lat="40.85638215407392" lon="14.596155655441343"><ele>711.0</ele><time>2026-04-19T07:38:47.999Z</time></trkpt><trkpt lat="40.85635035542432" lon="14.59625408011456"><ele>712.5999999999999</ele><time>2026-04-19T07:38:48.999Z</time></trkpt><trkpt lat="40.85625250104687" lon="14.59636147770365"><ele>714.2</ele><time>2026-04-19T07:38:50.999Z</time></trkpt><trkpt lat="40.85617741387854" lon="14.596427495386575"><ele>715.8</ele><time>2026-04-19T07:38:51.999Z</time></trkpt><trkpt lat="40.856094367893334" lon="14.596477598416328"><ele>717.4000000000001</ele><time>2026-04-19T07:38:52.999Z</time></trkpt><trkpt lat="40.85603088531661" lon="14.596532371789305"><ele>719.0</ele><time>2026-04-19T07:38:53.999Z</time></trkpt><trkpt lat="40.855971379275765" lon="14.596606554250602"><ele>718.1666666666666</ele><time>2026-04-19T07:38:54.999Z</time></trkpt><trkpt lat="40.85590764733129" lon="14.596674140375084"><ele>717.3333333333333</ele><time>2026-04-19T07:38:55.999Z</time></trkpt><trkpt lat="40.85582886804112" lon="14.596733528728407"><ele>716.5</ele><time>2026-04-19T07:38:56.999Z</time></trkpt><trkpt lat="40.85576385095897" lon="14.596781753349"><ele>715.6666666666666</ele><time>2026-04-19T07:38:57.999Z</time></trkpt><trkpt lat="40.855697789043724" lon="14.59683682831301"><ele>714.8333333333334</ele><time>2026-04-19T07:38:58.999Z</time></trkpt><trkpt lat="40.85564254776393" lon="14.596891015652542"><ele>714.0</ele><time>2026-04-19T07:38:59.999Z</time></trkpt><trkpt lat="40.85559056652751" lon="14.59695350718473"><ele>716.5</ele><time>2026-04-19T07:39:00.999Z</time></trkpt><trkpt lat="40.85553499034924" lon="14.59703469464465"><ele>719.0</ele><time>2026-04-19T07:39:01.999Z</time></trkpt><trkpt lat="40.85546237174107" lon="14.597082888387154"><ele>721.5</ele><time>2026-04-19T07:39:02.999Z</time></trkpt><trkpt lat="40.85539944284181" lon="14.597139580291167"><ele>724.0</ele><time>2026-04-19T07:39:03.999Z</time></trkpt><trkpt lat="40.85535140280162" lon="14.59720588797895"><ele>726.5</ele><time>2026-04-19T07:39:04.999Z</time></trkpt><trkpt lat="40.8552846578953" lon="14.597291765297006"><ele>729.0</ele><time>2026-04-19T07:39:06.999Z</time></trkpt><trkpt lat="40.85521807672608" lon="14.597315881672118"><ele>729.0</ele><time>2026-04-19T07:39:15.999Z</time></trkpt><trkpt lat="40.855174700431384" lon="14.597403927470122"><ele>729.0</ele><time>2026-04-19T07:39:19.999Z</time></trkpt><trkpt lat="40.85509610764256" lon="14.597515192176884"><ele>729.0</ele><time>2026-04-19T07:39:21.998Z</time></trkpt><trkpt lat="40.85503055558532" lon="14.597579976585406"><ele>729.0</ele><time>2026-04-19T07:39:22.998Z</time></trkpt><trkpt lat="40.85496816417151" lon="14.597645659258866"><ele>729.0</ele><time>2026-04-19T07:39:23.998Z</time></trkpt><trkpt lat="40.85489876145738" lon="14.597730128680421"><ele>731.1666666666666</ele><time>2026-04-19T07:39:24.998Z</time></trkpt><trkpt lat="40.8548252570837" lon="14.597826247840763"><ele>733.3333333333334</ele><time>2026-04-19T07:39:25.998Z</time></trkpt><trkpt lat="40.854751334375415" lon="14.597922645854585"><ele>735.5</ele><time>2026-04-19T07:39:26.998Z</time></trkpt><trkpt lat="40.85468714078167" lon="14.598008273154207"><ele>737.6666666666667</ele><time>2026-04-19T07:39:27.998Z</time></trkpt><trkpt lat="40.85463858003409" lon="14.598073173237005"><ele>739.8333333333334</ele><time>2026-04-19T07:39:28.998Z</time></trkpt><trkpt lat="40.85460600870928" lon="14.598149637328556"><ele>742.0</ele><time>2026-04-19T07:39:29.998Z</time></trkpt><trkpt lat="40.85458908693811" lon="14.598243751677956"><ele>742.0</ele><time>2026-04-19T07:39:30.998Z</time></trkpt><trkpt lat="40.85456667272905" lon="14.598336858623622"><ele>742.0</ele><time>2026-04-19T07:39:31.998Z</time></trkpt><trkpt lat="40.8544335718614" lon="14.598377334689399"><ele>742.0</ele><time>2026-04-19T07:39:33.998Z</time></trkpt><trkpt lat="40.854346972775225" lon="14.59841171725742"><ele>742.0</ele><time>2026-04-19T07:39:34.998Z</time></trkpt><trkpt lat="40.85427432516438" lon="14.598468648115759"><ele>742.0</ele><time>2026-04-19T07:39:35.998Z</time></trkpt><trkpt lat="40.854206685814475" lon="14.598569791646906"><ele>742.8</ele><time>2026-04-19T07:39:36.998Z</time></trkpt><trkpt lat="40.854135965461516" lon="14.598681373093815"><ele>743.6</ele><time>2026-04-19T07:39:37.998Z</time></trkpt><trkpt lat="40.85403009001843" lon="14.598751778219954"><ele>744.4</ele><time>2026-04-19T07:39:38.998Z</time></trkpt><trkpt lat="40.85393541230813" lon="14.598790249277751"><ele>745.1999999999999</ele><time>2026-04-19T07:39:39.998Z</time></trkpt><trkpt lat="40.85386952196726" lon="14.598849605427185"><ele>746.0</ele><time>2026-04-19T07:39:40.998Z</time></trkpt><trkpt lat="40.85381237484781" lon="14.598951924375921"><ele>746.0</ele><time>2026-04-19T07:39:41.998Z</time></trkpt><trkpt lat="40.853760659302395" lon="14.599092964175533"><ele>746.0</ele><time>2026-04-19T07:39:42.998Z</time></trkpt><trkpt lat="40.85370507077421" lon="14.599218110412137"><ele>746.0</ele><time>2026-04-19T07:39:43.998Z</time></trkpt><trkpt lat="40.85364641079725" lon="14.599339460446657"><ele>746.0</ele><time>2026-04-19T07:39:44.998Z</time></trkpt><trkpt lat="40.85358714552734" lon="14.599459117006067"><ele>746.0</ele><time>2026-04-19T07:39:45.998Z</time></trkpt><trkpt lat="40.853516560716" lon="14.599576377392234"><ele>742.8</ele><time>2026-04-19T07:39:46.998Z</time></trkpt><trkpt lat="40.853449829651076" lon="14.599689915123873"><ele>739.5999999999999</ele><time>2026-04-19T07:39:47.998Z</time></trkpt><trkpt lat="40.85340004379357" lon="14.5998068517795"><ele>736.4</ele><time>2026-04-19T07:39:48.998Z</time></trkpt><trkpt lat="40.8533732816509" lon="14.599928556430628"><ele>733.2</ele><time>2026-04-19T07:39:50Z</time></trkpt><trkpt lat="40.85335717701937" lon="14.600053320187156"><ele>730.0</ele><time>2026-04-19T07:39:51Z</time></trkpt><trkpt lat="40.853340284071045" lon="14.600178702777757"><ele>730.0</ele><time>2026-04-19T07:39:52Z</time></trkpt><trkpt lat="40.85331683619175" lon="14.60030139994457"><ele>730.0</ele><time>2026-04-19T07:39:53Z</time></trkpt><trkpt lat="40.853312769718016" lon="14.600449758449574"><ele>730.0</ele><time>2026-04-19T07:39:54Z</time></trkpt><trkpt lat="40.853310454556826" lon="14.600581975940411"><ele>730.0</ele><time>2026-04-19T07:39:55Z</time></trkpt><trkpt lat="40.85329635335809" lon="14.600699359740993"><ele>730.0</ele><time>2026-04-19T07:39:56Z</time></trkpt><trkpt lat="40.85326395245999" lon="14.600800257274019"><ele>732.8</ele><time>2026-04-19T07:39:57Z</time></trkpt><trkpt lat="40.85322181444595" lon="14.60088787916537"><ele>735.6</ele><time>2026-04-19T07:39:58Z</time></trkpt><trkpt lat="40.85318383661832" lon="14.601004625921792"><ele>738.4000000000001</ele><time>2026-04-19T07:39:59Z</time></trkpt><trkpt lat="40.85316933866759" lon="14.601132802367342"><ele>741.2</ele><time>2026-04-19T07:40:00Z</time></trkpt><trkpt lat="40.8531619578571" lon="14.601255373831751"><ele>744.0</ele><time>2026-04-19T07:40:01Z</time></trkpt><trkpt lat="40.85314701989473" lon="14.601392166004723"><ele>745.2</ele><time>2026-04-19T07:40:02Z</time></trkpt><trkpt lat="40.85312790238452" lon="14.601532184117556"><ele>746.4000000000001</ele><time>2026-04-19T07:40:03Z</time></trkpt><trkpt lat="40.85311194868819" lon="14.601675231193749"><ele>747.6</ele><time>2026-04-19T07:40:04Z</time></trkpt><trkpt lat="40.853086364554095" lon="14.601797264313532"><ele>748.8</ele><time>2026-04-19T07:40:05Z</time></trkpt><trkpt lat="40.85305155625671" lon="14.601937628237074"><ele>750.0</ele><time>2026-04-19T07:40:06Z</time></trkpt><trkpt lat="40.8530142637601" lon="14.602082541746395"><ele>751.4</ele><time>2026-04-19T07:40:07Z</time></trkpt><trkpt lat="40.852990363770026" lon="14.602206910457234"><ele>752.8</ele><time>2026-04-19T07:40:08Z</time></trkpt><trkpt lat="40.85297246852602" lon="14.602314707092864"><ele>754.2</ele><time>2026-04-19T07:40:09Z</time></trkpt><trkpt lat="40.85296250903805" lon="14.602448149858398"><ele>755.6</ele><time>2026-04-19T07:40:10Z</time></trkpt><trkpt lat="40.852952764599166" lon="14.602575874799083"><ele>757.0</ele><time>2026-04-19T07:40:11Z</time></trkpt><trkpt lat="40.85293783329318" lon="14.602704354792694"><ele>757.0</ele><time>2026-04-19T07:40:12Z</time></trkpt><trkpt lat="40.852910291457945" lon="14.602810381952798"><ele>757.0</ele><time>2026-04-19T07:40:13Z</time></trkpt><trkpt lat="40.852878487429905" lon="14.6029312189794"><ele>757.0</ele><time>2026-04-19T07:40:14Z</time></trkpt><trkpt lat="40.852845633807355" lon="14.603054797074932"><ele>757.0</ele><time>2026-04-19T07:40:15Z</time></trkpt><trkpt lat="40.852816288288544" lon="14.603189654406734"><ele>757.0</ele><time>2026-04-19T07:40:16Z</time></trkpt><trkpt lat="40.85279791381862" lon="14.60332969687838"><ele>758.5</ele><time>2026-04-19T07:40:17Z</time></trkpt><trkpt lat="40.85278755839761" lon="14.603473101845193"><ele>760.0</ele><time>2026-04-19T07:40:18Z</time></trkpt><trkpt lat="40.85275951614458" lon="14.603619017604263"><ele>761.5</ele><time>2026-04-19T07:40:19Z</time></trkpt><trkpt lat="40.8527211045571" lon="14.603775484304911"><ele>763.0</ele><time>2026-04-19T07:40:20Z</time></trkpt><trkpt lat="40.852703293093846" lon="14.603943756987434"><ele>764.2</ele><time>2026-04-19T07:40:21Z</time></trkpt><trkpt lat="40.852702156563495" lon="14.6040953094383"><ele>765.4</ele><time>2026-04-19T07:40:22Z</time></trkpt><trkpt lat="40.85269480852368" lon="14.604220041365524"><ele>766.6</ele><time>2026-04-19T07:40:23Z</time></trkpt><trkpt lat="40.852687593834446" lon="14.604337143698373"><ele>767.8000000000001</ele><time>2026-04-19T07:40:24Z</time></trkpt><trkpt lat="40.85268833463573" lon="14.604447141517664"><ele>769.0</ele><time>2026-04-19T07:40:25Z</time></trkpt><trkpt lat="40.85269480166922" lon="14.60457860410949"><ele>769.8000000000001</ele><time>2026-04-19T07:40:25.999Z</time></trkpt><trkpt lat="40.85269527971607" lon="14.604707610408695"><ele>770.6</ele><time>2026-04-19T07:40:26.999Z</time></trkpt><trkpt lat="40.85268904616968" lon="14.604842633546706"><ele>771.4</ele><time>2026-04-19T07:40:27.999Z</time></trkpt><trkpt lat="40.85268786019672" lon="14.604978085393189"><ele>772.2</ele><time>2026-04-19T07:40:28.999Z</time></trkpt><trkpt lat="40.85269388221648" lon="14.60515095116194"><ele>773.0</ele><time>2026-04-19T07:40:29.999Z</time></trkpt><trkpt lat="40.85270627240454" lon="14.60534837558309"><ele>773.0</ele><time>2026-04-19T07:40:30.999Z</time></trkpt><trkpt lat="40.85271538150597" lon="14.605524751073808"><ele>773.0</ele><time>2026-04-19T07:40:31.999Z</time></trkpt><trkpt lat="40.85271935096464" lon="14.6056703582441"><ele>773.0</ele><time>2026-04-19T07:40:32.999Z</time></trkpt><trkpt lat="40.85271649709571" lon="14.605819021202784"><ele>773.0</ele><time>2026-04-19T07:40:33.999Z</time></trkpt><trkpt lat="40.85272538071936" lon="14.605957109757492"><ele>773.0</ele><time>2026-04-19T07:40:34.999Z</time></trkpt><trkpt lat="40.852739249905106" lon="14.606105195116642"><ele>773.0</ele><time>2026-04-19T07:40:35.999Z</time></trkpt><trkpt lat="40.852739020502575" lon="14.606264576100525"><ele>773.0</ele><time>2026-04-19T07:40:36.999Z</time></trkpt><trkpt lat="40.85274162545451" lon="14.606410217799233"><ele>773.0</ele><time>2026-04-19T07:40:37.999Z</time></trkpt><trkpt lat="40.85274701487594" lon="14.606545845295589"><ele>773.0</ele><time>2026-04-19T07:40:38.999Z</time></trkpt><trkpt lat="40.85274441274911" lon="14.606692520809025"><ele>773.0</ele><time>2026-04-19T07:40:39.999Z</time></trkpt><trkpt lat="40.85273733236172" lon="14.606832074020371"><ele>773.0</ele><time>2026-04-19T07:40:40.999Z</time></trkpt><trkpt lat="40.85271824974647" lon="14.606972344782763"><ele>773.0</ele><time>2026-04-19T07:40:41.999Z</time></trkpt><trkpt lat="40.85268253674617" lon="14.607137773778033"><ele>773.0</ele><time>2026-04-19T07:40:42.999Z</time></trkpt><trkpt lat="40.85266395591552" lon="14.60729790956629"><ele>774.0</ele><time>2026-04-19T07:40:43.999Z</time></trkpt><trkpt lat="40.85266440836914" lon="14.607427572345719"><ele>775.0</ele><time>2026-04-19T07:40:44.999Z</time></trkpt><trkpt lat="40.85265933681989" lon="14.607584878378715"><ele>776.0</ele><time>2026-04-19T07:40:45.999Z</time></trkpt><trkpt lat="40.852651348631895" lon="14.607739539391739"><ele>777.0</ele><time>2026-04-19T07:40:46.999Z</time></trkpt><trkpt lat="40.852637974370275" lon="14.607881470478942"><ele>778.0</ele><time>2026-04-19T07:40:47.999Z</time></trkpt><trkpt lat="40.85261204097907" lon="14.608001368529218"><ele>775.2</ele><time>2026-04-19T07:40:48.999Z</time></trkpt><trkpt lat="40.85257227577029" lon="14.60811242278519"><ele>772.4</ele><time>2026-04-19T07:40:49.999Z</time></trkpt><trkpt lat="40.85253016648443" lon="14.608266139536308"><ele>769.6</ele><time>2026-04-19T07:40:50.999Z</time></trkpt><trkpt lat="40.85250330731241" lon="14.608433270903221"><ele>766.8000000000001</ele><time>2026-04-19T07:40:51.999Z</time></trkpt><trkpt lat="40.852507403028476" lon="14.608555743183613"><ele>764.0</ele><time>2026-04-19T07:40:52.999Z</time></trkpt><trkpt lat="40.85251290177863" lon="14.608664379445907"><ele>764.0</ele><time>2026-04-19T07:40:53.999Z</time></trkpt><trkpt lat="40.85253813390439" lon="14.608763744338875"><ele>764.0</ele><time>2026-04-19T07:40:54.999Z</time></trkpt><trkpt lat="40.85258650446806" lon="14.608868128664202"><ele>764.0</ele><time>2026-04-19T07:40:55.999Z</time></trkpt><trkpt lat="40.852639874567686" lon="14.608993965100609"><ele>764.0</ele><time>2026-04-19T07:40:56.999Z</time></trkpt><trkpt lat="40.852692904247675" lon="14.609116801590837"><ele>764.0</ele><time>2026-04-19T07:40:57.999Z</time></trkpt><trkpt lat="40.85273647470659" lon="14.609243426334979"><ele>765.6</ele><time>2026-04-19T07:40:58.999Z</time></trkpt><trkpt lat="40.852769776074865" lon="14.609343579795594"><ele>767.2</ele><time>2026-04-19T07:40:59.999Z</time></trkpt><trkpt lat="40.85282023092635" lon="14.609425952050536"><ele>768.8000000000001</ele><time>2026-04-19T07:41:00.999Z</time></trkpt><trkpt lat="40.85289751966658" lon="14.60951844124005"><ele>770.4000000000001</ele><time>2026-04-19T07:41:01.999Z</time></trkpt><trkpt lat="40.852968334329134" lon="14.609630329217651"><ele>772.0</ele><time>2026-04-19T07:41:02.999Z</time></trkpt><trkpt lat="40.853041348402435" lon="14.609742984509555"><ele>772.0</ele><time>2026-04-19T07:41:03.999Z</time></trkpt><trkpt lat="40.85310582155766" lon="14.609866273947404"><ele>772.0</ele><time>2026-04-19T07:41:04.999Z</time></trkpt><trkpt lat="40.85317531392055" lon="14.609959686753866"><ele>772.0</ele><time>2026-04-19T07:41:05.999Z</time></trkpt><trkpt lat="40.853271920090926" lon="14.61002548855778"><ele>772.0</ele><time>2026-04-19T07:41:06.999Z</time></trkpt><trkpt lat="40.8533546378394" lon="14.610086394269844"><ele>772.0</ele><time>2026-04-19T07:41:07.999Z</time></trkpt><trkpt lat="40.85339964643096" lon="14.610263119915643"><ele>771.9999999999999</ele><time>2026-04-19T07:41:09.999Z</time></trkpt><trkpt lat="40.8534032923564" lon="14.61036481654103"><ele>772.0</ele><time>2026-04-19T07:41:10.999Z</time></trkpt><trkpt lat="40.85337969351889" lon="14.610485040290717"><ele>772.0</ele><time>2026-04-19T07:41:11.999Z</time></trkpt><trkpt lat="40.85335374047751" lon="14.610596093318511"><ele>772.0</ele><time>2026-04-19T07:41:12.999Z</time></trkpt><trkpt lat="40.853355171082455" lon="14.610694902005791"><ele>771.9999999999999</ele><time>2026-04-19T07:41:13.999Z</time></trkpt><trkpt lat="40.85332421584302" lon="14.61081252567213"><ele>772.0</ele><time>2026-04-19T07:41:15.999Z</time></trkpt><trkpt lat="40.853205627460014" lon="14.61085873690787"><ele>772.0000000000001</ele><time>2026-04-19T07:41:17.999Z</time></trkpt><trkpt lat="40.853136384137734" lon="14.610841291697161"><ele>772.0</ele><time>2026-04-19T07:41:18.999Z</time></trkpt><trkpt lat="40.853075011214145" lon="14.610814845448528"><ele>772.0</ele><time>2026-04-19T07:41:19.999Z</time></trkpt><trkpt lat="40.85301053008416" lon="14.610819138289655"><ele>772.0</ele><time>2026-04-19T07:41:20.999Z</time></trkpt><trkpt lat="40.85294249695618" lon="14.610835892061019"><ele>772.0</ele><time>2026-04-19T07:41:21.999Z</time></trkpt><trkpt lat="40.852873464785944" lon="14.61084152744405"><ele>772.0000000000001</ele><time>2026-04-19T07:41:22.999Z</time></trkpt><trkpt lat="40.85279973233003" lon="14.610814152784439"><ele>772.0</ele><time>2026-04-19T07:41:23.999Z</time></trkpt><trkpt lat="40.85272835350981" lon="14.610805208010502"><ele>772.0</ele><time>2026-04-19T07:41:24.999Z</time></trkpt><trkpt lat="40.85263648403488" lon="14.610806133200368"><ele>772.0</ele><time>2026-04-19T07:41:25.999Z</time></trkpt><trkpt lat="40.85253906472324" lon="14.610803106728994"><ele>772.0</ele><time>2026-04-19T07:41:26.998Z</time></trkpt><trkpt lat="40.85244392569799" lon="14.610794251226803"><ele>772.0</ele><time>2026-04-19T07:41:27.998Z</time></trkpt><trkpt lat="40.85233780836719" lon="14.610780574391722"><ele>772.0</ele><time>2026-04-19T07:41:28.998Z</time></trkpt><trkpt lat="40.85221684804239" lon="14.61076213423309"><ele>770.0</ele><time>2026-04-19T07:41:29.998Z</time></trkpt><trkpt lat="40.852112961716" lon="14.610751016940732"><ele>768.0</ele><time>2026-04-19T07:41:30.998Z</time></trkpt><trkpt lat="40.851996340833836" lon="14.610748367245101"><ele>766.0</ele><time>2026-04-19T07:41:31.998Z</time></trkpt><trkpt lat="40.85188210259603" lon="14.610756561326347"><ele>764.0</ele><time>2026-04-19T07:41:32.998Z</time></trkpt><trkpt lat="40.851761122579404" lon="14.61079245547117"><ele>763.25</ele><time>2026-04-19T07:41:33.998Z</time></trkpt><trkpt lat="40.851639347926785" lon="14.610861145207059"><ele>762.5</ele><time>2026-04-19T07:41:34.998Z</time></trkpt><trkpt lat="40.851514591501285" lon="14.610946651525982"><ele>761.75</ele><time>2026-04-19T07:41:35.998Z</time></trkpt><trkpt lat="40.8514154755699" lon="14.611023516653972"><ele>761.0</ele><time>2026-04-19T07:41:36.998Z</time></trkpt><trkpt lat="40.85131628445035" lon="14.611074615381408"><ele>761.0</ele><time>2026-04-19T07:41:37.998Z</time></trkpt><trkpt lat="40.85121764690747" lon="14.611125849812929"><ele>761.0</ele><time>2026-04-19T07:41:38.998Z</time></trkpt><trkpt lat="40.85114828447431" lon="14.61120361386086"><ele>761.0</ele><time>2026-04-19T07:41:39.998Z</time></trkpt><trkpt lat="40.85108290944609" lon="14.611332375619279"><ele>761.0</ele><time>2026-04-19T07:41:40.998Z</time></trkpt><trkpt lat="40.85102771609737" lon="14.611489093173603"><ele>761.0</ele><time>2026-04-19T07:41:41.998Z</time></trkpt><trkpt lat="40.85098213235965" lon="14.611630544927978"><ele>760.4</ele><time>2026-04-19T07:41:42.998Z</time></trkpt><trkpt lat="40.850917683514666" lon="14.611763718996512"><ele>759.8</ele><time>2026-04-19T07:41:43.998Z</time></trkpt><trkpt lat="40.85084992843715" lon="14.611878854111524"><ele>759.1999999999999</ele><time>2026-04-19T07:41:44.998Z</time></trkpt><trkpt lat="40.850786499937705" lon="14.611960732206615"><ele>758.5999999999999</ele><time>2026-04-19T07:41:45.998Z</time></trkpt><trkpt lat="40.85073087613911" lon="14.612055778999029"><ele>758.0</ele><time>2026-04-19T07:41:46.998Z</time></trkpt><trkpt lat="40.850686161674396" lon="14.612174267863434"><ele>757.8</ele><time>2026-04-19T07:41:47.998Z</time></trkpt><trkpt lat="40.85064789660177" lon="14.612324583468903"><ele>757.5999999999999</ele><time>2026-04-19T07:41:48.998Z</time></trkpt><trkpt lat="40.850613542930596" lon="14.612468694211085"><ele>757.4000000000001</ele><time>2026-04-19T07:41:49.998Z</time></trkpt><trkpt lat="40.85056920847075" lon="14.61257890255187"><ele>757.2</ele><time>2026-04-19T07:41:50.998Z</time></trkpt><trkpt lat="40.85052198404748" lon="14.612676375571732"><ele>757.0</ele><time>2026-04-19T07:41:51.998Z</time></trkpt><trkpt lat="40.85048846096576" lon="14.612767281472276"><ele>756.5</ele><time>2026-04-19T07:41:52.998Z</time></trkpt><trkpt lat="40.85043241348883" lon="14.612853219080815"><ele>756.0</ele><time>2026-04-19T07:41:53.998Z</time></trkpt><trkpt lat="40.85036489237475" lon="14.612908589789841"><ele>755.5</ele><time>2026-04-19T07:41:54.998Z</time></trkpt><trkpt lat="40.85030538565391" lon="14.612939819771386"><ele>755.0</ele><time>2026-04-19T07:41:56Z</time></trkpt><trkpt lat="40.8502258492279" lon="14.612959434235599"><ele>754.5</ele><time>2026-04-19T07:41:57Z</time></trkpt><trkpt lat="40.85014087809383" lon="14.612985869698274"><ele>754.0</ele><time>2026-04-19T07:41:58Z</time></trkpt><trkpt lat="40.85006547755328" lon="14.613038546052634"><ele>753.3333333333334</ele><time>2026-04-19T07:41:59Z</time></trkpt><trkpt lat="40.84998187500066" lon="14.613096837199189"><ele>752.6666666666667</ele><time>2026-04-19T07:42:00Z</time></trkpt><trkpt lat="40.849903593469534" lon="14.613134945218096"><ele>752.0</ele><time>2026-04-19T07:42:01Z</time></trkpt><trkpt lat="40.84983469959386" lon="14.613166329818073"><ele>751.3333333333334</ele><time>2026-04-19T07:42:02Z</time></trkpt><trkpt lat="40.84975129082968" lon="14.613177058808283"><ele>750.6666666666666</ele><time>2026-04-19T07:42:03Z</time></trkpt><trkpt lat="40.84966036512561" lon="14.613186928828133"><ele>750.0</ele><time>2026-04-19T07:42:04Z</time></trkpt><trkpt lat="40.849577108964866" lon="14.613229257507673"><ele>750.0</ele><time>2026-04-19T07:42:05Z</time></trkpt><trkpt lat="40.84945033178987" lon="14.613282510023964"><ele>750.0</ele><time>2026-04-19T07:42:06Z</time></trkpt><trkpt lat="40.849345605352646" lon="14.613309549712254"><ele>750.0</ele><time>2026-04-19T07:42:07Z</time></trkpt><trkpt lat="40.849242324211765" lon="14.613313615122026"><ele>750.0</ele><time>2026-04-19T07:42:08Z</time></trkpt><trkpt lat="40.849156558277954" lon="14.613328230143418"><ele>750.0</ele><time>2026-04-19T07:42:09Z</time></trkpt><trkpt lat="40.84904001463749" lon="14.613340496357509"><ele>748.25</ele><time>2026-04-19T07:42:10Z</time></trkpt><trkpt lat="40.84890825336601" lon="14.613363995903502"><ele>746.5</ele><time>2026-04-19T07:42:11Z</time></trkpt><trkpt lat="40.84880030229362" lon="14.613410580522489"><ele>744.75</ele><time>2026-04-19T07:42:12Z</time></trkpt><trkpt lat="40.84872151730432" lon="14.61349686707295"><ele>743.0</ele><time>2026-04-19T07:42:13Z</time></trkpt><trkpt lat="40.84864622860351" lon="14.61361504851505"><ele>741.75</ele><time>2026-04-19T07:42:14Z</time></trkpt><trkpt lat="40.84856060964603" lon="14.613737899496053"><ele>740.5</ele><time>2026-04-19T07:42:15Z</time></trkpt><trkpt lat="40.84848691370428" lon="14.613856066508772"><ele>739.25</ele><time>2026-04-19T07:42:16Z</time></trkpt><trkpt lat="40.84841377000533" lon="14.613961438452375"><ele>738.0</ele><time>2026-04-19T07:42:17Z</time></trkpt><trkpt lat="40.84831817414831" lon="14.614019820411427"><ele>737.75</ele><time>2026-04-19T07:42:18Z</time></trkpt><trkpt lat="40.8482004236119" lon="14.614092199160773"><ele>737.5</ele><time>2026-04-19T07:42:19Z</time></trkpt><trkpt lat="40.84812220549279" lon="14.61417383686419"><ele>737.25</ele><time>2026-04-19T07:42:20Z</time></trkpt><trkpt lat="40.848032094364086" lon="14.61425068768765"><ele>737.0</ele><time>2026-04-19T07:42:21Z</time></trkpt><trkpt lat="40.84793579267013" lon="14.614347118018637"><ele>737.0</ele><time>2026-04-19T07:42:22Z</time></trkpt><trkpt lat="40.847831151886204" lon="14.614464034619898"><ele>737.0</ele><time>2026-04-19T07:42:23Z</time></trkpt><trkpt lat="40.847719039467044" lon="14.614582028473185"><ele>737.0</ele><time>2026-04-19T07:42:24Z</time></trkpt><trkpt lat="40.847613504940696" lon="14.614673272751338"><ele>737.0</ele><time>2026-04-19T07:42:25Z</time></trkpt><trkpt lat="40.847535042310035" lon="14.614758931674197"><ele>738.2</ele><time>2026-04-19T07:42:26Z</time></trkpt><trkpt lat="40.84745664097885" lon="14.614841467253337"><ele>739.4000000000001</ele><time>2026-04-19T07:42:27Z</time></trkpt><trkpt lat="40.84736126054421" lon="14.614924204809085"><ele>740.5999999999999</ele><time>2026-04-19T07:42:28Z</time></trkpt><trkpt lat="40.84727678239751" lon="14.614993994592076"><ele>741.8</ele><time>2026-04-19T07:42:29Z</time></trkpt><trkpt lat="40.847204997447385" lon="14.615035038472424"><ele>743.0</ele><time>2026-04-19T07:42:30Z</time></trkpt><trkpt lat="40.84711431369454" lon="14.615040664822958"><ele>743.0</ele><time>2026-04-19T07:42:31Z</time></trkpt><trkpt lat="40.847004877034394" lon="14.615041688137314"><ele>743.0</ele><time>2026-04-19T07:42:32Z</time></trkpt><trkpt lat="40.846907564230065" lon="14.615042250020409"><ele>743.0</ele><time>2026-04-19T07:42:33Z</time></trkpt><trkpt lat="40.84684224884478" lon="14.61505229671047"><ele>743.0</ele><time>2026-04-19T07:42:34Z</time></trkpt><trkpt lat="40.84675359592046" lon="14.615051312591516"><ele>743.0</ele><time>2026-04-19T07:42:35Z</time></trkpt><trkpt lat="40.84664918921053" lon="14.6150604133495"><ele>745.4</ele><time>2026-04-19T07:42:35.999Z</time></trkpt><trkpt lat="40.84655555608389" lon="14.615061995798907"><ele>747.8</ele><time>2026-04-19T07:42:36.999Z</time></trkpt><trkpt lat="40.84645597398995" lon="14.615056552982162"><ele>750.2</ele><time>2026-04-19T07:42:37.999Z</time></trkpt><trkpt lat="40.84636217626113" lon="14.615055932515158"><ele>752.6</ele><time>2026-04-19T07:42:38.999Z</time></trkpt><trkpt lat="40.84626020551121" lon="14.615092457121326"><ele>755.0</ele><time>2026-04-19T07:42:39.999Z</time></trkpt><trkpt lat="40.84615966113607" lon="14.615160445595047"><ele>755.0</ele><time>2026-04-19T07:42:40.999Z</time></trkpt><trkpt lat="40.84606999981854" lon="14.615236751500902"><ele>755.0</ele><time>2026-04-19T07:42:41.999Z</time></trkpt><trkpt lat="40.84600397431636" lon="14.61529491564856"><ele>755.0</ele><time>2026-04-19T07:42:42.999Z</time></trkpt><trkpt lat="40.845906567881734" lon="14.615418139162138"><ele>755.0</ele><time>2026-04-19T07:42:44.999Z</time></trkpt><trkpt lat="40.84585982344553" lon="14.615519129665504"><ele>755.0</ele><time>2026-04-19T07:42:45.999Z</time></trkpt><trkpt lat="40.84581274003347" lon="14.615635938797034"><ele>755.2</ele><time>2026-04-19T07:42:46.999Z</time></trkpt><trkpt lat="40.845778099979526" lon="14.615732022578339"><ele>755.4</ele><time>2026-04-19T07:42:47.999Z</time></trkpt><trkpt lat="40.84570944436442" lon="14.615878244673217"><ele>755.5999999999999</ele><time>2026-04-19T07:42:49.999Z</time></trkpt><trkpt lat="40.845659136138885" lon="14.61597508038416"><ele>755.8</ele><time>2026-04-19T07:42:50.999Z</time></trkpt><trkpt lat="40.84562687802027" lon="14.616107395188347"><ele>756.0</ele><time>2026-04-19T07:42:51.999Z</time></trkpt><trkpt lat="40.84560658578701" lon="14.616237503214101"><ele>757.0</ele><time>2026-04-19T07:42:52.999Z</time></trkpt><trkpt lat="40.845596420735625" lon="14.616369279792375"><ele>758.0</ele><time>2026-04-19T07:42:53.999Z</time></trkpt><trkpt lat="40.84559050061151" lon="14.616493786949052"><ele>759.0</ele><time>2026-04-19T07:42:54.999Z</time></trkpt><trkpt lat="40.845582330665806" lon="14.616605715682201"><ele>760.0</ele><time>2026-04-19T07:42:55.999Z</time></trkpt><trkpt lat="40.84555099384741" lon="14.61670891896342"><ele>761.0</ele><time>2026-04-19T07:42:56.999Z</time></trkpt><trkpt lat="40.84549888582774" lon="14.61681783231275"><ele>761.0</ele><time>2026-04-19T07:42:57.999Z</time></trkpt><trkpt lat="40.84545553380668" lon="14.616935195926331"><ele>761.0</ele><time>2026-04-19T07:42:58.999Z</time></trkpt><trkpt lat="40.84544221201722" lon="14.617076545886269"><ele>761.0</ele><time>2026-04-19T07:42:59.999Z</time></trkpt><trkpt lat="40.84545924579013" lon="14.617228834695432"><ele>761.0</ele><time>2026-04-19T07:43:00.999Z</time></trkpt><trkpt lat="40.845469659233274" lon="14.617405312561557"><ele>761.5</ele><time>2026-04-19T07:43:01.999Z</time></trkpt><trkpt lat="40.845474150429204" lon="14.617577122459506"><ele>762.0</ele><time>2026-04-19T07:43:02.999Z</time></trkpt><trkpt lat="40.845474031265475" lon="14.617729834485099"><ele>762.5</ele><time>2026-04-19T07:43:03.999Z</time></trkpt><trkpt lat="40.845481595289385" lon="14.617892378437118"><ele>763.0</ele><time>2026-04-19T07:43:04.999Z</time></trkpt><trkpt lat="40.84552150003587" lon="14.618068642935578"><ele>765.25</ele><time>2026-04-19T07:43:05.999Z</time></trkpt><trkpt lat="40.84557432221278" lon="14.618208706729263"><ele>767.5</ele><time>2026-04-19T07:43:06.999Z</time></trkpt><trkpt lat="40.845608198140766" lon="14.61834708537027"><ele>769.75</ele><time>2026-04-19T07:43:07.999Z</time></trkpt><trkpt lat="40.84561314821851" lon="14.6185027183224"><ele>772.0</ele><time>2026-04-19T07:43:08.999Z</time></trkpt><trkpt lat="40.84561948228025" lon="14.618690472425726"><ele>773.25</ele><time>2026-04-19T07:43:09.999Z</time></trkpt><trkpt lat="40.845623422526806" lon="14.618858423958748"><ele>774.5</ele><time>2026-04-19T07:43:10.999Z</time></trkpt><trkpt lat="40.845623553752056" lon="14.619014996447126"><ele>775.75</ele><time>2026-04-19T07:43:11.999Z</time></trkpt><trkpt lat="40.84563088635963" lon="14.619178596531997"><ele>777.0</ele><time>2026-04-19T07:43:12.999Z</time></trkpt><trkpt lat="40.84564082763788" lon="14.619343365819462"><ele>778.2</ele><time>2026-04-19T07:43:13.999Z</time></trkpt><trkpt lat="40.845651642478806" lon="14.619484344964556"><ele>779.4000000000001</ele><time>2026-04-19T07:43:14.999Z</time></trkpt><trkpt lat="40.84565887117373" lon="14.619622004321917"><ele>780.5999999999999</ele><time>2026-04-19T07:43:15.999Z</time></trkpt><trkpt lat="40.84564866325307" lon="14.61976921920941"><ele>781.8</ele><time>2026-04-19T07:43:16.999Z</time></trkpt><trkpt lat="40.84561015525889" lon="14.619925317283881"><ele>783.0</ele><time>2026-04-19T07:43:17.999Z</time></trkpt><trkpt lat="40.84554891059734" lon="14.620080930897515"><ele>783.0</ele><time>2026-04-19T07:43:18.999Z</time></trkpt><trkpt lat="40.84547357422052" lon="14.620239215421106"><ele>783.0</ele><time>2026-04-19T07:43:19.999Z</time></trkpt><trkpt lat="40.84539774326107" lon="14.62040725993503"><ele>783.0</ele><time>2026-04-19T07:43:20.999Z</time></trkpt><trkpt lat="40.845340018338774" lon="14.620591228348719"><ele>783.0</ele><time>2026-04-19T07:43:21.999Z</time></trkpt><trkpt lat="40.845284100436594" lon="14.620801908551325"><ele>783.6666666666667</ele><time>2026-04-19T07:43:22.999Z</time></trkpt><trkpt lat="40.84523405565787" lon="14.621026956207178"><ele>784.3333333333334</ele><time>2026-04-19T07:43:23.999Z</time></trkpt><trkpt lat="40.84520075699467" lon="14.62125751962812"><ele>785.0</ele><time>2026-04-19T07:43:24.999Z</time></trkpt><trkpt lat="40.845157052370155" lon="14.62148666026613"><ele>788.0</ele><time>2026-04-19T07:43:25.999Z</time></trkpt><trkpt lat="40.845095235357014" lon="14.621710723910507"><ele>791.0</ele><time>2026-04-19T07:43:26.999Z</time></trkpt><trkpt lat="40.845037297314995" lon="14.621898872108048"><ele>794.0</ele><time>2026-04-19T07:43:27.999Z</time></trkpt><trkpt lat="40.84497744459785" lon="14.622078297181314"><ele>796.3333333333334</ele><time>2026-04-19T07:43:28.999Z</time></trkpt><trkpt lat="40.84490252652224" lon="14.62224800866024"><ele>798.6666666666667</ele><time>2026-04-19T07:43:29.999Z</time></trkpt><trkpt lat="40.844812480152235" lon="14.622416780992259"><ele>801.0</ele><time>2026-04-19T07:43:30.999Z</time></trkpt><trkpt lat="40.84473057816068" lon="14.622611090934972"><ele>804.6666666666667</ele><time>2026-04-19T07:43:31.999Z</time></trkpt><trkpt lat="40.84466809501251" lon="14.622836203450683"><ele>808.3333333333334</ele><time>2026-04-19T07:43:32.999Z</time></trkpt><trkpt lat="40.84461950302908" lon="14.623090203051637"><ele>812.0</ele><time>2026-04-19T07:43:33.999Z</time></trkpt><trkpt lat="40.84458292481316" lon="14.623326525844455"><ele>812.0</ele><time>2026-04-19T07:43:34.999Z</time></trkpt><trkpt lat="40.844554614205705" lon="14.623511685255938"><ele>812.0</ele><time>2026-04-19T07:43:35.999Z</time></trkpt><trkpt lat="40.84451999694367" lon="14.623674521459098"><ele>812.0</ele><time>2026-04-19T07:43:36.999Z</time></trkpt><trkpt lat="40.84445796383545" lon="14.623851613902499"><ele>812.0</ele><time>2026-04-19T07:43:37.998Z</time></trkpt><trkpt lat="40.844378853560265" lon="14.624056480996066"><ele>816.0</ele><time>2026-04-19T07:43:38.998Z</time></trkpt><trkpt lat="40.84431932330437" lon="14.62426057605465"><ele>820.0</ele><time>2026-04-19T07:43:39.998Z</time></trkpt><trkpt lat="40.84428387468636" lon="14.624428574732464"><ele>824.0</ele><time>2026-04-19T07:43:40.998Z</time></trkpt><trkpt lat="40.844251890052554" lon="14.624580518697671"><ele>828.0</ele><time>2026-04-19T07:43:41.998Z</time></trkpt><trkpt lat="40.844189663070196" lon="14.624725290044632"><ele>828.3333333333333</ele><time>2026-04-19T07:43:42.998Z</time></trkpt><trkpt lat="40.84409530008835" lon="14.624879279025471"><ele>828.6666666666666</ele><time>2026-04-19T07:43:43.998Z</time></trkpt><trkpt lat="40.84399332035816" lon="14.625046590238297"><ele>829.0</ele><time>2026-04-19T07:43:44.998Z</time></trkpt><trkpt lat="40.84388282079981" lon="14.625224272167126"><ele>829.3333333333333</ele><time>2026-04-19T07:43:45.998Z</time></trkpt><trkpt lat="40.84377227866122" lon="14.625376934472223"><ele>829.6666666666667</ele><time>2026-04-19T07:43:46.998Z</time></trkpt><trkpt lat="40.84364875540572" lon="14.625510846095269"><ele>830.0</ele><time>2026-04-19T07:43:47.998Z</time></trkpt><trkpt lat="40.84353352154013" lon="14.625637279243843"><ele>830.6666666666667</ele><time>2026-04-19T07:43:48.998Z</time></trkpt><trkpt lat="40.843405996582845" lon="14.62578150592372"><ele>831.3333333333333</ele><time>2026-04-19T07:43:49.998Z</time></trkpt><trkpt lat="40.843289910862524" lon="14.625916581036075"><ele>832.0</ele><time>2026-04-19T07:43:50.998Z</time></trkpt><trkpt lat="40.84319269399493" lon="14.626049712937927"><ele>831.3333333333333</ele><time>2026-04-19T07:43:51.998Z</time></trkpt><trkpt lat="40.84308776469507" lon="14.626207990614386"><ele>830.6666666666667</ele><time>2026-04-19T07:43:52.998Z</time></trkpt><trkpt lat="40.842974358077264" lon="14.626357906159878"><ele>830.0</ele><time>2026-04-19T07:43:53.998Z</time></trkpt><trkpt lat="40.842862468556476" lon="14.62648148708328"><ele>830.0</ele><time>2026-04-19T07:43:54.998Z</time></trkpt><trkpt lat="40.8427542728304" lon="14.626597849628418"><ele>830.0</ele><time>2026-04-19T07:43:55.998Z</time></trkpt><trkpt lat="40.84265975630926" lon="14.626703830462443"><ele>830.0</ele><time>2026-04-19T07:43:56.998Z</time></trkpt><trkpt lat="40.842577491997694" lon="14.6268169231477"><ele>830.0</ele><time>2026-04-19T07:43:57.998Z</time></trkpt><trkpt lat="40.842499436140734" lon="14.626944303678114"><ele>830.75</ele><time>2026-04-19T07:43:58.998Z</time></trkpt><trkpt lat="40.84243293807236" lon="14.62708205813544"><ele>831.5</ele><time>2026-04-19T07:43:59.998Z</time></trkpt><trkpt lat="40.84239293911489" lon="14.62722749645276"><ele>832.25</ele><time>2026-04-19T07:44:00.998Z</time></trkpt><trkpt lat="40.842356573849855" lon="14.62740549583162"><ele>833.0</ele><time>2026-04-19T07:44:02Z</time></trkpt><trkpt lat="40.84232759757246" lon="14.627603715626098"><ele>833.0</ele><time>2026-04-19T07:44:03Z</time></trkpt><trkpt lat="40.84227845519758" lon="14.627794624954936"><ele>833.0</ele><time>2026-04-19T07:44:04Z</time></trkpt><trkpt lat="40.8422269332318" lon="14.62799154673307"><ele>833.0</ele><time>2026-04-19T07:44:05Z</time></trkpt><trkpt lat="40.84217680343153" lon="14.628204133614027"><ele>834.0</ele><time>2026-04-19T07:44:06Z</time></trkpt><trkpt lat="40.84212089896043" lon="14.628421796306542"><ele>835.0</ele><time>2026-04-19T07:44:07Z</time></trkpt><trkpt lat="40.84206540434858" lon="14.628663856962467"><ele>836.0</ele><time>2026-04-19T07:44:08Z</time></trkpt><trkpt lat="40.842009927475374" lon="14.628933030662044"><ele>837.6666666666667</ele><time>2026-04-19T07:44:09Z</time></trkpt><trkpt lat="40.8419450088862" lon="14.629222882106873"><ele>839.3333333333333</ele><time>2026-04-19T07:44:10Z</time></trkpt><trkpt lat="40.84189767585503" lon="14.629480743850564"><ele>841.0</ele><time>2026-04-19T07:44:11Z</time></trkpt><trkpt lat="40.841862487495334" lon="14.629681688856897"><ele>841.0</ele><time>2026-04-19T07:44:12Z</time></trkpt><trkpt lat="40.84183160185445" lon="14.629843908738"><ele>841.0</ele><time>2026-04-19T07:44:13Z</time></trkpt><trkpt lat="40.84179170583744" lon="14.6299978558526"><ele>841.0</ele><time>2026-04-19T07:44:14Z</time></trkpt><trkpt lat="40.84172895686856" lon="14.630180375313689"><ele>841.0</ele><time>2026-04-19T07:44:15Z</time></trkpt><trkpt lat="40.84166940799771" lon="14.630383501307293"><ele>842.3333333333333</ele><time>2026-04-19T07:44:16Z</time></trkpt><trkpt lat="40.84161924343606" lon="14.630597670496588"><ele>843.6666666666667</ele><time>2026-04-19T07:44:17Z</time></trkpt><trkpt lat="40.841577809347065" lon="14.630828147072382"><ele>845.0</ele><time>2026-04-19T07:44:18Z</time></trkpt><trkpt lat="40.841545145047526" lon="14.631035124957961"><ele>846.25</ele><time>2026-04-19T07:44:19Z</time></trkpt><trkpt lat="40.84151988397992" lon="14.631227233915574"><ele>847.5</ele><time>2026-04-19T07:44:20Z</time></trkpt><trkpt lat="40.841505753642195" lon="14.631416199574033"><ele>848.75</ele><time>2026-04-19T07:44:21Z</time></trkpt><trkpt lat="40.841497848907" lon="14.631600545530002"><ele>850.0</ele><time>2026-04-19T07:44:22Z</time></trkpt><trkpt lat="40.8414928707248" lon="14.631737637696775"><ele>849.9999999999999</ele><time>2026-04-19T07:44:23Z</time></trkpt><trkpt lat="40.84149281920141" lon="14.631848967695662"><ele>850.0</ele><time>2026-04-19T07:44:24Z</time></trkpt><trkpt lat="40.84149522805558" lon="14.631945225423914"><ele>850.0</ele><time>2026-04-19T07:44:25Z</time></trkpt><trkpt lat="40.84149840090426" lon="14.632052282049102"><ele>850.0</ele><time>2026-04-19T07:44:26Z</time></trkpt><trkpt lat="40.84150215784084" lon="14.632162106315889"><ele>849.9999999999999</ele><time>2026-04-19T07:44:27Z</time></trkpt><trkpt lat="40.841502290560335" lon="14.632259091779613"><ele>850.0</ele><time>2026-04-19T07:44:28Z</time></trkpt><trkpt lat="40.84146390929425" lon="14.632393869327283"><ele>852.8</ele><time>2026-04-19T07:44:30Z</time></trkpt><trkpt lat="40.841387951055765" lon="14.632509579978478"><ele>855.6</ele><time>2026-04-19T07:44:32Z</time></trkpt><trkpt lat="40.84131426661905" lon="14.632538548024254"><ele>858.4000000000001</ele><time>2026-04-19T07:44:33Z</time></trkpt><trkpt lat="40.841222607832584" lon="14.632546067520263"><ele>861.2</ele><time>2026-04-19T07:44:34Z</time></trkpt><trkpt lat="40.841120508248586" lon="14.632552821729142"><ele>864.0</ele><time>2026-04-19T07:44:35Z</time></trkpt><trkpt lat="40.84103832201362" lon="14.63259199115318"><ele>867.75</ele><time>2026-04-19T07:44:36Z</time></trkpt><trkpt lat="40.84092183588364" lon="14.632665737572692"><ele>871.5</ele><time>2026-04-19T07:44:37Z</time></trkpt><trkpt lat="40.8407844241108" lon="14.632767067220218"><ele>875.25</ele><time>2026-04-19T07:44:38Z</time></trkpt><trkpt lat="40.84068010270971" lon="14.632873200638329"><ele>879.0</ele><time>2026-04-19T07:44:39Z</time></trkpt><trkpt lat="40.84060615490162" lon="14.6329776240834"><ele>879.0</ele><time>2026-04-19T07:44:40Z</time></trkpt><trkpt lat="40.84053697033798" lon="14.633096588247787"><ele>879.0000000000001</ele><time>2026-04-19T07:44:41Z</time></trkpt><trkpt lat="40.840470158021716" lon="14.633213515054907"><ele>879.0000000000001</ele><time>2026-04-19T07:44:42Z</time></trkpt><trkpt lat="40.84038621232454" lon="14.633289705077441"><ele>879.0</ele><time>2026-04-19T07:44:43Z</time></trkpt><trkpt lat="40.84030603499209" lon="14.633359728750383"><ele>879.0</ele><time>2026-04-19T07:44:44Z</time></trkpt><trkpt lat="40.840255093416275" lon="14.633433853846368"><ele>879.0</ele><time>2026-04-19T07:44:45Z</time></trkpt><trkpt lat="40.840225057212756" lon="14.63352326785987"><ele>879.0</ele><time>2026-04-19T07:44:46Z</time></trkpt><trkpt lat="40.84021069636774" lon="14.633633468330059"><ele>879.0</ele><time>2026-04-19T07:44:47Z</time></trkpt><trkpt lat="40.84019410496332" lon="14.633757728592443"><ele>879.0</ele><time>2026-04-19T07:44:48Z</time></trkpt><trkpt lat="40.84017707522474" lon="14.633843021931755"><ele>879.0</ele><time>2026-04-19T07:44:49Z</time></trkpt><trkpt lat="40.840075423697655" lon="14.63389885765098"><ele>879.0</ele><time>2026-04-19T07:44:50.999Z</time></trkpt><trkpt lat="40.83998355682772" lon="14.633888710418297"><ele>881.8000000000001</ele><time>2026-04-19T07:44:51.999Z</time></trkpt><trkpt lat="40.83987012358423" lon="14.633893022525491"><ele>884.6000000000001</ele><time>2026-04-19T07:44:52.999Z</time></trkpt><trkpt lat="40.83979441807" lon="14.633910590606119"><ele>887.4</ele><time>2026-04-19T07:44:53.999Z</time></trkpt><trkpt lat="40.839745719946855" lon="14.633989402736795"><ele>890.2</ele><time>2026-04-19T07:44:55.999Z</time></trkpt><trkpt lat="40.83965249827425" lon="14.634123153258086"><ele>893.0</ele><time>2026-04-19T07:44:57.999Z</time></trkpt><trkpt lat="40.83959424740492" lon="14.634225178692802"><ele>893.0</ele><time>2026-04-19T07:44:58.999Z</time></trkpt><trkpt lat="40.83952025172367" lon="14.63432276659684"><ele>893.0</ele><time>2026-04-19T07:44:59.999Z</time></trkpt><trkpt lat="40.839437382834994" lon="14.634428200857638"><ele>893.0</ele><time>2026-04-19T07:45:00.999Z</time></trkpt><trkpt lat="40.839354552997285" lon="14.634539532529153"><ele>893.0</ele><time>2026-04-19T07:45:01.999Z</time></trkpt><trkpt lat="40.83926786916802" lon="14.634652326997276"><ele>893.25</ele><time>2026-04-19T07:45:02.999Z</time></trkpt><trkpt lat="40.839172560097985" lon="14.634771182899225"><ele>893.5</ele><time>2026-04-19T07:45:03.999Z</time></trkpt><trkpt lat="40.83907781457443" lon="14.634859804929985"><ele>893.75</ele><time>2026-04-19T07:45:04.999Z</time></trkpt><trkpt lat="40.83898795399815" lon="14.63492949375165"><ele>894.0</ele><time>2026-04-19T07:45:05.999Z</time></trkpt><trkpt lat="40.838899868759974" lon="14.635000232023813"><ele>894.0</ele><time>2026-04-19T07:45:06.999Z</time></trkpt><trkpt lat="40.8388315255673" lon="14.63508733109146"><ele>894.0000000000001</ele><time>2026-04-19T07:45:07.999Z</time></trkpt><trkpt lat="40.83877518042145" lon="14.635203316155653"><ele>894.0000000000001</ele><time>2026-04-19T07:45:08.999Z</time></trkpt><trkpt lat="40.83873611361293" lon="14.635341023166564"><ele>894.0</ele><time>2026-04-19T07:45:09.999Z</time></trkpt><trkpt lat="40.83872654478255" lon="14.635472706924455"><ele>894.0</ele><time>2026-04-19T07:45:10.999Z</time></trkpt><trkpt lat="40.83873361833297" lon="14.635576572100797"><ele>892.25</ele><time>2026-04-19T07:45:11.999Z</time></trkpt><trkpt lat="40.83867159023911" lon="14.635709595807361"><ele>890.5</ele><time>2026-04-19T07:45:13.999Z</time></trkpt><trkpt lat="40.838581051931996" lon="14.63580848630069"><ele>888.75</ele><time>2026-04-19T07:45:14.999Z</time></trkpt><trkpt lat="40.83848218556654" lon="14.635950450900157"><ele>887.0</ele><time>2026-04-19T07:45:15.999Z</time></trkpt><trkpt lat="40.83840431211215" lon="14.636070314991185"><ele>887.0</ele><time>2026-04-19T07:45:16.999Z</time></trkpt><trkpt lat="40.83832684640116" lon="14.636121479798183"><ele>887.0</ele><time>2026-04-19T07:45:17.999Z</time></trkpt><trkpt lat="40.83821524825501" lon="14.63619637665314"><ele>887.0</ele><time>2026-04-19T07:45:19.999Z</time></trkpt><trkpt lat="40.83812554586635" lon="14.636483983740689"><ele>887.0</ele><time>2026-04-19T07:45:21.999Z</time></trkpt><trkpt lat="40.83806684918372" lon="14.636592052561397"><ele>890.2</ele><time>2026-04-19T07:45:23.999Z</time></trkpt><trkpt lat="40.83799993331301" lon="14.63657695625623"><ele>893.4000000000001</ele><time>2026-04-19T07:45:24.999Z</time></trkpt><trkpt lat="40.837921677613295" lon="14.636580035713793"><ele>896.5999999999999</ele><time>2026-04-19T07:45:25.999Z</time></trkpt><trkpt lat="40.83780246628643" lon="14.636625335210283"><ele>899.8</ele><time>2026-04-19T07:45:26.999Z</time></trkpt><trkpt lat="40.83766887831412" lon="14.636648019592924"><ele>903.0</ele><time>2026-04-19T07:45:27.999Z</time></trkpt><trkpt lat="40.837587362260216" lon="14.63667891272398"><ele>903.0</ele><time>2026-04-19T07:45:28.999Z</time></trkpt><trkpt lat="40.83751387808117" lon="14.636727375549025"><ele>903.0</ele><time>2026-04-19T07:45:29.999Z</time></trkpt><trkpt lat="40.837448894993436" lon="14.636781093461845"><ele>903.0</ele><time>2026-04-19T07:45:30.999Z</time></trkpt><trkpt lat="40.83738617459435" lon="14.636824534498224"><ele>903.0</ele><time>2026-04-19T07:45:31.999Z</time></trkpt><trkpt lat="40.837317681471596" lon="14.636894557882192"><ele>903.0</ele><time>2026-04-19T07:45:32.999Z</time></trkpt><trkpt lat="40.83723585738187" lon="14.636979864422411"><ele>903.0</ele><time>2026-04-19T07:45:33.999Z</time></trkpt><trkpt lat="40.837143792207286" lon="14.637071574907377"><ele>909.25</ele><time>2026-04-19T07:45:34.999Z</time></trkpt><trkpt lat="40.83705202173726" lon="14.637168896533424"><ele>915.5</ele><time>2026-04-19T07:45:35.999Z</time></trkpt><trkpt lat="40.83696588956774" lon="14.637295843442626"><ele>921.75</ele><time>2026-04-19T07:45:36.999Z</time></trkpt><trkpt lat="40.83688640633114" lon="14.637444576556039"><ele>928.0</ele><time>2026-04-19T07:45:37.999Z</time></trkpt><trkpt lat="40.83680664841372" lon="14.6376202367931"><ele>926.2</ele><time>2026-04-19T07:45:38.999Z</time></trkpt><trkpt lat="40.83674231621907" lon="14.637772685348658"><ele>924.4</ele><time>2026-04-19T07:45:39.999Z</time></trkpt><trkpt lat="40.8366740728105" lon="14.637904773782317"><ele>922.6000000000001</ele><time>2026-04-19T07:45:40.999Z</time></trkpt><trkpt lat="40.83661915113004" lon="14.638011512564278"><ele>920.8000000000001</ele><time>2026-04-19T07:45:41.999Z</time></trkpt><trkpt lat="40.83657581739879" lon="14.638101080096012"><ele>919.0</ele><time>2026-04-19T07:45:42.999Z</time></trkpt><trkpt lat="40.836559347761266" lon="14.638188402195675"><ele>918.9999999999999</ele><time>2026-04-19T07:45:43.999Z</time></trkpt><trkpt lat="40.83651030519413" lon="14.638281515201504"><ele>919.0</ele><time>2026-04-19T07:45:44.999Z</time></trkpt><trkpt lat="40.8364502470959" lon="14.63839365162857"><ele>919.0</ele><time>2026-04-19T07:45:45.999Z</time></trkpt><trkpt lat="40.836400838345114" lon="14.638513392498385"><ele>919.0</ele><time>2026-04-19T07:45:46.999Z</time></trkpt><trkpt lat="40.83637648354242" lon="14.638602695201698"><ele>918.9999999999999</ele><time>2026-04-19T07:45:47.999Z</time></trkpt><trkpt lat="40.83638363580475" lon="14.638689894621004"><ele>919.0</ele><time>2026-04-19T07:46:06.998Z</time></trkpt><trkpt lat="40.83641438587086" lon="14.638806057978504"><ele>917.4999999999999</ele><time>2026-04-19T07:46:22Z</time></trkpt><trkpt lat="40.83643998535446" lon="14.63890285064209"><ele>916.0</ele><time>2026-04-19T07:46:25Z</time></trkpt><trkpt lat="40.836508279602356" lon="14.639007969597284"><ele>914.5</ele><time>2026-04-19T07:46:27Z</time></trkpt><trkpt lat="40.83659902701907" lon="14.639050000190208"><ele>913.0</ele><time>2026-04-19T07:46:29Z</time></trkpt><trkpt lat="40.83666091072139" lon="14.639105879079192"><ele>911.4999999999999</ele><time>2026-04-19T07:46:30Z</time></trkpt><trkpt lat="40.836721292635836" lon="14.63917848040198"><ele>910.0</ele><time>2026-04-19T07:46:31Z</time></trkpt><trkpt lat="40.83676601426857" lon="14.639263890194991"><ele>911.4</ele><time>2026-04-19T07:46:32Z</time></trkpt><trkpt lat="40.836811182996634" lon="14.639349981091941"><ele>912.8</ele><time>2026-04-19T07:46:33Z</time></trkpt><trkpt lat="40.83685945418879" lon="14.63946178147732"><ele>914.2</ele><time>2026-04-19T07:46:34Z</time></trkpt><trkpt lat="40.83689050243667" lon="14.639550060977948"><ele>915.6</ele><time>2026-04-19T07:46:35Z</time></trkpt><trkpt lat="40.8369422562813" lon="14.63968605615375"><ele>917.0</ele><time>2026-04-19T07:46:37Z</time></trkpt><trkpt lat="40.83698790134545" lon="14.63979634343741"><ele>917.0000000000001</ele><time>2026-04-19T07:46:39Z</time></trkpt><trkpt lat="40.83690941649918" lon="14.639883302577799"><ele>917.0</ele><time>2026-04-19T07:46:41Z</time></trkpt><trkpt lat="40.83684701416149" lon="14.63986610713163"><ele>917.0</ele><time>2026-04-19T07:46:42Z</time></trkpt><trkpt lat="40.836742134082144" lon="14.639776431643266"><ele>917.0</ele><time>2026-04-19T07:46:44Z</time></trkpt><trkpt lat="40.836674382414" lon="14.639752864841533"><ele>917.0000000000001</ele><time>2026-04-19T07:46:45Z</time></trkpt><trkpt lat="40.83660783459892" lon="14.63975197583147"><ele>917.0</ele><time>2026-04-19T07:46:46Z</time></trkpt><trkpt lat="40.83649053176273" lon="14.639815811904665"><ele>914.0000000000001</ele><time>2026-04-19T07:46:48Z</time></trkpt><trkpt lat="40.83644488701227" lon="14.639883111134601"><ele>911.0</ele><time>2026-04-19T07:46:49Z</time></trkpt><trkpt lat="40.836413309022106" lon="14.63996396701372"><ele>908.0</ele><time>2026-04-19T07:46:50Z</time></trkpt><trkpt lat="40.836387381834925" lon="14.640059617620839"><ele>905.0</ele><time>2026-04-19T07:46:51Z</time></trkpt><trkpt lat="40.83636791924105" lon="14.640166715224295"><ele>902.0000000000001</ele><time>2026-04-19T07:46:52Z</time></trkpt><trkpt lat="40.836343970435934" lon="14.640279495080796"><ele>899.0</ele><time>2026-04-19T07:46:53Z</time></trkpt><trkpt lat="40.836315424181905" lon="14.640387445923343"><ele>897.0</ele><time>2026-04-19T07:46:54Z</time></trkpt><trkpt lat="40.836279838379234" lon="14.640501450481954"><ele>895.0000000000001</ele><time>2026-04-19T07:46:55Z</time></trkpt><trkpt lat="40.836244550969674" lon="14.640609198135277"><ele>893.0000000000001</ele><time>2026-04-19T07:46:56Z</time></trkpt><trkpt lat="40.836215286243075" lon="14.640725439154096"><ele>891.0</ele><time>2026-04-19T07:46:57Z</time></trkpt><trkpt lat="40.83619440299618" lon="14.640879922984109"><ele>889.0</ele><time>2026-04-19T07:46:58Z</time></trkpt><trkpt lat="40.836180547247025" lon="14.6410552045581"><ele>886.6666666666666</ele><time>2026-04-19T07:46:58.999Z</time></trkpt><trkpt lat="40.836171013036314" lon="14.641270670003603"><ele>884.3333333333333</ele><time>2026-04-19T07:46:59.999Z</time></trkpt><trkpt lat="40.83615778576409" lon="14.641516045533336"><ele>882.0</ele><time>2026-04-19T07:47:00.999Z</time></trkpt><trkpt lat="40.83613274561688" lon="14.641770316170163"><ele>881.3333333333333</ele><time>2026-04-19T07:47:01.999Z</time></trkpt><trkpt lat="40.83610311368753" lon="14.642045142519043"><ele>880.6666666666666</ele><time>2026-04-19T07:47:02.999Z</time></trkpt><trkpt lat="40.836082591592834" lon="14.642297631194557"><ele>880.0</ele><time>2026-04-19T07:47:03.999Z</time></trkpt><trkpt lat="40.836067247049144" lon="14.642515558202454"><ele>880.0</ele><time>2026-04-19T07:47:04.999Z</time></trkpt><trkpt lat="40.83604412726194" lon="14.642724370639225"><ele>880.0</ele><time>2026-04-19T07:47:05.999Z</time></trkpt><trkpt lat="40.83601378510166" lon="14.64291461261318"><ele>880.0</ele><time>2026-04-19T07:47:06.999Z</time></trkpt><trkpt lat="40.83598693892915" lon="14.643113485572124"><ele>876.6666666666666</ele><time>2026-04-19T07:47:07.999Z</time></trkpt><trkpt lat="40.83596846239342" lon="14.64331852892786"><ele>873.3333333333333</ele><time>2026-04-19T07:47:08.999Z</time></trkpt><trkpt lat="40.83595567983237" lon="14.643534611701394"><ele>870.0</ele><time>2026-04-19T07:47:09.999Z</time></trkpt><trkpt lat="40.83594949404247" lon="14.643758907334409"><ele>868.6666666666667</ele><time>2026-04-19T07:47:10.999Z</time></trkpt><trkpt lat="40.83594090756928" lon="14.6439706440932"><ele>867.3333333333334</ele><time>2026-04-19T07:47:11.999Z</time></trkpt><trkpt lat="40.835933503436344" lon="14.64416221577352"><ele>866.0</ele><time>2026-04-19T07:47:12.999Z</time></trkpt><trkpt lat="40.83592909784832" lon="14.644355580076219"><ele>866.25</ele><time>2026-04-19T07:47:13.999Z</time></trkpt><trkpt lat="40.835926010346526" lon="14.64456105244673"><ele>866.5</ele><time>2026-04-19T07:47:14.999Z</time></trkpt><trkpt lat="40.835910372211345" lon="14.644754457470105"><ele>866.75</ele><time>2026-04-19T07:47:15.999Z</time></trkpt><trkpt lat="40.83589485146034" lon="14.644931875556447"><ele>867.0</ele><time>2026-04-19T07:47:16.999Z</time></trkpt><trkpt lat="40.835890335745155" lon="14.645096869863321"><ele>867.0</ele><time>2026-04-19T07:47:17.999Z</time></trkpt><trkpt lat="40.83590138885013" lon="14.645250341388063"><ele>867.0</ele><time>2026-04-19T07:47:18.999Z</time></trkpt><trkpt lat="40.83592575030149" lon="14.645395759277264"><ele>867.0</ele><time>2026-04-19T07:47:19.999Z</time></trkpt><trkpt lat="40.83595334179075" lon="14.645550708577751"><ele>867.0</ele><time>2026-04-19T07:47:20.999Z</time></trkpt><trkpt lat="40.83595612032519" lon="14.645741383451645"><ele>866.0</ele><time>2026-04-19T07:47:21.999Z</time></trkpt><trkpt lat="40.83594356182739" lon="14.645968869909277"><ele>865.0</ele><time>2026-04-19T07:47:22.999Z</time></trkpt><trkpt lat="40.835954242748166" lon="14.646211474074034"><ele>864.0</ele><time>2026-04-19T07:47:23.999Z</time></trkpt><trkpt lat="40.83597331643301" lon="14.646439978800966"><ele>868.0</ele><time>2026-04-19T07:47:24.999Z</time></trkpt><trkpt lat="40.835985097975694" lon="14.646652165737713"><ele>872.0</ele><time>2026-04-19T07:47:25.999Z</time></trkpt><trkpt lat="40.83598910978549" lon="14.646865914894935"><ele>876.0</ele><time>2026-04-19T07:47:26.999Z</time></trkpt><trkpt lat="40.835989443497105" lon="14.647077654236274"><ele>876.0</ele><time>2026-04-19T07:47:27.999Z</time></trkpt><trkpt lat="40.83599365230411" lon="14.647283739815382"><ele>876.0</ele><time>2026-04-19T07:47:28.999Z</time></trkpt><trkpt lat="40.836009823309844" lon="14.647487872192455"><ele>876.0</ele><time>2026-04-19T07:47:29.999Z</time></trkpt><trkpt lat="40.836039267049884" lon="14.64769723727331"><ele>873.0</ele><time>2026-04-19T07:47:30.999Z</time></trkpt><trkpt lat="40.83606392190671" lon="14.647907195149394"><ele>870.0</ele><time>2026-04-19T07:47:31.999Z</time></trkpt><trkpt lat="40.836075577076905" lon="14.648118751265628"><ele>867.0</ele><time>2026-04-19T07:47:32.999Z</time></trkpt><trkpt lat="40.83608470208743" lon="14.64833991989702"><ele>867.0</ele><time>2026-04-19T07:47:33.999Z</time></trkpt><trkpt lat="40.8360897977344" lon="14.648543277183448"><ele>867.0</ele><time>2026-04-19T07:47:34.999Z</time></trkpt><trkpt lat="40.836090138348595" lon="14.648727902771032"><ele>867.0</ele><time>2026-04-19T07:47:35.999Z</time></trkpt><trkpt lat="40.836084046616364" lon="14.64889746334009"><ele>867.0</ele><time>2026-04-19T07:47:36.999Z</time></trkpt><trkpt lat="40.836070885744306" lon="14.649073731333496"><ele>865.25</ele><time>2026-04-19T07:47:37.999Z</time></trkpt><trkpt lat="40.83606822633402" lon="14.649254094999343"><ele>863.5</ele><time>2026-04-19T07:47:38.999Z</time></trkpt><trkpt lat="40.83607763159073" lon="14.649427307935843"><ele>861.75</ele><time>2026-04-19T07:47:39.999Z</time></trkpt><trkpt lat="40.83609793925084" lon="14.649618177804536"><ele>860.0</ele><time>2026-04-19T07:47:40.999Z</time></trkpt><trkpt lat="40.83612684318649" lon="14.649815159879076"><ele>858.75</ele><time>2026-04-19T07:47:41.999Z</time></trkpt><trkpt lat="40.836148965238365" lon="14.649997971983753"><ele>857.5</ele><time>2026-04-19T07:47:42.999Z</time></trkpt><trkpt lat="40.83615941256824" lon="14.65015672501421"><ele>856.25</ele><time>2026-04-19T07:47:43.999Z</time></trkpt><trkpt lat="40.83617223732944" lon="14.650294216535524"><ele>855.0</ele><time>2026-04-19T07:47:44.999Z</time></trkpt><trkpt lat="40.836198130098644" lon="14.650419338905653"><ele>852.75</ele><time>2026-04-19T07:47:45.999Z</time></trkpt><trkpt lat="40.83624070176508" lon="14.650543444565747"><ele>850.5</ele><time>2026-04-19T07:47:46.999Z</time></trkpt><trkpt lat="40.83630497285932" lon="14.650644595543104"><ele>848.25</ele><time>2026-04-19T07:47:47.999Z</time></trkpt><trkpt lat="40.83639668088898" lon="14.650761457486789"><ele>846.0</ele><time>2026-04-19T07:47:48.999Z</time></trkpt><trkpt lat="40.83647352941026" lon="14.650905616824895"><ele>846.0</ele><time>2026-04-19T07:47:49.999Z</time></trkpt><trkpt lat="40.83652936113627" lon="14.651062293439622"><ele>846.0</ele><time>2026-04-19T07:47:50.999Z</time></trkpt><trkpt lat="40.836574206346555" lon="14.651235128194715"><ele>846.0</ele><time>2026-04-19T07:47:51.999Z</time></trkpt><trkpt lat="40.836614962428754" lon="14.651438905284966"><ele>846.0</ele><time>2026-04-19T07:47:52.999Z</time></trkpt><trkpt lat="40.83664231551668" lon="14.651650052126094"><ele>844.25</ele><time>2026-04-19T07:47:53.999Z</time></trkpt><trkpt lat="40.83665849093542" lon="14.651828425693918"><ele>842.5</ele><time>2026-04-19T07:47:54.999Z</time></trkpt><trkpt lat="40.83668072141127" lon="14.651976347737397"><ele>840.75</ele><time>2026-04-19T07:47:55.999Z</time></trkpt><trkpt lat="40.83672716427191" lon="14.652100120877993"><ele>839.0</ele><time>2026-04-19T07:47:56.999Z</time></trkpt><trkpt lat="40.83679936181741" lon="14.652206375931197"><ele>839.0</ele><time>2026-04-19T07:47:57.999Z</time></trkpt><trkpt lat="40.83688944532096" lon="14.652303637734391"><ele>839.0</ele><time>2026-04-19T07:47:58.999Z</time></trkpt><trkpt lat="40.83698824854161" lon="14.652407155060898"><ele>839.0</ele><time>2026-04-19T07:47:59.998Z</time></trkpt><trkpt lat="40.83708415217333" lon="14.652536752029446"><ele>839.0</ele><time>2026-04-19T07:48:00.998Z</time></trkpt><trkpt lat="40.83717186290738" lon="14.65269766001244"><ele>839.5</ele><time>2026-04-19T07:48:01.998Z</time></trkpt><trkpt lat="40.83723948101815" lon="14.652838358377185"><ele>840.0</ele><time>2026-04-19T07:48:02.998Z</time></trkpt><trkpt lat="40.83730881881973" lon="14.653013639799108"><ele>840.5</ele><time>2026-04-19T07:48:03.998Z</time></trkpt><trkpt lat="40.8374028097991" lon="14.653195875697774"><ele>841.0</ele><time>2026-04-19T07:48:04.998Z</time></trkpt><trkpt lat="40.837503708240504" lon="14.653365517020973"><ele>841.0</ele><time>2026-04-19T07:48:05.998Z</time></trkpt><trkpt lat="40.837611378673145" lon="14.653516883384876"><ele>841.0</ele><time>2026-04-19T07:48:06.998Z</time></trkpt><trkpt lat="40.83772656813401" lon="14.653657183100073"><ele>841.0</ele><time>2026-04-19T07:48:07.998Z</time></trkpt><trkpt lat="40.837850044207876" lon="14.653804084406215"><ele>841.5999999999999</ele><time>2026-04-19T07:48:08.998Z</time></trkpt><trkpt lat="40.83795390667158" lon="14.653936450962972"><ele>842.2</ele><time>2026-04-19T07:48:09.998Z</time></trkpt><trkpt lat="40.838039771746296" lon="14.654040580003263"><ele>842.8</ele><time>2026-04-19T07:48:10.998Z</time></trkpt><trkpt lat="40.83810389589226" lon="14.654122957434764"><ele>843.4000000000001</ele><time>2026-04-19T07:48:11.998Z</time></trkpt><trkpt lat="40.83815490823172" lon="14.65418225619309"><ele>844.0</ele><time>2026-04-19T07:48:12.998Z</time></trkpt><trkpt lat="40.83821981813198" lon="14.654278433539575"><ele>844.0</ele><time>2026-04-19T07:48:15Z</time></trkpt><trkpt lat="40.83818323466184" lon="14.654373972530625"><ele>844.0</ele><time>2026-04-19T07:48:18Z</time></trkpt><trkpt lat="40.83810364308946" lon="14.654419977158632"><ele>844.0</ele><time>2026-04-19T07:48:44Z</time></trkpt><trkpt lat="40.83795829718789" lon="14.65443447249529"><ele>844.0</ele><time>2026-04-19T07:48:46Z</time></trkpt><trkpt lat="40.83785473960528" lon="14.654453695668828"><ele>844.0</ele><time>2026-04-19T07:48:47Z</time></trkpt><trkpt lat="40.83772122856277" lon="14.654484239200224"><ele>844.3333333333333</ele><time>2026-04-19T07:48:48Z</time></trkpt><trkpt lat="40.83756659579775" lon="14.65452668723751"><ele>844.6666666666667</ele><time>2026-04-19T07:48:49Z</time></trkpt><trkpt lat="40.837394791504536" lon="14.654552406845713"><ele>845.0</ele><time>2026-04-19T07:48:50Z</time></trkpt><trkpt lat="40.83722405755134" lon="14.654552783556891"><ele>845.0</ele><time>2026-04-19T07:48:51Z</time></trkpt><trkpt lat="40.83708299058346" lon="14.654571912168937"><ele>845.0</ele><time>2026-04-19T07:48:52Z</time></trkpt><trkpt lat="40.83694172826327" lon="14.654583688648481"><ele>845.0</ele><time>2026-04-19T07:48:53Z</time></trkpt><trkpt lat="40.83678409377545" lon="14.654560925210486"><ele>845.0</ele><time>2026-04-19T07:48:54Z</time></trkpt><trkpt lat="40.83661294508268" lon="14.654498925749138"><ele>844.0</ele><time>2026-04-19T07:48:55Z</time></trkpt><trkpt lat="40.836425462672224" lon="14.654454057243683"><ele>843.0</ele><time>2026-04-19T07:48:56Z</time></trkpt><trkpt lat="40.836223907839546" lon="14.654435371600004"><ele>842.0</ele><time>2026-04-19T07:48:57Z</time></trkpt><trkpt lat="40.83604061925065" lon="14.6544216733061"><ele>841.3333333333334</ele><time>2026-04-19T07:48:58Z</time></trkpt><trkpt lat="40.83585610946423" lon="14.654406626799945"><ele>840.6666666666667</ele><time>2026-04-19T07:48:59Z</time></trkpt><trkpt lat="40.83566846577536" lon="14.654380499449772"><ele>840.0</ele><time>2026-04-19T07:49:00Z</time></trkpt><trkpt lat="40.83547861043272" lon="14.654344796303672"><ele>840.0</ele><time>2026-04-19T07:49:01Z</time></trkpt><trkpt lat="40.835299196902355" lon="14.654297734292651"><ele>840.0</ele><time>2026-04-19T07:49:02Z</time></trkpt><trkpt lat="40.83511734683182" lon="14.654270742180634"><ele>840.0</ele><time>2026-04-19T07:49:03Z</time></trkpt><trkpt lat="40.83495804620588" lon="14.654255546364634"><ele>840.0</ele><time>2026-04-19T07:49:04Z</time></trkpt><trkpt lat="40.83480704464872" lon="14.654230809171269"><ele>840.0</ele><time>2026-04-19T07:49:05Z</time></trkpt><trkpt lat="40.834672233024506" lon="14.65420431932095"><ele>840.0</ele><time>2026-04-19T07:49:06Z</time></trkpt><trkpt lat="40.83454145477109" lon="14.654169801505013"><ele>840.0</ele><time>2026-04-19T07:49:07Z</time></trkpt><trkpt lat="40.83441890116075" lon="14.654138917535112"><ele>840.3333333333333</ele><time>2026-04-19T07:49:08Z</time></trkpt><trkpt lat="40.8342890520501" lon="14.654117188715244"><ele>840.6666666666666</ele><time>2026-04-19T07:49:09Z</time></trkpt><trkpt lat="40.8341185195958" lon="14.654117435539616"><ele>841.0</ele><time>2026-04-19T07:49:10Z</time></trkpt><trkpt lat="40.83393853958411" lon="14.654082229772516"><ele>841.0</ele><time>2026-04-19T07:49:11Z</time></trkpt><trkpt lat="40.83378383199057" lon="14.654047441675868"><ele>841.0</ele><time>2026-04-19T07:49:11.999Z</time></trkpt><trkpt lat="40.83365088559689" lon="14.654028281771243"><ele>841.0</ele><time>2026-04-19T07:49:12.999Z</time></trkpt><trkpt lat="40.833530311131184" lon="14.65402686025043"><ele>841.0</ele><time>2026-04-19T07:49:13.999Z</time></trkpt><trkpt lat="40.83342260370775" lon="14.65401738704573"><ele>840.75</ele><time>2026-04-19T07:49:14.999Z</time></trkpt><trkpt lat="40.83332532582173" lon="14.653988086669216"><ele>840.5</ele><time>2026-04-19T07:49:15.999Z</time></trkpt><trkpt lat="40.83322322365869" lon="14.653959385288639"><ele>840.25</ele><time>2026-04-19T07:49:16.999Z</time></trkpt><trkpt lat="40.83310081466658" lon="14.653930883850272"><ele>840.0</ele><time>2026-04-19T07:49:17.999Z</time></trkpt><trkpt lat="40.83294504989494" lon="14.653901625122591"><ele>840.0</ele><time>2026-04-19T07:49:18.999Z</time></trkpt><trkpt lat="40.832804086003456" lon="14.653879304871406"><ele>840.0</ele><time>2026-04-19T07:49:19.999Z</time></trkpt><trkpt lat="40.832656582933964" lon="14.65384550050325"><ele>840.0</ele><time>2026-04-19T07:49:20.999Z</time></trkpt><trkpt lat="40.83248735627063" lon="14.653802585415153"><ele>841.0</ele><time>2026-04-19T07:49:21.999Z</time></trkpt><trkpt lat="40.83231124202096" lon="14.65375344926595"><ele>842.0</ele><time>2026-04-19T07:49:22.999Z</time></trkpt><trkpt lat="40.83214668041172" lon="14.653714918839878"><ele>843.0</ele><time>2026-04-19T07:49:23.999Z</time></trkpt><trkpt lat="40.831987621456086" lon="14.653671550486782"><ele>843.0</ele><time>2026-04-19T07:49:24.999Z</time></trkpt><trkpt lat="40.83183517028822" lon="14.653628535966833"><ele>843.0</ele><time>2026-04-19T07:49:25.999Z</time></trkpt><trkpt lat="40.83171481588539" lon="14.653578686761175"><ele>843.0</ele><time>2026-04-19T07:49:26.999Z</time></trkpt><trkpt lat="40.83161084465466" lon="14.653517009379163"><ele>843.0</ele><time>2026-04-19T07:49:27.999Z</time></trkpt><trkpt lat="40.83150026784057" lon="14.653481390654104"><ele>842.75</ele><time>2026-04-19T07:49:28.999Z</time></trkpt><trkpt lat="40.831340064015805" lon="14.653441329913788"><ele>842.5</ele><time>2026-04-19T07:49:29.999Z</time></trkpt><trkpt lat="40.83119184265366" lon="14.653404422330919"><ele>842.25</ele><time>2026-04-19T07:49:30.999Z</time></trkpt><trkpt lat="40.83108193183035" lon="14.653335558348004"><ele>842.0</ele><time>2026-04-19T07:49:31.999Z</time></trkpt><trkpt lat="40.83093287146542" lon="14.653234169639356"><ele>842.0</ele><time>2026-04-19T07:49:32.999Z</time></trkpt><trkpt lat="40.830760376071076" lon="14.65316017549294"><ele>842.0</ele><time>2026-04-19T07:49:33.999Z</time></trkpt><trkpt lat="40.830627554509626" lon="14.653113860407935"><ele>842.0</ele><time>2026-04-19T07:49:34.999Z</time></trkpt><trkpt lat="40.8305278447045" lon="14.653077763571563"><ele>842.0</ele><time>2026-04-19T07:49:35.999Z</time></trkpt><trkpt lat="40.830439061547914" lon="14.653048197941759"><ele>842.0</ele><time>2026-04-19T07:49:36.999Z</time></trkpt><trkpt lat="40.830333424342456" lon="14.653021897024155"><ele>842.0</ele><time>2026-04-19T07:49:37.999Z</time></trkpt><trkpt lat="40.83023673609732" lon="14.652989200023171"><ele>842.0</ele><time>2026-04-19T07:49:38.999Z</time></trkpt><trkpt lat="40.83013732058728" lon="14.652969061595053"><ele>842.0</ele><time>2026-04-19T07:49:39.999Z</time></trkpt><trkpt lat="40.83003269424521" lon="14.652978549812321"><ele>842.0</ele><time>2026-04-19T07:49:40.999Z</time></trkpt><trkpt lat="40.8299306367163" lon="14.653006097220999"><ele>842.5</ele><time>2026-04-19T07:49:41.999Z</time></trkpt><trkpt lat="40.82982268400849" lon="14.653054248725562"><ele>843.0</ele><time>2026-04-19T07:49:42.999Z</time></trkpt><trkpt lat="40.82969528053892" lon="14.653123306844204"><ele>843.5</ele><time>2026-04-19T07:49:43.999Z</time></trkpt><trkpt lat="40.82954703800561" lon="14.653172282894095"><ele>844.0</ele><time>2026-04-19T07:49:44.999Z</time></trkpt><trkpt lat="40.82939681680246" lon="14.65322593545431"><ele>845.25</ele><time>2026-04-19T07:49:45.999Z</time></trkpt><trkpt lat="40.829250295695296" lon="14.653281274017855"><ele>846.5</ele><time>2026-04-19T07:49:46.999Z</time></trkpt><trkpt lat="40.829118780858586" lon="14.653326891820686"><ele>847.75</ele><time>2026-04-19T07:49:47.999Z</time></trkpt><trkpt lat="40.82902250787543" lon="14.653358730730371"><ele>849.0</ele><time>2026-04-19T07:49:48.999Z</time></trkpt><trkpt lat="40.82893929001414" lon="14.653402339150862"><ele>849.0</ele><time>2026-04-19T07:49:49.999Z</time></trkpt><trkpt lat="40.82886082310696" lon="14.653445585219709"><ele>849.0</ele><time>2026-04-19T07:49:50.999Z</time></trkpt><trkpt lat="40.828796930216974" lon="14.653468757654059"><ele>849.0</ele><time>2026-04-19T07:49:51.999Z</time></trkpt><trkpt lat="40.82867795331146" lon="14.653453827987812"><ele>849.0</ele><time>2026-04-19T07:49:53.999Z</time></trkpt><trkpt lat="40.828599577553966" lon="14.653434914011152"><ele>849.0</ele><time>2026-04-19T07:49:54.999Z</time></trkpt><trkpt lat="40.82850430556629" lon="14.653442702173654"><ele>849.0</ele><time>2026-04-19T07:49:55.999Z</time></trkpt><trkpt lat="40.82842375729352" lon="14.653457770510535"><ele>850.8000000000001</ele><time>2026-04-19T07:49:56.999Z</time></trkpt><trkpt lat="40.82835814690664" lon="14.65346028858977"><ele>852.6</ele><time>2026-04-19T07:49:57.999Z</time></trkpt><trkpt lat="40.828237192499664" lon="14.653458977281586"><ele>854.4</ele><time>2026-04-19T07:49:59.999Z</time></trkpt><trkpt lat="40.828157607184885" lon="14.653479627462008"><ele>856.2</ele><time>2026-04-19T07:50:00.999Z</time></trkpt><trkpt lat="40.82805535496212" lon="14.653512503294845"><ele>858.0</ele><time>2026-04-19T07:50:01.999Z</time></trkpt><trkpt lat="40.82796178326444" lon="14.653540370787406"><ele>858.0</ele><time>2026-04-19T07:50:02.999Z</time></trkpt><trkpt lat="40.82788408950617" lon="14.653551455273057"><ele>858.0</ele><time>2026-04-19T07:50:03.999Z</time></trkpt><trkpt lat="40.82781148328716" lon="14.653570960981934"><ele>858.0</ele><time>2026-04-19T07:50:04.999Z</time></trkpt><trkpt lat="40.827726257327086" lon="14.653585707511496"><ele>858.0</ele><time>2026-04-19T07:50:05.999Z</time></trkpt><trkpt lat="40.82764566658352" lon="14.653594771259328"><ele>858.0</ele><time>2026-04-19T07:50:06.999Z</time></trkpt><trkpt lat="40.82755787023929" lon="14.653608174295332"><ele>858.0</ele><time>2026-04-19T07:50:07.999Z</time></trkpt><trkpt lat="40.82747235682718" lon="14.65361932396993"><ele>861.5</ele><time>2026-04-19T07:50:08.999Z</time></trkpt><trkpt lat="40.827384245273535" lon="14.653652392444808"><ele>865.0</ele><time>2026-04-19T07:50:09.999Z</time></trkpt><trkpt lat="40.82730548087455" lon="14.653686606178503"><ele>868.5</ele><time>2026-04-19T07:50:10.999Z</time></trkpt><trkpt lat="40.8272321513569" lon="14.653749702436555"><ele>872.0</ele><time>2026-04-19T07:50:11.999Z</time></trkpt><trkpt lat="40.827161889597654" lon="14.653800189415401"><ele>875.5</ele><time>2026-04-19T07:50:13.998Z</time></trkpt><trkpt lat="40.82709142325861" lon="14.653829981898273"><ele>879.0</ele><time>2026-04-19T07:51:14Z</time></trkpt><trkpt lat="40.82696558123589" lon="14.65383082991266"><ele>879.0</ele><time>2026-04-19T07:51:16Z</time></trkpt><trkpt lat="40.82689575069608" lon="14.65382252075957"><ele>879.0</ele><time>2026-04-19T07:51:17Z</time></trkpt><trkpt lat="40.82682914076144" lon="14.653797033850331"><ele>879.0</ele><time>2026-04-19T07:51:18Z</time></trkpt><trkpt lat="40.826704661150416" lon="14.653814300878848"><ele>879.0</ele><time>2026-04-19T07:51:19.999Z</time></trkpt><trkpt lat="40.82661566780747" lon="14.653827769515862"><ele>879.0</ele><time>2026-04-19T07:51:20.999Z</time></trkpt><trkpt lat="40.826523432607246" lon="14.653816840872759"><ele>879.0</ele><time>2026-04-19T07:51:21.999Z</time></trkpt><trkpt lat="40.82643706681308" lon="14.653813911978013"><ele>881.2</ele><time>2026-04-19T07:51:22.999Z</time></trkpt><trkpt lat="40.82630274197821" lon="14.65384479103141"><ele>883.4000000000001</ele><time>2026-04-19T07:51:24.999Z</time></trkpt><trkpt lat="40.82624467224693" lon="14.653901141028234"><ele>885.6</ele><time>2026-04-19T07:51:26.999Z</time></trkpt><trkpt lat="40.82621561262558" lon="14.654035295262693"><ele>887.8</ele><time>2026-04-19T07:51:30.999Z</time></trkpt><trkpt lat="40.82622212829531" lon="14.654150545920523"><ele>890.0</ele><time>2026-04-19T07:51:31.999Z</time></trkpt><trkpt lat="40.826225376220066" lon="14.654238839002732"><ele>890.0000000000001</ele><time>2026-04-19T07:51:32.999Z</time></trkpt><trkpt lat="40.826196912056666" lon="14.654386363629802"><ele>890.0</ele><time>2026-04-19T07:51:34.999Z</time></trkpt><trkpt lat="40.82614802129343" lon="14.654518395909404"><ele>890.0</ele><time>2026-04-19T07:51:36.999Z</time></trkpt><trkpt lat="40.826121155771204" lon="14.654602319211335"><ele>890.0</ele><time>2026-04-19T07:51:37.999Z</time></trkpt><trkpt lat="40.826105528290825" lon="14.654696996475025"><ele>890.0000000000001</ele><time>2026-04-19T07:51:38.999Z</time></trkpt><trkpt lat="40.82610204890262" lon="14.654797094981026"><ele>890.0</ele><time>2026-04-19T07:51:39.999Z</time></trkpt><trkpt lat="40.8261092374297" lon="14.654888331605516"><ele>892.0</ele><time>2026-04-19T07:51:40.999Z</time></trkpt><trkpt lat="40.82609656151441" lon="14.655048333402755"><ele>894.0</ele><time>2026-04-19T07:51:42.999Z</time></trkpt><trkpt lat="40.82607886058637" lon="14.655208902573165"><ele>896.0</ele><time>2026-04-19T07:51:44.999Z</time></trkpt><trkpt lat="40.82606178335622" lon="14.65530638085018"><ele>898.0</ele><time>2026-04-19T07:51:45.999Z</time></trkpt><trkpt lat="40.82601384897161" lon="14.65538079277824"><ele>900.0</ele><time>2026-04-19T07:51:46.999Z</time></trkpt><trkpt lat="40.82595246379635" lon="14.655462680500518"><ele>900.0000000000001</ele><time>2026-04-19T07:51:47.999Z</time></trkpt><trkpt lat="40.82591320321375" lon="14.655535838090291"><ele>900.0</ele><time>2026-04-19T07:51:48.999Z</time></trkpt><trkpt lat="40.8259005615892" lon="14.655620817483321"><ele>900.0000000000001</ele><time>2026-04-19T07:51:49.999Z</time></trkpt><trkpt lat="40.82589329175942" lon="14.655723892811594"><ele>900.0000000000001</ele><time>2026-04-19T07:51:50.999Z</time></trkpt><trkpt lat="40.82587560232848" lon="14.655812288220442"><ele>900.0</ele><time>2026-04-19T07:51:51.999Z</time></trkpt><trkpt lat="40.82583992603639" lon="14.655903798339688"><ele>900.0000000000001</ele><time>2026-04-19T07:51:52.999Z</time></trkpt><trkpt lat="40.82578798095623" lon="14.65598113330414"><ele>900.0000000000001</ele><time>2026-04-19T07:51:53.999Z</time></trkpt><trkpt lat="40.82573508704338" lon="14.656050133675421"><ele>900.0</ele><time>2026-04-19T07:51:54.999Z</time></trkpt><trkpt lat="40.82568120183846" lon="14.656108702037207"><ele>900.0</ele><time>2026-04-19T07:51:55.999Z</time></trkpt><trkpt lat="40.825621899133765" lon="14.65617380225933"><ele>900.0</ele><time>2026-04-19T07:51:56.999Z</time></trkpt><trkpt lat="40.82556152770495" lon="14.656251647318106"><ele>900.0</ele><time>2026-04-19T07:51:57.999Z</time></trkpt><trkpt lat="40.82550437263316" lon="14.656316492171793"><ele>900.0</ele><time>2026-04-19T07:51:58.999Z</time></trkpt><trkpt lat="40.825442200739" lon="14.65640248265653"><ele>900.0</ele><time>2026-04-19T07:52:00.999Z</time></trkpt><trkpt lat="40.825425803478794" lon="14.656504256743302"><ele>904.0</ele><time>2026-04-19T07:52:01.999Z</time></trkpt><trkpt lat="40.82541186268172" lon="14.656592186436022"><ele>908.0</ele><time>2026-04-19T07:52:02.999Z</time></trkpt><trkpt lat="40.8253927359919" lon="14.65674123527878"><ele>912.0</ele><time>2026-04-19T07:52:04.999Z</time></trkpt><trkpt lat="40.825368638520914" lon="14.656836019661794"><ele>916.0</ele><time>2026-04-19T07:52:05.999Z</time></trkpt><trkpt lat="40.82533105112883" lon="14.656922514241005"><ele>920.0</ele><time>2026-04-19T07:52:06.999Z</time></trkpt><trkpt lat="40.82530855232135" lon="14.657008511403664"><ele>924.0</ele><time>2026-04-19T07:52:07.999Z</time></trkpt><trkpt lat="40.825308063007085" lon="14.657102785341234"><ele>925.0</ele><time>2026-04-19T07:52:08.999Z</time></trkpt><trkpt lat="40.825325884552036" lon="14.657206292731745"><ele>926.0</ele><time>2026-04-19T07:52:09.999Z</time></trkpt><trkpt lat="40.82534574069157" lon="14.657303218420056"><ele>927.0</ele><time>2026-04-19T07:52:10.999Z</time></trkpt><trkpt lat="40.825363500249594" lon="14.657413888722997"><ele>928.0</ele><time>2026-04-19T07:52:11.999Z</time></trkpt><trkpt lat="40.825386874293855" lon="14.65752750646232"><ele>929.0</ele><time>2026-04-19T07:52:12.999Z</time></trkpt><trkpt lat="40.825419496992026" lon="14.657643315842511"><ele>930.0</ele><time>2026-04-19T07:52:13.999Z</time></trkpt><trkpt lat="40.82545303333935" lon="14.657738782436878"><ele>927.1666666666666</ele><time>2026-04-19T07:52:14.999Z</time></trkpt><trkpt lat="40.82548892714432" lon="14.657823545149371"><ele>924.3333333333333</ele><time>2026-04-19T07:52:15.999Z</time></trkpt><trkpt lat="40.82554850220907" lon="14.657919815613365"><ele>921.5</ele><time>2026-04-19T07:52:16.999Z</time></trkpt><trkpt lat="40.825612510453524" lon="14.65801101497309"><ele>918.6666666666666</ele><time>2026-04-19T07:52:17.999Z</time></trkpt><trkpt lat="40.825682974650455" lon="14.658093051617287"><ele>915.8333333333333</ele><time>2026-04-19T07:52:18.999Z</time></trkpt><trkpt lat="40.82575215411071" lon="14.658146213961116"><ele>913.0</ele><time>2026-04-19T07:52:19.999Z</time></trkpt><trkpt lat="40.82580776769759" lon="14.658196582486077"><ele>912.9999999999999</ele><time>2026-04-19T07:52:20.999Z</time></trkpt><trkpt lat="40.82587229354459" lon="14.658255704531916"><ele>913.0</ele><time>2026-04-19T07:52:21.999Z</time></trkpt><trkpt lat="40.82593006049454" lon="14.658311138417695"><ele>912.9999999999999</ele><time>2026-04-19T07:52:22.998Z</time></trkpt><trkpt lat="40.82598272675269" lon="14.658365979632192"><ele>912.9999999999999</ele><time>2026-04-19T07:52:23.998Z</time></trkpt><trkpt lat="40.82603824573129" lon="14.65840695662674"><ele>913.0</ele><time>2026-04-19T07:52:24.998Z</time></trkpt><trkpt lat="40.82609693998085" lon="14.65845094059109"><ele>912.9999999999999</ele><time>2026-04-19T07:52:26Z</time></trkpt><trkpt lat="40.82615218891645" lon="14.658495471178332"><ele>912.9999999999999</ele><time>2026-04-19T07:52:27Z</time></trkpt><trkpt lat="40.82623895728407" lon="14.658593093495897"><ele>912.1666666666666</ele><time>2026-04-19T07:52:29Z</time></trkpt><trkpt lat="40.826311231138696" lon="14.658649004045559"><ele>911.3333333333333</ele><time>2026-04-19T07:52:31Z</time></trkpt><trkpt lat="40.82638685128634" lon="14.658697443995775"><ele>910.5</ele><time>2026-04-19T07:52:34Z</time></trkpt><trkpt lat="40.826317371438556" lon="14.6587402782373"><ele>909.6666666666667</ele><time>2026-04-19T07:53:37.999Z</time></trkpt><trkpt lat="40.82624335859448" lon="14.658755737595085"><ele>908.8333333333334</ele><time>2026-04-19T07:53:40.999Z</time></trkpt><trkpt lat="40.82617880164186" lon="14.658757502528868"><ele>908.0</ele><time>2026-04-19T07:53:42.999Z</time></trkpt><trkpt lat="40.82610091924356" lon="14.658761186134587"><ele>908.0</ele><time>2026-04-19T07:53:44.999Z</time></trkpt><trkpt lat="40.826027792429436" lon="14.65874837243155"><ele>908.0000000000001</ele><time>2026-04-19T07:53:46.999Z</time></trkpt><trkpt lat="40.82594252879379" lon="14.658735400061678"><ele>908.0</ele><time>2026-04-19T07:53:50.999Z</time></trkpt><trkpt lat="40.82588020207348" lon="14.658755938656912"><ele>908.0</ele><time>2026-04-19T07:54:03.999Z</time></trkpt><trkpt lat="40.8258068020417" lon="14.658781381058926"><ele>908.0000000000001</ele><time>2026-04-19T07:54:06.999Z</time></trkpt><trkpt lat="40.82573310293673" lon="14.658794359808295"><ele>908.0</ele><time>2026-04-19T07:54:08.999Z</time></trkpt><trkpt lat="40.82565976883918" lon="14.65880291205287"><ele>908.0</ele><time>2026-04-19T07:54:12.999Z</time></trkpt><trkpt lat="40.82559518478911" lon="14.658816550208956"><ele>905.4285714285714</ele><time>2026-04-19T07:54:15.999Z</time></trkpt><trkpt lat="40.82552781653735" lon="14.658825133097245"><ele>902.8571428571429</ele><time>2026-04-19T07:54:18.999Z</time></trkpt><trkpt lat="40.8254388459761" lon="14.658831342649549"><ele>900.2857142857143</ele><time>2026-04-19T07:55:10Z</time></trkpt><trkpt lat="40.82546581427999" lon="14.658918271332507"><ele>897.7142857142858</ele><time>2026-04-19T07:55:32Z</time></trkpt><trkpt lat="40.8254083710533" lon="14.658958708817309"><ele>895.1428571428571</ele><time>2026-04-19T07:56:03.999Z</time></trkpt><trkpt lat="40.825347525667105" lon="14.658933149566632"><ele>892.5714285714287</ele><time>2026-04-19T07:56:07.999Z</time></trkpt><trkpt lat="40.8252879254063" lon="14.65890279201941"><ele>890.0</ele><time>2026-04-19T07:57:26.999Z</time></trkpt><trkpt lat="40.8252358141547" lon="14.658798444378913"><ele>890.0</ele><time>2026-04-19T07:57:31.999Z</time></trkpt><trkpt lat="40.82520545299264" lon="14.658707580980359"><ele>890.0</ele><time>2026-04-19T07:57:33.999Z</time></trkpt><trkpt lat="40.825140148934054" lon="14.658680534059807"><ele>890.0</ele><time>2026-04-19T07:57:38.999Z</time></trkpt><trkpt lat="40.825121289746214" lon="14.658778911012826"><ele>890.0</ele><time>2026-04-19T07:57:44.999Z</time></trkpt><trkpt lat="40.82512252868971" lon="14.658868931397434"><ele>890.0</ele><time>2026-04-19T07:57:49.998Z</time></trkpt><trkpt lat="40.82512380910663" lon="14.658961599875642"><ele>890.0</ele><time>2026-04-19T07:57:54.998Z</time></trkpt><trkpt lat="40.82512496474728" lon="14.6590552647464"><ele>890.0</ele><time>2026-04-19T07:57:59.998Z</time></trkpt><trkpt lat="40.82509648270274" lon="14.659143805738832"><ele>887.1428571428572</ele><time>2026-04-19T07:58:02.998Z</time></trkpt><trkpt lat="40.82507060989466" lon="14.659252238472773"><ele>884.2857142857142</ele><time>2026-04-19T07:58:05.998Z</time></trkpt><trkpt lat="40.82505504671616" lon="14.659333050251018"><ele>881.4285714285714</ele><time>2026-04-19T07:58:11.998Z</time></trkpt><trkpt lat="40.82502251685101" lon="14.659415382230462"><ele>878.5714285714287</ele><time>2026-04-19T07:58:15.998Z</time></trkpt><trkpt lat="40.824977415235615" lon="14.659497038040731"><ele>875.7142857142858</ele><time>2026-04-19T07:58:18.998Z</time></trkpt><trkpt lat="40.82491975542877" lon="14.659550135045826"><ele>872.8571428571429</ele><time>2026-04-19T07:58:21.998Z</time></trkpt><trkpt lat="40.824864306830705" lon="14.659603825507821"><ele>870.0</ele><time>2026-04-19T07:58:26.998Z</time></trkpt><trkpt lat="40.82480853242138" lon="14.659651905273536"><ele>869.1428571428572</ele><time>2026-04-19T07:58:31.998Z</time></trkpt><trkpt lat="40.824766899298076" lon="14.659720460775837"><ele>868.2857142857143</ele><time>2026-04-19T07:58:34.998Z</time></trkpt><trkpt lat="40.82474480216497" lon="14.659801283589747"><ele>867.4285714285714</ele><time>2026-04-19T07:58:37.998Z</time></trkpt><trkpt lat="40.82473403402264" lon="14.659912333828084"><ele>866.5714285714287</ele><time>2026-04-19T07:58:41.998Z</time></trkpt><trkpt lat="40.82468355412417" lon="14.65998351559681"><ele>865.7142857142857</ele><time>2026-04-19T07:58:45Z</time></trkpt><trkpt lat="40.824624370814846" lon="14.660018457376948"><ele>864.8571428571429</ele><time>2026-04-19T07:58:47Z</time></trkpt><trkpt lat="40.82461218742946" lon="14.660126188687224"><ele>864.0</ele><time>2026-04-19T07:58:57Z</time></trkpt><trkpt lat="40.82457444993721" lon="14.660229324164769"><ele>861.6</ele><time>2026-04-19T07:58:59Z</time></trkpt><trkpt lat="40.824543856852024" lon="14.660318066009651"><ele>859.2</ele><time>2026-04-19T07:59:00.999Z</time></trkpt><trkpt lat="40.824521515351044" lon="14.660415308377907"><ele>856.8000000000001</ele><time>2026-04-19T07:59:02.999Z</time></trkpt><trkpt lat="40.82446532544112" lon="14.660543306325573"><ele>854.4000000000001</ele><time>2026-04-19T07:59:04.999Z</time></trkpt><trkpt lat="40.82441841929714" lon="14.660704268386926"><ele>852.0</ele><time>2026-04-19T07:59:06.999Z</time></trkpt><trkpt lat="40.824407280644394" lon="14.660786518363846"><ele>852.0</ele><time>2026-04-19T07:59:07.999Z</time></trkpt><trkpt lat="40.824378544931726" lon="14.660925174340859"><ele>852.0</ele><time>2026-04-19T07:59:09.999Z</time></trkpt><trkpt lat="40.82434969626962" lon="14.661053556737492"><ele>852.0</ele><time>2026-04-19T07:59:11.999Z</time></trkpt><trkpt lat="40.82434088529838" lon="14.661208837724402"><ele>852.0</ele><time>2026-04-19T07:59:13.999Z</time></trkpt><trkpt lat="40.82433084274056" lon="14.661291591738745"><ele>852.0</ele><time>2026-04-19T07:59:14.999Z</time></trkpt><trkpt lat="40.82431584867009" lon="14.661469561541399"><ele>849.5714285714286</ele><time>2026-04-19T07:59:16.999Z</time></trkpt><trkpt lat="40.824301198168016" lon="14.66156424531547"><ele>847.1428571428571</ele><time>2026-04-19T07:59:17.999Z</time></trkpt><trkpt lat="40.82428386661107" lon="14.661651911642362"><ele>844.7142857142858</ele><time>2026-04-19T07:59:18.999Z</time></trkpt><trkpt lat="40.82424761281586" lon="14.661747066799816"><ele>842.2857142857142</ele><time>2026-04-19T07:59:19.999Z</time></trkpt><trkpt lat="40.82420035733259" lon="14.661816558598497"><ele>839.8571428571429</ele><time>2026-04-19T07:59:20.999Z</time></trkpt><trkpt lat="40.82416154830165" lon="14.661894960956767"><ele>837.4285714285714</ele><time>2026-04-19T07:59:21.999Z</time></trkpt><trkpt lat="40.82411711548348" lon="14.661970937952733"><ele>835.0</ele><time>2026-04-19T07:59:22.999Z</time></trkpt><trkpt lat="40.824068902936766" lon="14.662045980341528"><ele>834.9999999999999</ele><time>2026-04-19T07:59:23.999Z</time></trkpt><trkpt lat="40.824013998104654" lon="14.662132503854217"><ele>835.0</ele><time>2026-04-19T07:59:24.999Z</time></trkpt><trkpt lat="40.82397174562533" lon="14.66220968460974"><ele>835.0</ele><time>2026-04-19T07:59:25.999Z</time></trkpt><trkpt lat="40.82393429306907" lon="14.662296096037052"><ele>835.0</ele><time>2026-04-19T07:59:26.999Z</time></trkpt><trkpt lat="40.8239001183225" lon="14.662389629795918"><ele>834.9999999999999</ele><time>2026-04-19T07:59:27.999Z</time></trkpt><trkpt lat="40.82386094462887" lon="14.662496618086413"><ele>835.0</ele><time>2026-04-19T07:59:28.999Z</time></trkpt><trkpt lat="40.82381762311962" lon="14.662603335738018"><ele>835.0</ele><time>2026-04-19T07:59:29.999Z</time></trkpt><trkpt lat="40.823785873570834" lon="14.662695826363594"><ele>835.0</ele><time>2026-04-19T07:59:30.999Z</time></trkpt><trkpt lat="40.823748777333165" lon="14.66282156821992"><ele>835.0</ele><time>2026-04-19T07:59:31.999Z</time></trkpt><trkpt lat="40.823659811047726" lon="14.663141947973976"><ele>835.0</ele><time>2026-04-19T07:59:32.999Z</time></trkpt><trkpt lat="40.823614716863155" lon="14.663290376738644"><ele>834.25</ele><time>2026-04-19T07:59:33.999Z</time></trkpt><trkpt lat="40.823570785606016" lon="14.663438571323553"><ele>833.5</ele><time>2026-04-19T07:59:34.999Z</time></trkpt><trkpt lat="40.82352389655421" lon="14.663581116362193"><ele>832.75</ele><time>2026-04-19T07:59:35.999Z</time></trkpt><trkpt lat="40.82346423968773" lon="14.663692497348224"><ele>832.0</ele><time>2026-04-19T07:59:36.999Z</time></trkpt><trkpt lat="40.823399414155716" lon="14.663841177236868"><ele>831.4000000000001</ele><time>2026-04-19T07:59:37.999Z</time></trkpt><trkpt lat="40.82333398113233" lon="14.664010421846314"><ele>830.8000000000001</ele><time>2026-04-19T07:59:38.999Z</time></trkpt><trkpt lat="40.82328252978257" lon="14.66415891301765"><ele>830.2</ele><time>2026-04-19T07:59:39.999Z</time></trkpt><trkpt lat="40.82322556436616" lon="14.664260711546039"><ele>829.6</ele><time>2026-04-19T07:59:40.999Z</time></trkpt><trkpt lat="40.82317249631451" lon="14.664337572266781"><ele>829.0</ele><time>2026-04-19T07:59:41.999Z</time></trkpt><trkpt lat="40.8231243023446" lon="14.664419975783048"><ele>829.1666666666666</ele><time>2026-04-19T07:59:42.999Z</time></trkpt><trkpt lat="40.82306768560529" lon="14.664503047554573"><ele>829.3333333333333</ele><time>2026-04-19T07:59:43.999Z</time></trkpt><trkpt lat="40.82300313581187" lon="14.664587029145967"><ele>829.5</ele><time>2026-04-19T07:59:44.999Z</time></trkpt><trkpt lat="40.82293826939511" lon="14.664666320980643"><ele>829.6666666666667</ele><time>2026-04-19T07:59:45.999Z</time></trkpt><trkpt lat="40.82288080450442" lon="14.664750725252656"><ele>829.8333333333334</ele><time>2026-04-19T07:59:46.999Z</time></trkpt><trkpt lat="40.822834349944294" lon="14.664841569968539"><ele>830.0</ele><time>2026-04-19T07:59:47.999Z</time></trkpt><trkpt lat="40.82279933128144" lon="14.664949819554392"><ele>830.0000000000001</ele><time>2026-04-19T07:59:48.999Z</time></trkpt><trkpt lat="40.822748927595036" lon="14.665066675213167"><ele>830.0</ele><time>2026-04-19T07:59:49.999Z</time></trkpt><trkpt lat="40.822700252901186" lon="14.665169871262512"><ele>830.0</ele><time>2026-04-19T07:59:50.999Z</time></trkpt><trkpt lat="40.822660106604125" lon="14.66526159251816"><ele>830.0</ele><time>2026-04-19T07:59:51.999Z</time></trkpt><trkpt lat="40.82261671494816" lon="14.665347310941037"><ele>830.0000000000001</ele><time>2026-04-19T07:59:52.999Z</time></trkpt><trkpt lat="40.822569959981735" lon="14.665443702998946"><ele>830.0</ele><time>2026-04-19T07:59:53.999Z</time></trkpt><trkpt lat="40.82252870835223" lon="14.66553863213406"><ele>827.5714285714286</ele><time>2026-04-19T07:59:54.999Z</time></trkpt><trkpt lat="40.82250180801647" lon="14.665628157700901"><ele>825.1428571428571</ele><time>2026-04-19T07:59:55.999Z</time></trkpt><trkpt lat="40.82247138462729" lon="14.665701747371063"><ele>822.7142857142858</ele><time>2026-04-19T07:59:56.999Z</time></trkpt><trkpt lat="40.82240967708957" lon="14.665779406890522"><ele>820.2857142857142</ele><time>2026-04-19T07:59:58.999Z</time></trkpt><trkpt lat="40.82245448297997" lon="14.665875868448211"><ele>817.8571428571428</ele><time>2026-04-19T08:00:00.999Z</time></trkpt><trkpt lat="40.82251812524055" lon="14.665910880424295"><ele>815.4285714285714</ele><time>2026-04-19T08:00:02.999Z</time></trkpt><trkpt lat="40.82254443057073" lon="14.665998778250557"><ele>813.0</ele><time>2026-04-19T08:00:04.998Z</time></trkpt><trkpt lat="40.82255844785096" lon="14.666091601354672"><ele>811.0</ele><time>2026-04-19T08:00:06.998Z</time></trkpt><trkpt lat="40.82241078144229" lon="14.666181340881252"><ele>809.0</ele><time>2026-04-19T08:00:09.998Z</time></trkpt><trkpt lat="40.822353802134344" lon="14.666229332385578"><ele>807.0</ele><time>2026-04-19T08:00:11.998Z</time></trkpt><trkpt lat="40.82227449627678" lon="14.66632149442853"><ele>805.0</ele><time>2026-04-19T08:00:13.998Z</time></trkpt><trkpt lat="40.82229244128798" lon="14.666414541474813"><ele>803.0</ele><time>2026-04-19T08:00:14.998Z</time></trkpt><trkpt lat="40.82227979740727" lon="14.66656436499194"><ele>803.0000000000001</ele><time>2026-04-19T08:00:16.998Z</time></trkpt><trkpt lat="40.82234077281255" lon="14.666670360677175"><ele>803.0</ele><time>2026-04-19T08:00:18.998Z</time></trkpt><trkpt lat="40.82240541883825" lon="14.666805833622613"><ele>803.0</ele><time>2026-04-19T08:00:20.998Z</time></trkpt><trkpt lat="40.822431652699045" lon="14.666885134007169"><ele>803.0</ele><time>2026-04-19T08:00:21.998Z</time></trkpt><trkpt lat="40.82245240109311" lon="14.666973040748507"><ele>803.0000000000001</ele><time>2026-04-19T08:00:22.998Z</time></trkpt><trkpt lat="40.82245304415346" lon="14.667068913788617"><ele>803.0</ele><time>2026-04-19T08:00:23.998Z</time></trkpt><trkpt lat="40.82244372129884" lon="14.667151536870605"><ele>801.5000000000001</ele><time>2026-04-19T08:00:24.998Z</time></trkpt><trkpt lat="40.82243233911989" lon="14.667234504054901"><ele>800.0</ele><time>2026-04-19T08:00:25.998Z</time></trkpt><trkpt lat="40.82238930044032" lon="14.667335680875716"><ele>798.5</ele><time>2026-04-19T08:00:26.998Z</time></trkpt><trkpt lat="40.822357038066365" lon="14.667429792526992"><ele>797.0</ele><time>2026-04-19T08:00:27.998Z</time></trkpt><trkpt lat="40.82234340724322" lon="14.667528032631228"><ele>795.5000000000001</ele><time>2026-04-19T08:00:28.998Z</time></trkpt><trkpt lat="40.82235752472366" lon="14.667668315003073"><ele>794.0</ele><time>2026-04-19T08:00:30.998Z</time></trkpt><trkpt lat="40.822427388468036" lon="14.667587419111042"><ele>794.0000000000001</ele><time>2026-04-19T08:05:35.999Z</time></trkpt><trkpt lat="40.82245552029877" lon="14.667664894314845"><ele>794.0</ele><time>2026-04-19T08:08:49.998Z</time></trkpt><trkpt lat="40.82253018231128" lon="14.667674984614765"><ele>794.0</ele><time>2026-04-19T08:28:20.999Z</time></trkpt><trkpt lat="40.822620171989065" lon="14.667741929399066"><ele>794.0</ele><time>2026-04-19T08:28:22.999Z</time></trkpt><trkpt lat="40.82269722292863" lon="14.667795269088042"><ele>794.0000000000001</ele><time>2026-04-19T08:28:24.999Z</time></trkpt><trkpt lat="40.82276510717957" lon="14.667861390788557"><ele>794.0</ele><time>2026-04-19T08:28:26.999Z</time></trkpt><trkpt lat="40.8228521031054" lon="14.667913833332914"><ele>792.4000000000001</ele><time>2026-04-19T08:28:28.999Z</time></trkpt><trkpt lat="40.82293677338779" lon="14.667990429997184"><ele>790.8</ele><time>2026-04-19T08:28:30.999Z</time></trkpt><trkpt lat="40.82301821493474" lon="14.668060600105733"><ele>789.2</ele><time>2026-04-19T08:28:32.999Z</time></trkpt><trkpt lat="40.8230920588869" lon="14.668143871017229"><ele>787.5999999999999</ele><time>2026-04-19T08:28:34.999Z</time></trkpt><trkpt lat="40.82317900798531" lon="14.668199329784755"><ele>786.0</ele><time>2026-04-19T08:28:36.999Z</time></trkpt><trkpt lat="40.823258424301756" lon="14.668232915949645"><ele>786.0000000000001</ele><time>2026-04-19T08:28:38.999Z</time></trkpt><trkpt lat="40.82331874680004" lon="14.668264120409992"><ele>786.0</ele><time>2026-04-19T08:28:59.999Z</time></trkpt><trkpt lat="40.82338707885373" lon="14.668287726494684"><ele>786.0</ele><time>2026-04-19T08:29:09.999Z</time></trkpt><trkpt lat="40.82345711311767" lon="14.668327855599108"><ele>786.0</ele><time>2026-04-19T08:29:11.999Z</time></trkpt><trkpt lat="40.823511999365074" lon="14.66836999635857"><ele>786.0</ele><time>2026-04-19T08:29:13.999Z</time></trkpt><trkpt lat="40.82356189425564" lon="14.668433159719276"><ele>786.0000000000001</ele><time>2026-04-19T08:29:15.999Z</time></trkpt><trkpt lat="40.82362531027851" lon="14.668530476350297"><ele>786.0</ele><time>2026-04-19T08:29:17.999Z</time></trkpt><trkpt lat="40.82369504722375" lon="14.6686400275328"><ele>780.75</ele><time>2026-04-19T08:29:19.999Z</time></trkpt><trkpt lat="40.823749761552804" lon="14.668719711629926"><ele>775.5</ele><time>2026-04-19T08:29:21.999Z</time></trkpt><trkpt lat="40.82380536267641" lon="14.668777310050807"><ele>770.25</ele><time>2026-04-19T08:29:23.999Z</time></trkpt><trkpt lat="40.82395048755923" lon="14.669004139847386"><ele>765.0</ele><time>2026-04-19T08:29:26.999Z</time></trkpt><trkpt lat="40.82399018105443" lon="14.669087167024049"><ele>765.0</ele><time>2026-04-19T08:29:28.999Z</time></trkpt><trkpt lat="40.824059741335006" lon="14.669064519248737"><ele>765.0</ele><time>2026-04-19T08:29:32.999Z</time></trkpt><trkpt lat="40.82410310202485" lon="14.668993060626484"><ele>765.0</ele><time>2026-04-19T08:29:35.998Z</time></trkpt><trkpt lat="40.82416665326047" lon="14.668903679660504"><ele>765.0</ele><time>2026-04-19T08:29:38.998Z</time></trkpt><trkpt lat="40.82423284017437" lon="14.668839808668803"><ele>765.0</ele><time>2026-04-19T08:29:40.998Z</time></trkpt><trkpt lat="40.82432413539349" lon="14.668806166746345"><ele>765.0</ele><time>2026-04-19T08:29:42.998Z</time></trkpt><trkpt lat="40.82439728759338" lon="14.668818229565643"><ele>763.5</ele><time>2026-04-19T08:29:44.998Z</time></trkpt><trkpt lat="40.82449687769923" lon="14.668857585581796"><ele>762.0</ele><time>2026-04-19T08:29:47.998Z</time></trkpt><trkpt lat="40.824557183649894" lon="14.668887176658126"><ele>760.5</ele><time>2026-04-19T08:29:48.998Z</time></trkpt><trkpt lat="40.824625834820864" lon="14.668914973096287"><ele>759.0</ele><time>2026-04-19T08:29:49.998Z</time></trkpt><trkpt lat="40.8247017758209" lon="14.668932900969253"><ele>757.5</ele><time>2026-04-19T08:29:50.998Z</time></trkpt><trkpt lat="40.824819942016276" lon="14.668944356645044"><ele>756.0</ele><time>2026-04-19T08:29:52.998Z</time></trkpt><trkpt lat="40.82488846127034" lon="14.668933875414536"><ele>756.0</ele><time>2026-04-19T08:29:53.998Z</time></trkpt><trkpt lat="40.824958702235655" lon="14.668899886378957"><ele>756.0</ele><time>2026-04-19T08:29:54.998Z</time></trkpt><trkpt lat="40.82503861308641" lon="14.668853541820734"><ele>756.0</ele><time>2026-04-19T08:29:55.998Z</time></trkpt><trkpt lat="40.82511015106156" lon="14.6688088111461"><ele>756.0</ele><time>2026-04-19T08:29:56.998Z</time></trkpt><trkpt lat="40.82518817755466" lon="14.668787805889282"><ele>756.0</ele><time>2026-04-19T08:29:57.998Z</time></trkpt><trkpt lat="40.82527013146982" lon="14.668764800966924"><ele>756.0</ele><time>2026-04-19T08:29:58.998Z</time></trkpt><trkpt lat="40.825385175706174" lon="14.66871665308193"><ele>754.5</ele><time>2026-04-19T08:29:59.998Z</time></trkpt><trkpt lat="40.825509668245836" lon="14.668691322725362"><ele>753.0</ele><time>2026-04-19T08:30:00.998Z</time></trkpt><trkpt lat="40.825637212167074" lon="14.668673560200899"><ele>751.5</ele><time>2026-04-19T08:30:01.998Z</time></trkpt><trkpt lat="40.82576808978382" lon="14.668651294377835"><ele>750.0</ele><time>2026-04-19T08:30:02.998Z</time></trkpt><trkpt lat="40.825896802037356" lon="14.66864342846902"><ele>749.5</ele><time>2026-04-19T08:30:03.998Z</time></trkpt><trkpt lat="40.82602233873931" lon="14.668647455080253"><ele>749.0</ele><time>2026-04-19T08:30:04.998Z</time></trkpt><trkpt lat="40.826149523513266" lon="14.668648352818785"><ele>748.5</ele><time>2026-04-19T08:30:05.998Z</time></trkpt><trkpt lat="40.82628536886296" lon="14.668645533881536"><ele>748.0</ele><time>2026-04-19T08:30:06.998Z</time></trkpt><trkpt lat="40.82640545752628" lon="14.668636164919974"><ele>748.0</ele><time>2026-04-19T08:30:07.998Z</time></trkpt><trkpt lat="40.826512729356516" lon="14.668622938417933"><ele>748.0</ele><time>2026-04-19T08:30:08.998Z</time></trkpt><trkpt lat="40.8266055822013" lon="14.668613911580348"><ele>748.0</ele><time>2026-04-19T08:30:09.999Z</time></trkpt><trkpt lat="40.82668911536139" lon="14.668636212102447"><ele>748.0</ele><time>2026-04-19T08:30:10.999Z</time></trkpt><trkpt lat="40.826797015218645" lon="14.6686709462892"><ele>748.0</ele><time>2026-04-19T08:30:11.999Z</time></trkpt><trkpt lat="40.82691504094656" lon="14.668696674034239"><ele>747.5</ele><time>2026-04-19T08:30:12.999Z</time></trkpt><trkpt lat="40.8270307669464" lon="14.668682392942076"><ele>747.0</ele><time>2026-04-19T08:30:13.999Z</time></trkpt><trkpt lat="40.827160999532055" lon="14.668662904400714"><ele>746.5</ele><time>2026-04-19T08:30:14.999Z</time></trkpt><trkpt lat="40.82729913899744" lon="14.668664603758884"><ele>746.0</ele><time>2026-04-19T08:30:15.999Z</time></trkpt><trkpt lat="40.827427080702016" lon="14.668670822833088"><ele>746.0</ele><time>2026-04-19T08:30:16.999Z</time></trkpt><trkpt lat="40.827539370687845" lon="14.668691194734233"><ele>746.0</ele><time>2026-04-19T08:30:17.999Z</time></trkpt><trkpt lat="40.82764053971309" lon="14.668736624992935"><ele>746.0</ele><time>2026-04-19T08:30:18.999Z</time></trkpt><trkpt lat="40.82774014552147" lon="14.668780418703207"><ele>746.0</ele><time>2026-04-19T08:30:19.999Z</time></trkpt><trkpt lat="40.82788972827885" lon="14.66878025573009"><ele>745.75</ele><time>2026-04-19T08:30:20.999Z</time></trkpt><trkpt lat="40.828052862455515" lon="14.668768987860448"><ele>745.5</ele><time>2026-04-19T08:30:21.999Z</time></trkpt><trkpt lat="40.82819042240799" lon="14.668769103024347"><ele>745.25</ele><time>2026-04-19T08:30:22.999Z</time></trkpt><trkpt lat="40.82830842510467" lon="14.668793131782653"><ele>745.0</ele><time>2026-04-19T08:30:23.999Z</time></trkpt><trkpt lat="40.82841787368054" lon="14.668819372865235"><ele>745.0</ele><time>2026-04-19T08:30:24.999Z</time></trkpt><trkpt lat="40.828513750360855" lon="14.668834502744923"><ele>745.0</ele><time>2026-04-19T08:30:25.999Z</time></trkpt><trkpt lat="40.82861748565207" lon="14.668838243641439"><ele>745.0</ele><time>2026-04-19T08:30:26.999Z</time></trkpt><trkpt lat="40.82869769382724" lon="14.668835436671102"><ele>745.0</ele><time>2026-04-19T08:30:27.999Z</time></trkpt><trkpt lat="40.82877468875915" lon="14.668843638327788"><ele>745.0</ele><time>2026-04-19T08:30:28.999Z</time></trkpt><trkpt lat="40.82884040233845" lon="14.668874431726731"><ele>745.0</ele><time>2026-04-19T08:30:29.999Z</time></trkpt><trkpt lat="40.828908917790464" lon="14.668935465367829"><ele>745.0</ele><time>2026-04-19T08:30:30.999Z</time></trkpt><trkpt lat="40.829013896668634" lon="14.669019925240521"><ele>745.0</ele><time>2026-04-19T08:30:31.999Z</time></trkpt><trkpt lat="40.829150655700644" lon="14.669055583547886"><ele>745.0</ele><time>2026-04-19T08:30:32.999Z</time></trkpt><trkpt lat="40.82925957324702" lon="14.669050369214013"><ele>745.0</ele><time>2026-04-19T08:30:33.999Z</time></trkpt><trkpt lat="40.829348450672725" lon="14.669051462469069"><ele>745.2</ele><time>2026-04-19T08:30:34.999Z</time></trkpt><trkpt lat="40.82943148734848" lon="14.669068102685463"><ele>745.4</ele><time>2026-04-19T08:30:35.999Z</time></trkpt><trkpt lat="40.829513895182835" lon="14.66909779374453"><ele>745.5999999999999</ele><time>2026-04-19T08:30:36.999Z</time></trkpt><trkpt lat="40.82961540080065" lon="14.669117587535274"><ele>745.8</ele><time>2026-04-19T08:30:37.999Z</time></trkpt><trkpt lat="40.8297469851685" lon="14.669113417849788"><ele>746.0</ele><time>2026-04-19T08:30:38.999Z</time></trkpt><trkpt lat="40.82984839019484" lon="14.669128830167745"><ele>746.0</ele><time>2026-04-19T08:30:39.999Z</time></trkpt><trkpt lat="40.829934360191075" lon="14.669136269792437"><ele>746.0</ele><time>2026-04-19T08:30:40.999Z</time></trkpt><trkpt lat="40.83000215488801" lon="14.669168873902661"><ele>746.0</ele><time>2026-04-19T08:30:41.999Z</time></trkpt><trkpt lat="40.8300644447456" lon="14.669209072206472"><ele>746.0</ele><time>2026-04-19T08:30:42.999Z</time></trkpt><trkpt lat="40.830129243442215" lon="14.669226349748381"><ele>746.0</ele><time>2026-04-19T08:30:56.999Z</time></trkpt><trkpt lat="40.83018681076924" lon="14.669272669709501"><ele>746.0</ele><time>2026-04-19T08:31:00.999Z</time></trkpt><trkpt lat="40.83026285176536" lon="14.669276689701714"><ele>746.0</ele><time>2026-04-19T08:32:20Z</time></trkpt><trkpt lat="40.83034351107316" lon="14.669310325738694"><ele>745.5999999999999</ele><time>2026-04-19T08:32:22Z</time></trkpt><trkpt lat="40.830436158522055" lon="14.669313825627182"><ele>745.2</ele><time>2026-04-19T08:32:24Z</time></trkpt><trkpt lat="40.830541350666394" lon="14.669328838639567"><ele>744.8</ele><time>2026-04-19T08:32:26Z</time></trkpt><trkpt lat="40.83064903276447" lon="14.66938008601511"><ele>744.4000000000001</ele><time>2026-04-19T08:32:28Z</time></trkpt><trkpt lat="40.830758880785375" lon="14.669448462059375"><ele>744.0</ele><time>2026-04-19T08:32:30Z</time></trkpt><trkpt lat="40.83083607319884" lon="14.669482752906786"><ele>741.8333333333334</ele><time>2026-04-19T08:32:31Z</time></trkpt><trkpt lat="40.830908159090356" lon="14.669500057106463"><ele>739.6666666666666</ele><time>2026-04-19T08:32:32Z</time></trkpt><trkpt lat="40.83097576455129" lon="14.669509944603773"><ele>737.5</ele><time>2026-04-19T08:32:33Z</time></trkpt><trkpt lat="40.83104032447973" lon="14.669519211596388"><ele>735.3333333333333</ele><time>2026-04-19T08:32:34Z</time></trkpt><trkpt lat="40.8311084547443" lon="14.669535170174179"><ele>733.1666666666666</ele><time>2026-04-19T08:32:35Z</time></trkpt><trkpt lat="40.831196634146636" lon="14.669577640939966"><ele>731.0</ele><time>2026-04-19T08:32:36Z</time></trkpt><trkpt lat="40.8312874667753" lon="14.669610958659463"><ele>731.0</ele><time>2026-04-19T08:32:37Z</time></trkpt><trkpt lat="40.83135734402796" lon="14.669642803899029"><ele>731.0</ele><time>2026-04-19T08:32:38Z</time></trkpt><trkpt lat="40.83142652598096" lon="14.669663586425745"><ele>731.0</ele><time>2026-04-19T08:32:39Z</time></trkpt><trkpt lat="40.831488308448485" lon="14.66969731371509"><ele>731.0</ele><time>2026-04-19T08:32:40Z</time></trkpt><trkpt lat="40.83154628161178" lon="14.669730957818446"><ele>731.0</ele><time>2026-04-19T08:32:41Z</time></trkpt><trkpt lat="40.83161000560587" lon="14.669777484612196"><ele>731.0</ele><time>2026-04-19T08:32:42Z</time></trkpt><trkpt lat="40.83167077831166" lon="14.66982252040983"><ele>731.0</ele><time>2026-04-19T08:32:43Z</time></trkpt><trkpt lat="40.83173621651056" lon="14.669883594939256"><ele>731.0</ele><time>2026-04-19T08:32:44Z</time></trkpt><trkpt lat="40.831796335591605" lon="14.669923118219327"><ele>731.0</ele><time>2026-04-19T08:32:45Z</time></trkpt><trkpt lat="40.83185547149917" lon="14.669963772792482"><ele>731.0</ele><time>2026-04-19T08:32:46Z</time></trkpt><trkpt lat="40.83191719429507" lon="14.670001711564725"><ele>731.0</ele><time>2026-04-19T08:32:47Z</time></trkpt><trkpt lat="40.83200353739702" lon="14.670033707752049"><ele>731.0</ele><time>2026-04-19T08:32:48Z</time></trkpt><trkpt lat="40.83208339832251" lon="14.670078041736753"><ele>731.0</ele><time>2026-04-19T08:32:49Z</time></trkpt><trkpt lat="40.832158837755216" lon="14.670116830621767"><ele>731.8333333333333</ele><time>2026-04-19T08:32:50Z</time></trkpt><trkpt lat="40.832227087452296" lon="14.670149754164019"><ele>732.6666666666666</ele><time>2026-04-19T08:32:51Z</time></trkpt><trkpt lat="40.83229950657911" lon="14.670166534539657"><ele>733.5</ele><time>2026-04-19T08:32:52Z</time></trkpt><trkpt lat="40.832377299024365" lon="14.67019504062063"><ele>734.3333333333334</ele><time>2026-04-19T08:32:52.999Z</time></trkpt><trkpt lat="40.83245521686345" lon="14.670252309904907"><ele>735.1666666666667</ele><time>2026-04-19T08:32:53.999Z</time></trkpt><trkpt lat="40.832538265312806" lon="14.670297323365155"><ele>736.0</ele><time>2026-04-19T08:32:54.999Z</time></trkpt><trkpt lat="40.83261833197481" lon="14.67033727796406"><ele>733.5714285714286</ele><time>2026-04-19T08:32:55.999Z</time></trkpt><trkpt lat="40.83268030363279" lon="14.670371072235667"><ele>731.1428571428571</ele><time>2026-04-19T08:32:56.999Z</time></trkpt><trkpt lat="40.83274220837202" lon="14.670401457977581"><ele>728.7142857142857</ele><time>2026-04-19T08:32:57.999Z</time></trkpt><trkpt lat="40.832807927445096" lon="14.67043284187274"><ele>726.2857142857142</ele><time>2026-04-19T08:32:58.999Z</time></trkpt><trkpt lat="40.832871258559514" lon="14.670474510715025"><ele>723.8571428571429</ele><time>2026-04-19T08:32:59.999Z</time></trkpt><trkpt lat="40.83293311164444" lon="14.670517414657507"><ele>721.4285714285713</ele><time>2026-04-19T08:33:00.999Z</time></trkpt><trkpt lat="40.83299593049391" lon="14.67055840140092"><ele>719.0</ele><time>2026-04-19T08:33:01.999Z</time></trkpt><trkpt lat="40.833060463074425" lon="14.670599745794387"><ele>719.0</ele><time>2026-04-19T08:33:02.999Z</time></trkpt><trkpt lat="40.833151993346775" lon="14.670681146139671"><ele>719.0</ele><time>2026-04-19T08:33:04.999Z</time></trkpt><trkpt lat="40.83323283998472" lon="14.67070444741544"><ele>719.0</ele><time>2026-04-19T08:33:06.999Z</time></trkpt><trkpt lat="40.83319757863267" lon="14.670781898794115"><ele>719.0</ele><time>2026-04-19T08:33:35.999Z</time></trkpt><trkpt lat="40.83313154489824" lon="14.670804827477134"><ele>719.0</ele><time>2026-04-19T08:33:38.999Z</time></trkpt><trkpt lat="40.833059418454745" lon="14.670852972753252"><ele>719.0</ele><time>2026-04-19T08:33:40.999Z</time></trkpt><trkpt lat="40.8330002320148" lon="14.670893432277953"><ele>719.0</ele><time>2026-04-19T08:33:42.999Z</time></trkpt><trkpt lat="40.83294064594869" lon="14.670934530990923"><ele>719.0</ele><time>2026-04-19T08:33:44.999Z</time></trkpt><trkpt lat="40.83288168675019" lon="14.670980605934648"><ele>719.0</ele><time>2026-04-19T08:33:46.999Z</time></trkpt><trkpt lat="40.83284677193518" lon="14.671053800835102"><ele>719.0</ele><time>2026-04-19T08:33:48.999Z</time></trkpt><trkpt lat="40.83286415910891" lon="14.6711627039757"><ele>719.0</ele><time>2026-04-19T08:33:51.999Z</time></trkpt><trkpt lat="40.83295899314007" lon="14.671219227773985"><ele>719.0</ele><time>2026-04-19T08:33:53.999Z</time></trkpt><trkpt lat="40.83305215511051" lon="14.671311278846648"><ele>717.8000000000001</ele><time>2026-04-19T08:33:55.999Z</time></trkpt><trkpt lat="40.8330926227308" lon="14.671384144732723"><ele>716.6</ele><time>2026-04-19T08:33:56.999Z</time></trkpt><trkpt lat="40.83312850651814" lon="14.671474908912959"><ele>715.4</ele><time>2026-04-19T08:33:57.999Z</time></trkpt><trkpt lat="40.83319631020892" lon="14.67159291368316"><ele>714.2</ele><time>2026-04-19T08:33:58.999Z</time></trkpt><trkpt lat="40.8332620083316" lon="14.67172744987462"><ele>713.0</ele><time>2026-04-19T08:33:59.999Z</time></trkpt><trkpt lat="40.833293239779245" lon="14.671845934698903"><ele>713.0</ele><time>2026-04-19T08:34:00.999Z</time></trkpt><trkpt lat="40.83332393932454" lon="14.671933190125868"><ele>713.0</ele><time>2026-04-19T08:34:01.999Z</time></trkpt><trkpt lat="40.833374097542766" lon="14.672014083459091"><ele>713.0</ele><time>2026-04-19T08:34:02.999Z</time></trkpt><trkpt lat="40.83342833459478" lon="14.672085539856774"><ele>713.0</ele><time>2026-04-19T08:34:03.999Z</time></trkpt><trkpt lat="40.83347022579626" lon="14.672152137972756"><ele>713.0</ele><time>2026-04-19T08:34:04.999Z</time></trkpt><trkpt lat="40.833516580916026" lon="14.672216762107821"><ele>713.0</ele><time>2026-04-19T08:34:05.999Z</time></trkpt><trkpt lat="40.83357115510043" lon="14.672293768686524"><ele>713.0</ele><time>2026-04-19T08:34:06.999Z</time></trkpt><trkpt lat="40.833605139024165" lon="14.672368248237"><ele>713.4</ele><time>2026-04-19T08:34:07.999Z</time></trkpt><trkpt lat="40.833728522639056" lon="14.67247226025501"><ele>713.8</ele><time>2026-04-19T08:34:09.999Z</time></trkpt><trkpt lat="40.83380275279281" lon="14.67254007196163"><ele>714.2</ele><time>2026-04-19T08:34:10.999Z</time></trkpt><trkpt lat="40.833865019340884" lon="14.672610976399406"><ele>714.6</ele><time>2026-04-19T08:34:11.999Z</time></trkpt><trkpt lat="40.83392547670417" lon="14.672680844435137"><ele>715.0</ele><time>2026-04-19T08:34:12.999Z</time></trkpt><trkpt lat="40.833988400785564" lon="14.672751051958553"><ele>716.0</ele><time>2026-04-19T08:34:13.999Z</time></trkpt><trkpt lat="40.834075975309226" lon="14.6728383421899"><ele>717.0</ele><time>2026-04-19T08:34:14.999Z</time></trkpt><trkpt lat="40.834161729123466" lon="14.672931158295144"><ele>718.0</ele><time>2026-04-19T08:34:15.999Z</time></trkpt><trkpt lat="40.834232601581576" lon="14.673020890635295"><ele>719.0</ele><time>2026-04-19T08:34:16.999Z</time></trkpt><trkpt lat="40.83431566289706" lon="14.673113829309631"><ele>720.0</ele><time>2026-04-19T08:34:17.999Z</time></trkpt><trkpt lat="40.834396760971885" lon="14.673193467132078"><ele>720.0</ele><time>2026-04-19T08:34:18.999Z</time></trkpt><trkpt lat="40.83446328601534" lon="14.67328129454364"><ele>720.0</ele><time>2026-04-19T08:34:19.999Z</time></trkpt><trkpt lat="40.834510715296595" lon="14.673366080366792"><ele>720.0</ele><time>2026-04-19T08:34:20.999Z</time></trkpt><trkpt lat="40.834557804817415" lon="14.673469191477135"><ele>720.0</ele><time>2026-04-19T08:34:22Z</time></trkpt><trkpt lat="40.83457683429967" lon="14.673564832077654"><ele>720.0</ele><time>2026-04-19T08:34:23Z</time></trkpt><trkpt lat="40.834690812889804" lon="14.673663703581283"><ele>720.75</ele><time>2026-04-19T08:34:25Z</time></trkpt><trkpt lat="40.834819741985584" lon="14.673674189339337"><ele>721.5</ele><time>2026-04-19T08:34:26Z</time></trkpt><trkpt lat="40.83494109868896" lon="14.673687162466933"><ele>722.25</ele><time>2026-04-19T08:34:27Z</time></trkpt><trkpt lat="40.83507740947378" lon="14.67374972846373"><ele>723.0</ele><time>2026-04-19T08:34:28Z</time></trkpt><trkpt lat="40.83517681751518" lon="14.673848093834419"><ele>723.0</ele><time>2026-04-19T08:34:29Z</time></trkpt><trkpt lat="40.83523835237611" lon="14.673936375954257"><ele>723.0</ele><time>2026-04-19T08:34:30Z</time></trkpt><trkpt lat="40.83531241447505" lon="14.673995228855743"><ele>723.0</ele><time>2026-04-19T08:34:31Z</time></trkpt><trkpt lat="40.83539985426054" lon="14.674051591429114"><ele>723.0</ele><time>2026-04-19T08:34:32Z</time></trkpt><trkpt lat="40.835488193316266" lon="14.674114151206732"><ele>723.0</ele><time>2026-04-19T08:34:33Z</time></trkpt><trkpt lat="40.83555490291547" lon="14.674185522044429"><ele>723.0</ele><time>2026-04-19T08:34:34Z</time></trkpt><trkpt lat="40.8356332181068" lon="14.6742420387561"><ele>723.0</ele><time>2026-04-19T08:34:35Z</time></trkpt><trkpt lat="40.83574742251094" lon="14.674250612742268"><ele>723.0</ele><time>2026-04-19T08:34:36Z</time></trkpt><trkpt lat="40.835846148323164" lon="14.674251076170748"><ele>723.0</ele><time>2026-04-19T08:34:37Z</time></trkpt><trkpt lat="40.83594746235402" lon="14.674285125476365"><ele>723.0</ele><time>2026-04-19T08:34:38Z</time></trkpt><trkpt lat="40.836066877963106" lon="14.674377867499077"><ele>724.8</ele><time>2026-04-19T08:34:39Z</time></trkpt><trkpt lat="40.83616000447522" lon="14.674481755442494"><ele>726.5999999999999</ele><time>2026-04-19T08:34:40Z</time></trkpt><trkpt lat="40.83622705295856" lon="14.674566148139062"><ele>728.4000000000001</ele><time>2026-04-19T08:34:41Z</time></trkpt><trkpt lat="40.83628186856248" lon="14.674644251748417"><ele>730.2</ele><time>2026-04-19T08:34:42Z</time></trkpt><trkpt lat="40.836331402053496" lon="14.674747745690102"><ele>732.0</ele><time>2026-04-19T08:34:43Z</time></trkpt><trkpt lat="40.83638803956043" lon="14.674841790610783"><ele>732.0</ele><time>2026-04-19T08:34:44Z</time></trkpt><trkpt lat="40.83646526884155" lon="14.674941658327224"><ele>732.0</ele><time>2026-04-19T08:34:45Z</time></trkpt><trkpt lat="40.83654822727029" lon="14.675051920254413"><ele>732.0</ele><time>2026-04-19T08:34:46Z</time></trkpt><trkpt lat="40.836626576242594" lon="14.675187614358128"><ele>732.0</ele><time>2026-04-19T08:34:47Z</time></trkpt><trkpt lat="40.83667057962039" lon="14.675300327775597"><ele>731.5</ele><time>2026-04-19T08:34:48Z</time></trkpt><trkpt lat="40.83668283562185" lon="14.675417637184474"><ele>731.0</ele><time>2026-04-19T08:34:49Z</time></trkpt><trkpt lat="40.83667993766184" lon="14.67552665417689"><ele>730.5</ele><time>2026-04-19T08:34:50Z</time></trkpt><trkpt lat="40.83667082014414" lon="14.675626845205102"><ele>730.0</ele><time>2026-04-19T08:34:51Z</time></trkpt><trkpt lat="40.8367171986761" lon="14.675739014324073"><ele>729.5</ele><time>2026-04-19T08:34:53Z</time></trkpt><trkpt lat="40.83677951388639" lon="14.675760290618097"><ele>729.0</ele><time>2026-04-19T08:34:54Z</time></trkpt><trkpt lat="40.83685599643453" lon="14.67577752789907"><ele>729.0</ele><time>2026-04-19T08:34:55Z</time></trkpt><trkpt lat="40.836944906945476" lon="14.675805332223703"><ele>729.0</ele><time>2026-04-19T08:34:56Z</time></trkpt><trkpt lat="40.83701632200278" lon="14.67586547189299"><ele>729.0</ele><time>2026-04-19T08:34:57Z</time></trkpt><trkpt lat="40.83706390044594" lon="14.6759688226228"><ele>729.0</ele><time>2026-04-19T08:34:58Z</time></trkpt><trkpt lat="40.83709394389824" lon="14.67607317581725"><ele>729.0</ele><time>2026-04-19T08:34:59Z</time></trkpt><trkpt lat="40.83713004471251" lon="14.67615342834085"><ele>729.0</ele><time>2026-04-19T08:35:00Z</time></trkpt><trkpt lat="40.837185262990886" lon="14.67623822293481"><ele>734.4000000000001</ele><time>2026-04-19T08:35:01Z</time></trkpt><trkpt lat="40.837244205971714" lon="14.676284728735105"><ele>739.8</ele><time>2026-04-19T08:35:02Z</time></trkpt><trkpt lat="40.83731396943471" lon="14.676302807347374"><ele>745.2</ele><time>2026-04-19T08:35:03Z</time></trkpt><trkpt lat="40.837408780713915" lon="14.676303876021645"><ele>750.5999999999999</ele><time>2026-04-19T08:35:04Z</time></trkpt><trkpt lat="40.837521021416265" lon="14.676342944861146"><ele>756.0</ele><time>2026-04-19T08:35:05Z</time></trkpt><trkpt lat="40.83762886894938" lon="14.676424656133324"><ele>751.5999999999999</ele><time>2026-04-19T08:35:06Z</time></trkpt><trkpt lat="40.83770573041897" lon="14.67651668538066"><ele>747.2</ele><time>2026-04-19T08:35:07Z</time></trkpt><trkpt lat="40.837758070197324" lon="14.676616583363625"><ele>742.8</ele><time>2026-04-19T08:35:08Z</time></trkpt><trkpt lat="40.83780765565719" lon="14.676728080760267"><ele>738.4000000000001</ele><time>2026-04-19T08:35:09Z</time></trkpt><trkpt lat="40.8378593680347" lon="14.676778989676805"><ele>734.0</ele><time>2026-04-19T08:35:10Z</time></trkpt><trkpt lat="40.83796071242748" lon="14.676787700899782"><ele>734.0</ele><time>2026-04-19T08:35:12Z</time></trkpt><trkpt lat="40.83802673724649" lon="14.676784989003032"><ele>734.0</ele><time>2026-04-19T08:35:13Z</time></trkpt><trkpt lat="40.83809120236731" lon="14.676779902641332"><ele>734.0</ele><time>2026-04-19T08:35:14Z</time></trkpt><trkpt lat="40.83818562858334" lon="14.676788111657572"><ele>734.0</ele><time>2026-04-19T08:35:15Z</time></trkpt><trkpt lat="40.83828743129679" lon="14.676812168935001"><ele>734.0</ele><time>2026-04-19T08:35:16Z</time></trkpt><trkpt lat="40.838384775980415" lon="14.676824022614293"><ele>734.0</ele><time>2026-04-19T08:35:17Z</time></trkpt><trkpt lat="40.83845307650899" lon="14.676844959176762"><ele>735.8000000000001</ele><time>2026-04-19T08:35:18Z</time></trkpt><trkpt lat="40.838510239762385" lon="14.676885629523353"><ele>737.6</ele><time>2026-04-19T08:35:19Z</time></trkpt><trkpt lat="40.83857312397079" lon="14.677011944937433"><ele>739.4</ele><time>2026-04-19T08:35:21Z</time></trkpt><trkpt lat="40.83852205252355" lon="14.67719175879713"><ele>741.2</ele><time>2026-04-19T08:35:23Z</time></trkpt><trkpt lat="40.83853822571213" lon="14.677285325182517"><ele>743.0</ele><time>2026-04-19T08:35:24Z</time></trkpt><trkpt lat="40.83862464634149" lon="14.677320112460677"><ele>743.0</ele><time>2026-04-19T08:35:26Z</time></trkpt><trkpt lat="40.83869026811892" lon="14.677272993160738"><ele>743.0</ele><time>2026-04-19T08:35:27Z</time></trkpt><trkpt lat="40.83874674016398" lon="14.677226328678156"><ele>743.0</ele><time>2026-04-19T08:35:28Z</time></trkpt><trkpt lat="40.83889440598199" lon="14.677239761241713"><ele>743.0</ele><time>2026-04-19T08:35:30Z</time></trkpt><trkpt lat="40.838990455014766" lon="14.677318237843258"><ele>743.0</ele><time>2026-04-19T08:35:31Z</time></trkpt><trkpt lat="40.839091643463306" lon="14.677429481247122"><ele>743.0</ele><time>2026-04-19T08:35:32Z</time></trkpt><trkpt lat="40.83918490632732" lon="14.677501792531682"><ele>743.0</ele><time>2026-04-19T08:35:33Z</time></trkpt><trkpt lat="40.83925900244585" lon="14.677559911695536"><ele>743.0</ele><time>2026-04-19T08:35:33.999Z</time></trkpt><trkpt lat="40.83932996391916" lon="14.677617361926075"><ele>743.0</ele><time>2026-04-19T08:35:34.999Z</time></trkpt><trkpt lat="40.8394093263154" lon="14.67766470843431"><ele>743.0</ele><time>2026-04-19T08:35:35.999Z</time></trkpt><trkpt lat="40.8394936727149" lon="14.677687134459076"><ele>740.0</ele><time>2026-04-19T08:35:36.999Z</time></trkpt><trkpt lat="40.83958512912647" lon="14.6777277118693"><ele>737.0</ele><time>2026-04-19T08:35:37.999Z</time></trkpt><trkpt lat="40.839715078956914" lon="14.677763691719074"><ele>734.0</ele><time>2026-04-19T08:35:38.999Z</time></trkpt><trkpt lat="40.83980545766736" lon="14.677830975187232"><ele>731.0</ele><time>2026-04-19T08:35:39.999Z</time></trkpt><trkpt lat="40.839878269115346" lon="14.677890317718584"><ele>728.0</ele><time>2026-04-19T08:35:40.999Z</time></trkpt><trkpt lat="40.839953649411186" lon="14.677905503268697"><ele>735.0</ele><time>2026-04-19T08:35:41.999Z</time></trkpt><trkpt lat="40.84005990380916" lon="14.677918622522746"><ele>742.0</ele><time>2026-04-19T08:35:42.999Z</time></trkpt><trkpt lat="40.84018355689248" lon="14.677967267241183"><ele>749.0</ele><time>2026-04-19T08:35:43.999Z</time></trkpt><trkpt lat="40.84029593824232" lon="14.678012015180117"><ele>756.0</ele><time>2026-04-19T08:35:44.999Z</time></trkpt><trkpt lat="40.84041412643237" lon="14.678053267092357"><ele>756.0</ele><time>2026-04-19T08:35:45.999Z</time></trkpt><trkpt lat="40.84054184408767" lon="14.67806332214215"><ele>756.0</ele><time>2026-04-19T08:35:46.999Z</time></trkpt><trkpt lat="40.84065016976381" lon="14.6781061693461"><ele>756.0</ele><time>2026-04-19T08:35:47.999Z</time></trkpt><trkpt lat="40.84075716891286" lon="14.678159681175561"><ele>756.0</ele><time>2026-04-19T08:35:48.999Z</time></trkpt><trkpt lat="40.84086861552952" lon="14.678239806082797"><ele>759.0</ele><time>2026-04-19T08:35:49.999Z</time></trkpt><trkpt lat="40.840976276054874" lon="14.678311162650733"><ele>762.0</ele><time>2026-04-19T08:35:50.999Z</time></trkpt><trkpt lat="40.84108424889293" lon="14.678363925305662"><ele>765.0</ele><time>2026-04-19T08:35:51.999Z</time></trkpt><trkpt lat="40.84117464680348" lon="14.678420244220636"><ele>768.0</ele><time>2026-04-19T08:35:52.999Z</time></trkpt><trkpt lat="40.84124789134382" lon="14.678466598471326"><ele>771.0</ele><time>2026-04-19T08:35:53.999Z</time></trkpt><trkpt lat="40.84131989513284" lon="14.678625108321409"><ele>771.0</ele><time>2026-04-19T08:35:55.999Z</time></trkpt><trkpt lat="40.84136978829962" lon="14.678760990024303"><ele>771.0</ele><time>2026-04-19T08:35:56.999Z</time></trkpt><trkpt lat="40.84140798216966" lon="14.678927519196446"><ele>771.0</ele><time>2026-04-19T08:35:57.999Z</time></trkpt><trkpt lat="40.8414215299253" lon="14.67908599359459"><ele>771.0</ele><time>2026-04-19T08:35:58.999Z</time></trkpt><trkpt lat="40.841408391828494" lon="14.67917239999581"><ele>771.0</ele><time>2026-04-19T08:35:59.999Z</time></trkpt><trkpt lat="40.84150494371971" lon="14.679217591426623"><ele>771.0</ele><time>2026-04-19T08:36:02.999Z</time></trkpt><trkpt lat="40.841587782190146" lon="14.679136299251141"><ele>771.0</ele><time>2026-04-19T08:36:04.999Z</time></trkpt><trkpt lat="40.84166496507268" lon="14.679060230282179"><ele>771.0</ele><time>2026-04-19T08:36:05.999Z</time></trkpt><trkpt lat="40.841755559089414" lon="14.678989643063238"><ele>771.0</ele><time>2026-04-19T08:36:06.999Z</time></trkpt><trkpt lat="40.84184782833802" lon="14.678925575900843"><ele>771.0</ele><time>2026-04-19T08:36:07.999Z</time></trkpt><trkpt lat="40.841943676237335" lon="14.678890480385311"><ele>772.5</ele><time>2026-04-19T08:36:08.999Z</time></trkpt><trkpt lat="40.8420336249396" lon="14.678862792911127"><ele>774.0</ele><time>2026-04-19T08:36:09.999Z</time></trkpt><trkpt lat="40.842117466284094" lon="14.678849650671093"><ele>775.5</ele><time>2026-04-19T08:36:10.999Z</time></trkpt><trkpt lat="40.84218793267531" lon="14.678828573802575"><ele>777.0</ele><time>2026-04-19T08:36:11.999Z</time></trkpt><trkpt lat="40.8422517706309" lon="14.67879679308612"><ele>778.5</ele><time>2026-04-19T08:36:12.999Z</time></trkpt><trkpt lat="40.842360642433796" lon="14.678788172482317"><ele>780.0</ele><time>2026-04-19T08:36:13.999Z</time></trkpt><trkpt lat="40.84248123396036" lon="14.678832307907495"><ele>780.0</ele><time>2026-04-19T08:36:14.999Z</time></trkpt><trkpt lat="40.842587630290154" lon="14.678860513883366"><ele>780.0</ele><time>2026-04-19T08:36:15.999Z</time></trkpt><trkpt lat="40.84270376264886" lon="14.678884376513851"><ele>780.0</ele><time>2026-04-19T08:36:16.999Z</time></trkpt><trkpt lat="40.84279313212928" lon="14.678943550580833"><ele>780.0</ele><time>2026-04-19T08:36:17.999Z</time></trkpt><trkpt lat="40.84289282541951" lon="14.678997272315753"><ele>780.0</ele><time>2026-04-19T08:36:18.999Z</time></trkpt><trkpt lat="40.84301651431275" lon="14.678984662160602"><ele>779.25</ele><time>2026-04-19T08:36:19.999Z</time></trkpt><trkpt lat="40.84311594849857" lon="14.679004213198107"><ele>778.5</ele><time>2026-04-19T08:36:20.999Z</time></trkpt><trkpt lat="40.84324896038976" lon="14.679081130136632"><ele>777.75</ele><time>2026-04-19T08:36:21.999Z</time></trkpt><trkpt lat="40.84335944350899" lon="14.679137827326398"><ele>777.0</ele><time>2026-04-19T08:36:22.999Z</time></trkpt><trkpt lat="40.8434711923777" lon="14.679144835630826"><ele>772.75</ele><time>2026-04-19T08:36:23.999Z</time></trkpt><trkpt lat="40.84359180644236" lon="14.679198633697021"><ele>768.5</ele><time>2026-04-19T08:36:24.999Z</time></trkpt><trkpt lat="40.84371947806725" lon="14.679277884102062"><ele>764.25</ele><time>2026-04-19T08:36:25.999Z</time></trkpt><trkpt lat="40.84383461868472" lon="14.679363951459937"><ele>760.0</ele><time>2026-04-19T08:36:26.999Z</time></trkpt><trkpt lat="40.843907147894754" lon="14.679423434600816"><ele>768.2</ele><time>2026-04-19T08:36:28.001Z</time></trkpt><trkpt lat="40.84394381919568" lon="14.679600458962643"><ele>776.4</ele><time>2026-04-19T08:36:30.001Z</time></trkpt><trkpt lat="40.84397607722672" lon="14.679757364615464"><ele>784.5999999999999</ele><time>2026-04-19T08:36:31.001Z</time></trkpt><trkpt lat="40.844036532183054" lon="14.67984443420321"><ele>792.8</ele><time>2026-04-19T08:36:32.001Z</time></trkpt><trkpt lat="40.84411189692711" lon="14.67988666276084"><ele>801.0</ele><time>2026-04-19T08:36:33.001Z</time></trkpt><trkpt lat="40.844188893503905" lon="14.679912768069213"><ele>801.0</ele><time>2026-04-19T08:36:34.001Z</time></trkpt><trkpt lat="40.84427915076178" lon="14.679917169854724"><ele>801.0</ele><time>2026-04-19T08:36:35.001Z</time></trkpt><trkpt lat="40.84435516543102" lon="14.679929164699336"><ele>801.0</ele><time>2026-04-19T08:36:36.001Z</time></trkpt><trkpt lat="40.844459297764736" lon="14.679935765436332"><ele>801.0</ele><time>2026-04-19T08:36:37.001Z</time></trkpt><trkpt lat="40.84453423386647" lon="14.679933097117225"><ele>801.0</ele><time>2026-04-19T08:36:38.001Z</time></trkpt><trkpt lat="40.8446291370465" lon="14.679946449716438"><ele>801.0</ele><time>2026-04-19T08:36:39.001Z</time></trkpt><trkpt lat="40.84471859678475" lon="14.679954818046443"><ele>799.5</ele><time>2026-04-19T08:36:40.001Z</time></trkpt><trkpt lat="40.84480486084411" lon="14.679974440395837"><ele>798.0</ele><time>2026-04-19T08:36:41.001Z</time></trkpt><trkpt lat="40.84487700641468" lon="14.680023614517971"><ele>796.5</ele><time>2026-04-19T08:36:42.001Z</time></trkpt><trkpt lat="40.844954289502915" lon="14.680086133821385"><ele>795.0</ele><time>2026-04-19T08:36:43.001Z</time></trkpt><trkpt lat="40.845037331507584" lon="14.680166596541147"><ele>793.5</ele><time>2026-04-19T08:36:44Z</time></trkpt><trkpt lat="40.84511117646628" lon="14.680227698782087"><ele>792.0</ele><time>2026-04-19T08:36:45Z</time></trkpt><trkpt lat="40.845183849952036" lon="14.680248082289912"><ele>795.8</ele><time>2026-04-19T08:36:46Z</time></trkpt><trkpt lat="40.845257580055936" lon="14.680283510422628"><ele>799.6</ele><time>2026-04-19T08:36:47Z</time></trkpt><trkpt lat="40.845330224721586" lon="14.680340443636895"><ele>803.4</ele><time>2026-04-19T08:36:48Z</time></trkpt><trkpt lat="40.84541202563635" lon="14.680437758602393"><ele>807.1999999999999</ele><time>2026-04-19T08:36:49Z</time></trkpt><trkpt lat="40.845489470539995" lon="14.68049100654443"><ele>811.0</ele><time>2026-04-19T08:36:50Z</time></trkpt><trkpt lat="40.845578315596356" lon="14.680566891090567"><ele>811.0</ele><time>2026-04-19T08:36:51Z</time></trkpt><trkpt lat="40.84567296441407" lon="14.68062516520148"><ele>811.0</ele><time>2026-04-19T08:36:52Z</time></trkpt><trkpt lat="40.84573647227921" lon="14.680648625935476"><ele>811.0</ele><time>2026-04-19T08:36:53Z</time></trkpt><trkpt lat="40.84582332862109" lon="14.68072347364914"><ele>811.0</ele><time>2026-04-19T08:36:54Z</time></trkpt><trkpt lat="40.84592038922248" lon="14.680818420737738"><ele>811.0</ele><time>2026-04-19T08:36:55Z</time></trkpt><trkpt lat="40.845995704090726" lon="14.680904771730779"><ele>810.9999999999999</ele><time>2026-04-19T08:36:56Z</time></trkpt><trkpt lat="40.84604131898176" lon="14.680970083828232"><ele>811.0</ele><time>2026-04-19T08:36:57Z</time></trkpt><trkpt lat="40.846035675603" lon="14.681080164805637"><ele>811.0</ele><time>2026-04-19T08:36:59Z</time></trkpt><trkpt lat="40.84590582394245" lon="14.681039832752074"><ele>811.0</ele><time>2026-04-19T08:37:01Z</time></trkpt><trkpt lat="40.84583674170668" lon="14.680990633870458"><ele>810.9999999999999</ele><time>2026-04-19T08:37:02Z</time></trkpt><trkpt lat="40.84577270495451" lon="14.680959486569309"><ele>811.0</ele><time>2026-04-19T08:37:03Z</time></trkpt><trkpt lat="40.84570152920489" lon="14.680967842960511"><ele>810.9999999999999</ele><time>2026-04-19T08:37:04Z</time></trkpt><trkpt lat="40.84562815322179" lon="14.680989100506048"><ele>811.0</ele><time>2026-04-19T08:37:05Z</time></trkpt><trkpt lat="40.84555232658135" lon="14.68103373867066"><ele>811.0</ele><time>2026-04-19T08:37:06Z</time></trkpt><trkpt lat="40.84547015695425" lon="14.68107678862364"><ele>811.0</ele><time>2026-04-19T08:37:07Z</time></trkpt><trkpt lat="40.84538624224676" lon="14.681130812120614"><ele>810.9999999999999</ele><time>2026-04-19T08:37:08Z</time></trkpt><trkpt lat="40.8453310245066" lon="14.681192030312092"><ele>811.0</ele><time>2026-04-19T08:37:09Z</time></trkpt><trkpt lat="40.84526946588116" lon="14.681248980596278"><ele>813.1666666666666</ele><time>2026-04-19T08:37:10Z</time></trkpt><trkpt lat="40.84519966272416" lon="14.681255664829882"><ele>815.3333333333333</ele><time>2026-04-19T08:37:11Z</time></trkpt><trkpt lat="40.845122186438275" lon="14.681247994039124"><ele>817.5</ele><time>2026-04-19T08:37:12Z</time></trkpt><trkpt lat="40.84512974994474" lon="14.681346354613165"><ele>819.6666666666667</ele><time>2026-04-19T08:37:14Z</time></trkpt><trkpt lat="40.845105790664675" lon="14.681448958041146"><ele>821.8333333333334</ele><time>2026-04-19T08:37:16Z</time></trkpt><trkpt lat="40.84505965486667" lon="14.681529692146453"><ele>824.0</ele><time>2026-04-19T08:37:17Z</time></trkpt><trkpt lat="40.845023011788996" lon="14.6816393122361"><ele>824.0000000000001</ele><time>2026-04-19T08:37:18Z</time></trkpt><trkpt lat="40.84499488588019" lon="14.68173083118443"><ele>824.0</ele><time>2026-04-19T08:37:19Z</time></trkpt><trkpt lat="40.844965263035114" lon="14.681808056139648"><ele>824.0</ele><time>2026-04-19T08:37:20Z</time></trkpt><trkpt lat="40.84497306783086" lon="14.681892950755962"><ele>824.0</ele><time>2026-04-19T08:37:21Z</time></trkpt><trkpt lat="40.8450207516457" lon="14.68200037726659"><ele>824.0000000000001</ele><time>2026-04-19T08:37:22Z</time></trkpt><trkpt lat="40.84508569343192" lon="14.682138530800433"><ele>824.0</ele><time>2026-04-19T08:37:23Z</time></trkpt><trkpt lat="40.8451380770576" lon="14.68226099251413"><ele>824.0000000000001</ele><time>2026-04-19T08:37:24Z</time></trkpt><trkpt lat="40.84517513853352" lon="14.682349006147858"><ele>824.0</ele><time>2026-04-19T08:37:25Z</time></trkpt><trkpt lat="40.84519238142907" lon="14.682436867992966"><ele>824.0</ele><time>2026-04-19T08:37:26Z</time></trkpt><trkpt lat="40.84516838717791" lon="14.682572582324806"><ele>824.0</ele><time>2026-04-19T08:37:28Z</time></trkpt><trkpt lat="40.84506619965258" lon="14.682597665888629"><ele>824.0000000000001</ele><time>2026-04-19T08:37:30Z</time></trkpt><trkpt lat="40.84499762192742" lon="14.682554180159464"><ele>824.0</ele><time>2026-04-19T08:37:31Z</time></trkpt><trkpt lat="40.84492819692706" lon="14.6825692531788"><ele>824.75</ele><time>2026-04-19T08:37:33Z</time></trkpt><trkpt lat="40.84490753567377" lon="14.682694865418878"><ele>825.5</ele><time>2026-04-19T08:37:36Z</time></trkpt><trkpt lat="40.84489687915247" lon="14.682779262133657"><ele>826.25</ele><time>2026-04-19T08:37:38Z</time></trkpt><trkpt lat="40.844814052433364" lon="14.683031990079494"><ele>827.0</ele><time>2026-04-19T08:37:41Z</time></trkpt><trkpt lat="40.84474098595254" lon="14.683099692994771"><ele>827.0000000000001</ele><time>2026-04-19T08:37:43Z</time></trkpt><trkpt lat="40.844698991229826" lon="14.683183822556543"><ele>827.0</ele><time>2026-04-19T08:37:45Z</time></trkpt><trkpt lat="40.844734102386475" lon="14.683294759864948"><ele>827.0</ele><time>2026-04-19T08:37:47Z</time></trkpt><trkpt lat="40.844790784079656" lon="14.68334003771753"><ele>827.0</ele><time>2026-04-19T08:37:48Z</time></trkpt><trkpt lat="40.84486733338574" lon="14.683410663967452"><ele>827.0000000000001</ele><time>2026-04-19T08:37:50Z</time></trkpt><trkpt lat="40.844931190372726" lon="14.683427145555417"><ele>827.0</ele><time>2026-04-19T08:37:51Z</time></trkpt><trkpt lat="40.84503545228186" lon="14.683480165249351"><ele>827.0</ele><time>2026-04-19T08:37:53Z</time></trkpt><trkpt lat="40.845115841393735" lon="14.68356281063021"><ele>827.0</ele><time>2026-04-19T08:37:54Z</time></trkpt><trkpt lat="40.845178207461664" lon="14.683633965913556"><ele>827.0</ele><time>2026-04-19T08:37:55Z</time></trkpt><trkpt lat="40.845260733427104" lon="14.683731015763037"><ele>827.0</ele><time>2026-04-19T08:37:56Z</time></trkpt><trkpt lat="40.84532875427405" lon="14.683832973664368"><ele>827.0</ele><time>2026-04-19T08:37:57Z</time></trkpt><trkpt lat="40.84539163467736" lon="14.683929525101751"><ele>825.0000000000001</ele><time>2026-04-19T08:37:58Z</time></trkpt><trkpt lat="40.845429210462584" lon="14.684014335256874"><ele>823.0</ele><time>2026-04-19T08:37:59Z</time></trkpt><trkpt lat="40.84544855398011" lon="14.684095118760464"><ele>821.0</ele><time>2026-04-19T08:38:00Z</time></trkpt><trkpt lat="40.84539750631993" lon="14.684236842451524"><ele>819.0</ele><time>2026-04-19T08:38:02Z</time></trkpt><trkpt lat="40.84533187792486" lon="14.684301841940659"><ele>817.0000000000001</ele><time>2026-04-19T08:38:02.999Z</time></trkpt><trkpt lat="40.84528180752491" lon="14.684388918464554"><ele>815.0</ele><time>2026-04-19T08:38:04.999Z</time></trkpt><trkpt lat="40.845334531789334" lon="14.684496915267804"><ele>815.0000000000001</ele><time>2026-04-19T08:38:06.999Z</time></trkpt><trkpt lat="40.84542638018802" lon="14.684463314809292"><ele>815.0</ele><time>2026-04-19T08:38:08.999Z</time></trkpt><trkpt lat="40.84548929036111" lon="14.684431187571214"><ele>815.0</ele><time>2026-04-19T08:38:10.999Z</time></trkpt><trkpt lat="40.84556992024957" lon="14.68447502202449"><ele>815.0</ele><time>2026-04-19T08:38:13.999Z</time></trkpt><trkpt lat="40.84560832652485" lon="14.684559232081753"><ele>815.0000000000001</ele><time>2026-04-19T08:38:16.999Z</time></trkpt><trkpt lat="40.84563592688101" lon="14.684653489557858"><ele>815.0</ele><time>2026-04-19T08:38:20.999Z</time></trkpt><trkpt lat="40.84566321925993" lon="14.685016664072439"><ele>815.0</ele><time>2026-04-19T08:38:24.999Z</time></trkpt><trkpt lat="40.84566610929874" lon="14.685120480156302"><ele>815.0</ele><time>2026-04-19T08:38:25.999Z</time></trkpt><trkpt lat="40.84565585058842" lon="14.685207772123812"><ele>815.0</ele><time>2026-04-19T08:38:26.999Z</time></trkpt><trkpt lat="40.845646745035836" lon="14.685304073775306"><ele>815.0</ele><time>2026-04-19T08:38:27.999Z</time></trkpt><trkpt lat="40.84564066442057" lon="14.68540137370343"><ele>815.0</ele><time>2026-04-19T08:38:28.999Z</time></trkpt><trkpt lat="40.84563676200544" lon="14.685502385938104"><ele>815.0</ele><time>2026-04-19T08:38:29.999Z</time></trkpt><trkpt lat="40.8456329898409" lon="14.6855865413923"><ele>815.0</ele><time>2026-04-19T08:38:30.999Z</time></trkpt><trkpt lat="40.845627205289134" lon="14.685710733846479"><ele>818.0</ele><time>2026-04-19T08:38:33.001Z</time></trkpt><trkpt lat="40.845674446810165" lon="14.685816070093285"><ele>821.0</ele><time>2026-04-19T08:38:35.001Z</time></trkpt><trkpt lat="40.84573891389054" lon="14.68587514437193"><ele>824.0</ele><time>2026-04-19T08:38:37.001Z</time></trkpt><trkpt lat="40.84587328870021" lon="14.685927132869555"><ele>827.0</ele><time>2026-04-19T08:38:39.001Z</time></trkpt><trkpt lat="40.845957258481796" lon="14.685969204960294"><ele>830.0</ele><time>2026-04-19T08:38:40.001Z</time></trkpt><trkpt lat="40.846047557492746" lon="14.686002114196755"><ele>830.0000000000001</ele><time>2026-04-19T08:38:41.001Z</time></trkpt><trkpt lat="40.84611217293041" lon="14.686045842309948"><ele>830.0</ele><time>2026-04-19T08:38:42.001Z</time></trkpt><trkpt lat="40.846188562694714" lon="14.686086698389122"><ele>830.0</ele><time>2026-04-19T08:38:44.001Z</time></trkpt><trkpt lat="40.846122167093256" lon="14.685952440557134"><ele>830.0</ele><time>2026-04-19T08:38:46.001Z</time></trkpt><trkpt lat="40.84616016132869" lon="14.686024216525166"><ele>830.0000000000001</ele><time>2026-04-19T08:42:38.999Z</time></trkpt><trkpt lat="40.84621809854398" lon="14.686089659071087"><ele>830.0</ele><time>2026-04-19T08:42:43.999Z</time></trkpt><trkpt lat="40.84630253502445" lon="14.686203265782487"><ele>835.6</ele><time>2026-04-19T08:45:24.999Z</time></trkpt><trkpt lat="40.84635588283459" lon="14.686258467396586"><ele>841.2</ele><time>2026-04-19T08:47:29.999Z</time></trkpt><trkpt lat="40.846349216632944" lon="14.686371010047523"><ele>846.8</ele><time>2026-04-19T08:48:13.999Z</time></trkpt><trkpt lat="40.84625904107739" lon="14.686346711521463"><ele>852.4</ele><time>2026-04-19T08:49:05Z</time></trkpt><trkpt lat="40.846151709701935" lon="14.686300886201783"><ele>858.0</ele><time>2026-04-19T08:49:07Z</time></trkpt><trkpt lat="40.84604593976723" lon="14.686257778403878"><ele>858.0</ele><time>2026-04-19T08:49:10Z</time></trkpt><trkpt lat="40.846008755204664" lon="14.686338205954202"><ele>858.0</ele><time>2026-04-19T08:49:12Z</time></trkpt><trkpt lat="40.84609210608139" lon="14.686433039410323"><ele>858.0</ele><time>2026-04-19T08:49:14Z</time></trkpt><trkpt lat="40.846158566804085" lon="14.686485982654347"><ele>858.0</ele><time>2026-04-19T08:49:15Z</time></trkpt><trkpt lat="40.84621710788916" lon="14.68654367012992"><ele>858.0</ele><time>2026-04-19T08:49:16Z</time></trkpt><trkpt lat="40.8462882254892" lon="14.686619646512836"><ele>858.0</ele><time>2026-04-19T08:49:18Z</time></trkpt><trkpt lat="40.846350175326236" lon="14.686720378266443"><ele>858.0</ele><time>2026-04-19T08:49:21Z</time></trkpt><trkpt lat="40.84639474018862" lon="14.68678439810403"><ele>858.0</ele><time>2026-04-19T08:49:22Z</time></trkpt><trkpt lat="40.84639906404093" lon="14.686873896396483"><ele>858.0</ele><time>2026-04-19T08:49:24Z</time></trkpt><trkpt lat="40.8463236663053" lon="14.686905010296645"><ele>858.0</ele><time>2026-04-19T08:49:26Z</time></trkpt><trkpt lat="40.84624065183507" lon="14.68693640117377"><ele>858.0</ele><time>2026-04-19T08:49:28Z</time></trkpt><trkpt lat="40.846210909989914" lon="14.687078044437555"><ele>858.0</ele><time>2026-04-19T08:49:30Z</time></trkpt><trkpt lat="40.84621581517144" lon="14.687180711533461"><ele>860.0</ele><time>2026-04-19T08:49:31Z</time></trkpt><trkpt lat="40.846228525729536" lon="14.687270926154913"><ele>862.0</ele><time>2026-04-19T08:49:31.999Z</time></trkpt><trkpt lat="40.84625792481266" lon="14.687356794107556"><ele>864.0</ele><time>2026-04-19T08:49:32.999Z</time></trkpt><trkpt lat="40.84629534954645" lon="14.687466147504322"><ele>866.0</ele><time>2026-04-19T08:49:33.999Z</time></trkpt><trkpt lat="40.846350679423395" lon="14.687620534116304"><ele>868.0</ele><time>2026-04-19T08:49:34.999Z</time></trkpt><trkpt lat="40.84639205318891" lon="14.687778912330176"><ele>867.9999999999999</ele><time>2026-04-19T08:49:35.999Z</time></trkpt><trkpt lat="40.84640281906649" lon="14.68786756919405"><ele>868.0</ele><time>2026-04-19T08:49:36.999Z</time></trkpt><trkpt lat="40.8464285182539" lon="14.688019375019698"><ele>868.0</ele><time>2026-04-19T08:49:38.999Z</time></trkpt><trkpt lat="40.846484931872126" lon="14.688093842857045"><ele>868.0</ele><time>2026-04-19T08:49:40.999Z</time></trkpt><trkpt lat="40.84655810775996" lon="14.688076687356334"><ele>867.9999999999999</ele><time>2026-04-19T08:49:43.999Z</time></trkpt><trkpt lat="40.846619434017065" lon="14.688047564921925"><ele>868.0</ele><time>2026-04-19T08:49:51.999Z</time></trkpt><trkpt lat="40.846654114711185" lon="14.687969001016132"><ele>867.9999999999999</ele><time>2026-04-19T08:49:53.999Z</time></trkpt><trkpt lat="40.84670697814591" lon="14.687912972331157"><ele>868.0</ele><time>2026-04-19T08:49:55.999Z</time></trkpt><trkpt lat="40.846653515461256" lon="14.687774059334396"><ele>868.0</ele><time>2026-04-19T08:50:00.999Z</time></trkpt><trkpt lat="40.846592438580785" lon="14.687660124434373"><ele>868.0</ele><time>2026-04-19T08:50:02.999Z</time></trkpt><trkpt lat="40.846574741800964" lon="14.68756509039072"><ele>867.9999999999999</ele><time>2026-04-19T08:50:04.999Z</time></trkpt><trkpt lat="40.84650291364975" lon="14.687512598641536"><ele>868.0</ele><time>2026-04-19T08:50:07.999Z</time></trkpt><trkpt lat="40.846503653085925" lon="14.687626114295709"><ele>868.0</ele><time>2026-04-19T08:50:10.999Z</time></trkpt><trkpt lat="40.84656769858164" lon="14.687760467072886"><ele>868.0</ele><time>2026-04-19T08:50:12.999Z</time></trkpt><trkpt lat="40.84660710031171" lon="14.687841739752745"><ele>868.0</ele><time>2026-04-19T08:50:13.999Z</time></trkpt><trkpt lat="40.846640497173226" lon="14.687937126224098"><ele>868.0</ele><time>2026-04-19T08:50:15.999Z</time></trkpt><trkpt lat="40.8465802383365" lon="14.68801052539284"><ele>868.0</ele><time>2026-04-19T08:50:18.999Z</time></trkpt></trkseg></trk></gpx>